﻿<?xml version="1.0" encoding="utf-8"?><gpx creator="Garmin Desktop App" version="1.1" xsi:schemaLocation="http://www.topografix.com/GPX/1/1 http://www.topografix.com/GPX/1/1/gpx.xsd http://www.garmin.com/xmlschemas/WaypointExtension/v1 http://www8.garmin.com/xmlschemas/WaypointExtensionv1.xsd http://www.garmin.com/xmlschemas/TrackPointExtension/v1 http://www.garmin.com/xmlschemas/TrackPointExtensionv1.xsd http://www.garmin.com/xmlschemas/GpxExtensions/v3 http://www8.garmin.com/xmlschemas/GpxExtensionsv3.xsd http://www.garmin.com/xmlschemas/ActivityExtension/v1 http://www8.garmin.com/xmlschemas/ActivityExtensionv1.xsd http://www.garmin.com/xmlschemas/AdventuresExtensions/v1 http://www8.garmin.com/xmlschemas/AdventuresExtensionv1.xsd http://www.garmin.com/xmlschemas/PressureExtension/v1 http://www.garmin.com/xmlschemas/PressureExtensionv1.xsd http://www.garmin.com/xmlschemas/TripExtensions/v1 http://www.garmin.com/xmlschemas/TripExtensionsv1.xsd http://www.garmin.com/xmlschemas/TripMetaDataExtensions/v1 http://www.garmin.com/xmlschemas/TripMetaDataExtensionsv1.xsd http://www.garmin.com/xmlschemas/ViaPointTransportationModeExtensions/v1 http://www.garmin.com/xmlschemas/ViaPointTransportationModeExtensionsv1.xsd http://www.garmin.com/xmlschemas/CreationTimeExtension/v1 http://www.garmin.com/xmlschemas/CreationTimeExtensionsv1.xsd http://www.garmin.com/xmlschemas/AccelerationExtension/v1 http://www.garmin.com/xmlschemas/AccelerationExtensionv1.xsd http://www.garmin.com/xmlschemas/PowerExtension/v1 http://www.garmin.com/xmlschemas/PowerExtensionv1.xsd http://www.garmin.com/xmlschemas/VideoExtension/v1 http://www.garmin.com/xmlschemas/VideoExtensionv1.xsd" xmlns="http://www.topografix.com/GPX/1/1" xmlns:xsi="http://www.w3.org/2001/XMLSchema-instance" xmlns:wptx1="http://www.garmin.com/xmlschemas/WaypointExtension/v1" xmlns:gpxtrx="http://www.garmin.com/xmlschemas/GpxExtensions/v3" xmlns:gpxtpx="http://www.garmin.com/xmlschemas/TrackPointExtension/v1" xmlns:gpxx="http://www.garmin.com/xmlschemas/GpxExtensions/v3" xmlns:trp="http://www.garmin.com/xmlschemas/TripExtensions/v1" xmlns:adv="http://www.garmin.com/xmlschemas/AdventuresExtensions/v1" xmlns:prs="http://www.garmin.com/xmlschemas/PressureExtension/v1" xmlns:tmd="http://www.garmin.com/xmlschemas/TripMetaDataExtensions/v1" xmlns:vptm="http://www.garmin.com/xmlschemas/ViaPointTransportationModeExtensions/v1" xmlns:ctx="http://www.garmin.com/xmlschemas/CreationTimeExtension/v1" xmlns:gpxacc="http://www.garmin.com/xmlschemas/AccelerationExtension/v1" xmlns:gpxpx="http://www.garmin.com/xmlschemas/PowerExtension/v1" xmlns:vidx1="http://www.garmin.com/xmlschemas/VideoExtension/v1">

  <metadata>
    <link href="http://www.garmin.com">
      <text>Garmin International</text>
    </link>
    <time>2021-01-19T19:16:40Z</time>
    <bounds maxlat="46.31622601300478" maxlon="8.260915344581008" minlat="46.294995406642556" minlon="8.232698673382402" />
  </metadata>

  <trk>
    <name>cazzola2019-01-15</name>
    <extensions>
      <gpxx:TrackExtension>
        <gpxx:DisplayColor>Yellow</gpxx:DisplayColor>
      </gpxx:TrackExtension>
      <gpxtrkx:TrackStatsExtension xmlns:gpxtrkx="http://www.garmin.com/xmlschemas/TrackStatsExtension/v1">
        <gpxtrkx:Distance>10823</gpxtrkx:Distance>
        <gpxtrkx:TotalElapsedTime>17751</gpxtrkx:TotalElapsedTime>
        <gpxtrkx:MovingTime>13259</gpxtrkx:MovingTime>
        <gpxtrkx:StoppedTime>4483</gpxtrkx:StoppedTime>
        <gpxtrkx:MovingSpeed>1</gpxtrkx:MovingSpeed>
        <gpxtrkx:MaxSpeed>3</gpxtrkx:MaxSpeed>
        <gpxtrkx:MaxElevation>2340</gpxtrkx:MaxElevation>
        <gpxtrkx:MinElevation>1630</gpxtrkx:MinElevation>
        <gpxtrkx:Ascent>895</gpxtrkx:Ascent>
        <gpxtrkx:Descent>909</gpxtrkx:Descent>
        <gpxtrkx:AvgAscentRate>0</gpxtrkx:AvgAscentRate>
        <gpxtrkx:MaxAscentRate>1</gpxtrkx:MaxAscentRate>
        <gpxtrkx:AvgDescentRate>0</gpxtrkx:AvgDescentRate>
        <gpxtrkx:MaxDescentRate>-3</gpxtrkx:MaxDescentRate>
      </gpxtrkx:TrackStatsExtension>
    </extensions>
    <trkseg>
      <trkpt lat="46.315215993672609" lon="8.26065257191658">
        <ele>1642.55</ele>
        <time>2019-01-15T07:57:59Z</time>
      </trkpt>
      <trkpt lat="46.315220352262259" lon="8.2606584392488">
        <ele>1643.51</ele>
        <time>2019-01-15T07:58:10Z</time>
      </trkpt>
      <trkpt lat="46.315212054178119" lon="8.260672269389033">
        <ele>1643.99</ele>
        <time>2019-01-15T07:58:18Z</time>
      </trkpt>
      <trkpt lat="46.315208533778787" lon="8.260689955204725">
        <ele>1643.99</ele>
        <time>2019-01-15T07:58:19Z</time>
      </trkpt>
      <trkpt lat="46.315217083320022" lon="8.260640669614077">
        <ele>1643.03</ele>
        <time>2019-01-15T07:58:27Z</time>
      </trkpt>
      <trkpt lat="46.315203169360757" lon="8.26064134016633">
        <ele>1644.47</ele>
        <time>2019-01-15T07:58:36Z</time>
      </trkpt>
      <trkpt lat="46.315211718901992" lon="8.260580822825432">
        <ele>1643.99</ele>
        <time>2019-01-15T07:58:40Z</time>
      </trkpt>
      <trkpt lat="46.315209791064262" lon="8.260533129796386">
        <ele>1643.51</ele>
        <time>2019-01-15T07:58:43Z</time>
      </trkpt>
      <trkpt lat="46.315200068056583" lon="8.260493902489543">
        <ele>1642.0699999999999</ele>
        <time>2019-01-15T07:58:47Z</time>
      </trkpt>
      <trkpt lat="46.315190177410841" lon="8.260456267744303">
        <ele>1640.6300000000001</ele>
        <time>2019-01-15T07:58:57Z</time>
      </trkpt>
      <trkpt lat="46.315185567364097" lon="8.260411089286208">
        <ele>1640.1500000000001</ele>
        <time>2019-01-15T07:59:00Z</time>
      </trkpt>
      <trkpt lat="46.315176095813513" lon="8.260293994098902">
        <ele>1641.1099999999999</ele>
        <time>2019-01-15T07:59:07Z</time>
      </trkpt>
      <trkpt lat="46.315168384462595" lon="8.260231968015432">
        <ele>1641.1099999999999</ele>
        <time>2019-01-15T07:59:11Z</time>
      </trkpt>
      <trkpt lat="46.315169306471944" lon="8.260195842012763">
        <ele>1640.6300000000001</ele>
        <time>2019-01-15T07:59:13Z</time>
      </trkpt>
      <trkpt lat="46.315153129398823" lon="8.2601438742131">
        <ele>1640.1500000000001</ele>
        <time>2019-01-15T07:59:17Z</time>
      </trkpt>
      <trkpt lat="46.315117422491312" lon="8.259989563375711">
        <ele>1640.6300000000001</ele>
        <time>2019-01-15T07:59:28Z</time>
      </trkpt>
      <trkpt lat="46.315073501318693" lon="8.259842377156019">
        <ele>1641.1099999999999</ele>
        <time>2019-01-15T07:59:38Z</time>
      </trkpt>
      <trkpt lat="46.315054893493652" lon="8.259787224233151">
        <ele>1641.1099999999999</ele>
        <time>2019-01-15T07:59:42Z</time>
      </trkpt>
      <trkpt lat="46.315019186586142" lon="8.259644815698266">
        <ele>1640.6300000000001</ele>
        <time>2019-01-15T07:59:52Z</time>
      </trkpt>
      <trkpt lat="46.315014576539397" lon="8.259533168748021">
        <ele>1640.6300000000001</ele>
        <time>2019-01-15T08:00:01Z</time>
      </trkpt>
      <trkpt lat="46.315032513812184" lon="8.259521517902613">
        <ele>1639.1900000000001</ele>
        <time>2019-01-15T08:00:08Z</time>
      </trkpt>
      <trkpt lat="46.315023712813854" lon="8.259425461292267">
        <ele>1639.1900000000001</ele>
        <time>2019-01-15T08:00:16Z</time>
      </trkpt>
      <trkpt lat="46.315042823553085" lon="8.25929269194603">
        <ele>1639.6700000000001</ele>
        <time>2019-01-15T08:00:25Z</time>
      </trkpt>
      <trkpt lat="46.315039889886975" lon="8.25927609577775">
        <ele>1639.6700000000001</ele>
        <time>2019-01-15T08:00:26Z</time>
      </trkpt>
      <trkpt lat="46.315053636208177" lon="8.259195629507303">
        <ele>1639.6700000000001</ele>
        <time>2019-01-15T08:00:31Z</time>
      </trkpt>
      <trkpt lat="46.315060257911682" lon="8.259151289239526">
        <ele>1640.1500000000001</ele>
        <time>2019-01-15T08:00:34Z</time>
      </trkpt>
      <trkpt lat="46.315080039203167" lon="8.259059591218829">
        <ele>1640.6300000000001</ele>
        <time>2019-01-15T08:00:45Z</time>
      </trkpt>
      <trkpt lat="46.315099820494652" lon="8.259042324498296">
        <ele>1640.6300000000001</ele>
        <time>2019-01-15T08:00:56Z</time>
      </trkpt>
      <trkpt lat="46.315095378085971" lon="8.258997816592455">
        <ele>1641.1099999999999</ele>
        <time>2019-01-15T08:01:02Z</time>
      </trkpt>
      <trkpt lat="46.31510023958981" lon="8.258956242352724">
        <ele>1641.1099999999999</ele>
        <time>2019-01-15T08:01:05Z</time>
      </trkpt>
      <trkpt lat="46.315087834373116" lon="8.25879187323153">
        <ele>1641.1099999999999</ele>
        <time>2019-01-15T08:01:16Z</time>
      </trkpt>
      <trkpt lat="46.315084397792816" lon="8.258761027827859">
        <ele>1641.1099999999999</ele>
        <time>2019-01-15T08:01:18Z</time>
      </trkpt>
      <trkpt lat="46.315062353387475" lon="8.258692547678947">
        <ele>1641.5899999999999</ele>
        <time>2019-01-15T08:01:23Z</time>
      </trkpt>
      <trkpt lat="46.31504307501018" lon="8.258634209632874">
        <ele>1641.5899999999999</ele>
        <time>2019-01-15T08:01:34Z</time>
      </trkpt>
      <trkpt lat="46.315029496327043" lon="8.258608812466264">
        <ele>1643.99</ele>
        <time>2019-01-15T08:01:46Z</time>
      </trkpt>
      <trkpt lat="46.314994543790817" lon="8.25848107226193">
        <ele>1644.47</ele>
        <time>2019-01-15T08:01:55Z</time>
      </trkpt>
      <trkpt lat="46.314989263191819" lon="8.258402701467276">
        <ele>1645.4300000000001</ele>
        <time>2019-01-15T08:02:01Z</time>
      </trkpt>
      <trkpt lat="46.31502840667963" lon="8.258313937112689">
        <ele>1645.9100000000001</ele>
        <time>2019-01-15T08:02:08Z</time>
      </trkpt>
      <trkpt lat="46.315055899322033" lon="8.258312847465277">
        <ele>1646.4000000000001</ele>
        <time>2019-01-15T08:02:12Z</time>
      </trkpt>
      <trkpt lat="46.315086409449577" lon="8.258285271003842">
        <ele>1645.9100000000001</ele>
        <time>2019-01-15T08:02:15Z</time>
      </trkpt>
      <trkpt lat="46.315132258459926" lon="8.258259538561106">
        <ele>1646.4000000000001</ele>
        <time>2019-01-15T08:02:19Z</time>
      </trkpt>
      <trkpt lat="46.315167797729373" lon="8.258244534954429">
        <ele>1646.8800000000001</ele>
        <time>2019-01-15T08:02:29Z</time>
      </trkpt>
      <trkpt lat="46.31518229842186" lon="8.258221819996834">
        <ele>1646.4000000000001</ele>
        <time>2019-01-15T08:02:31Z</time>
      </trkpt>
      <trkpt lat="46.315205013379455" lon="8.258196925744414">
        <ele>1645.9100000000001</ele>
        <time>2019-01-15T08:02:33Z</time>
      </trkpt>
      <trkpt lat="46.315278774127364" lon="8.258089972659946">
        <ele>1644.95</ele>
        <time>2019-01-15T08:02:41Z</time>
      </trkpt>
      <trkpt lat="46.315292520448565" lon="8.258042866364121">
        <ele>1644.95</ele>
        <time>2019-01-15T08:02:45Z</time>
      </trkpt>
      <trkpt lat="46.315332250669599" lon="8.257886543869972">
        <ele>1644.95</ele>
        <time>2019-01-15T08:02:56Z</time>
      </trkpt>
      <trkpt lat="46.315373741090298" lon="8.25774572789669">
        <ele>1643.99</ele>
        <time>2019-01-15T08:03:06Z</time>
      </trkpt>
      <trkpt lat="46.315385643392801" lon="8.257680768147111">
        <ele>1643.99</ele>
        <time>2019-01-15T08:03:11Z</time>
      </trkpt>
      <trkpt lat="46.315411208197474" lon="8.257532324641943">
        <ele>1643.51</ele>
        <time>2019-01-15T08:03:22Z</time>
      </trkpt>
      <trkpt lat="46.315413974225521" lon="8.257506089285016">
        <ele>1643.51</ele>
        <time>2019-01-15T08:03:24Z</time>
      </trkpt>
      <trkpt lat="46.315413303673267" lon="8.257463760674">
        <ele>1643.03</ele>
        <time>2019-01-15T08:03:27Z</time>
      </trkpt>
      <trkpt lat="46.315402491018176" lon="8.257366362959147">
        <ele>1643.99</ele>
        <time>2019-01-15T08:03:37Z</time>
      </trkpt>
      <trkpt lat="46.31540659815073" lon="8.257364602759481">
        <ele>1644.47</ele>
        <time>2019-01-15T08:03:50Z</time>
      </trkpt>
      <trkpt lat="46.315404586493969" lon="8.257354963570833">
        <ele>1646.8800000000001</ele>
        <time>2019-01-15T08:04:06Z</time>
      </trkpt>
      <trkpt lat="46.315416488796473" lon="8.257217835634947">
        <ele>1645.9100000000001</ele>
        <time>2019-01-15T08:04:15Z</time>
      </trkpt>
      <trkpt lat="46.315411040559411" lon="8.257194198668003">
        <ele>1645.9100000000001</ele>
        <time>2019-01-15T08:04:17Z</time>
      </trkpt>
      <trkpt lat="46.315403832122684" lon="8.257170058786869">
        <ele>1645.9100000000001</ele>
        <time>2019-01-15T08:04:19Z</time>
      </trkpt>
      <trkpt lat="46.315403413027525" lon="8.257068134844303">
        <ele>1645.9100000000001</ele>
        <time>2019-01-15T08:04:26Z</time>
      </trkpt>
      <trkpt lat="46.315413890406489" lon="8.256930923089385">
        <ele>1645.4300000000001</ele>
        <time>2019-01-15T08:04:35Z</time>
      </trkpt>
      <trkpt lat="46.315404335036874" lon="8.256795639172196">
        <ele>1645.4300000000001</ele>
        <time>2019-01-15T08:04:44Z</time>
      </trkpt>
      <trkpt lat="46.315394779667258" lon="8.256702264770865">
        <ele>1644.95</ele>
        <time>2019-01-15T08:04:51Z</time>
      </trkpt>
      <trkpt lat="46.315393438562751" lon="8.256693128496409">
        <ele>1645.4300000000001</ele>
        <time>2019-01-15T08:04:52Z</time>
      </trkpt>
      <trkpt lat="46.315388828516006" lon="8.25666387565434">
        <ele>1645.9100000000001</ele>
        <time>2019-01-15T08:04:54Z</time>
      </trkpt>
      <trkpt lat="46.315389331430197" lon="8.256617775186896">
        <ele>1645.9100000000001</ele>
        <time>2019-01-15T08:04:57Z</time>
      </trkpt>
      <trkpt lat="46.315380614250898" lon="8.256566477939487">
        <ele>1645.9100000000001</ele>
        <time>2019-01-15T08:05:01Z</time>
      </trkpt>
      <trkpt lat="46.315364353358746" lon="8.256444102153182">
        <ele>1645.9100000000001</ele>
        <time>2019-01-15T08:05:09Z</time>
      </trkpt>
      <trkpt lat="46.315353624522686" lon="8.25630278326571">
        <ele>1645.4300000000001</ele>
        <time>2019-01-15T08:05:19Z</time>
      </trkpt>
      <trkpt lat="46.315342057496309" lon="8.256188118830323">
        <ele>1645.9100000000001</ele>
        <time>2019-01-15T08:05:27Z</time>
      </trkpt>
      <trkpt lat="46.315337112173438" lon="8.256174707785249">
        <ele>1645.9100000000001</ele>
        <time>2019-01-15T08:05:28Z</time>
      </trkpt>
      <trkpt lat="46.315335603430867" lon="8.256141431629658">
        <ele>1646.4000000000001</ele>
        <time>2019-01-15T08:05:31Z</time>
      </trkpt>
      <trkpt lat="46.315311128273606" lon="8.256103126332164">
        <ele>1646.8800000000001</ele>
        <time>2019-01-15T08:05:40Z</time>
      </trkpt>
      <trkpt lat="46.315316492691636" lon="8.256047889590263">
        <ele>1647.3599999999999</ele>
        <time>2019-01-15T08:05:45Z</time>
      </trkpt>
      <trkpt lat="46.315319845452905" lon="8.256008746102452">
        <ele>1647.3599999999999</ele>
        <time>2019-01-15T08:05:47Z</time>
      </trkpt>
      <trkpt lat="46.315310206264257" lon="8.255952587351203">
        <ele>1647.8399999999999</ele>
        <time>2019-01-15T08:05:51Z</time>
      </trkpt>
      <trkpt lat="46.31531230174005" lon="8.255812525749207">
        <ele>1647.3599999999999</ele>
        <time>2019-01-15T08:06:01Z</time>
      </trkpt>
      <trkpt lat="46.315312720835209" lon="8.255792576819658">
        <ele>1647.8399999999999</ele>
        <time>2019-01-15T08:06:03Z</time>
      </trkpt>
      <trkpt lat="46.315302578732371" lon="8.255677409470081">
        <ele>1647.8399999999999</ele>
        <time>2019-01-15T08:06:12Z</time>
      </trkpt>
      <trkpt lat="46.315286234021187" lon="8.255549920722842">
        <ele>1648.8</ele>
        <time>2019-01-15T08:06:22Z</time>
      </trkpt>
      <trkpt lat="46.315272655338049" lon="8.255475405603647">
        <ele>1649.28</ele>
        <time>2019-01-15T08:06:28Z</time>
      </trkpt>
      <trkpt lat="46.315258657559752" lon="8.255340540781617">
        <ele>1649.28</ele>
        <time>2019-01-15T08:06:38Z</time>
      </trkpt>
      <trkpt lat="46.315255220979452" lon="8.255268875509501">
        <ele>1648.3199999999999</ele>
        <time>2019-01-15T08:06:43Z</time>
      </trkpt>
      <trkpt lat="46.315242731943727" lon="8.255162090063095">
        <ele>1648.8</ele>
        <time>2019-01-15T08:06:51Z</time>
      </trkpt>
      <trkpt lat="46.315240049734712" lon="8.255132837221026">
        <ele>1648.8</ele>
        <time>2019-01-15T08:06:53Z</time>
      </trkpt>
      <trkpt lat="46.315236194059253" lon="8.255105763673782">
        <ele>1648.8</ele>
        <time>2019-01-15T08:06:55Z</time>
      </trkpt>
      <trkpt lat="46.315228315070271" lon="8.255034685134888">
        <ele>1649.28</ele>
        <time>2019-01-15T08:07:01Z</time>
      </trkpt>
      <trkpt lat="46.315225465223193" lon="8.254921026527882">
        <ele>1648.8</ele>
        <time>2019-01-15T08:07:13Z</time>
      </trkpt>
      <trkpt lat="46.315219346433878" lon="8.254870567470789">
        <ele>1648.3199999999999</ele>
        <time>2019-01-15T08:07:17Z</time>
      </trkpt>
      <trkpt lat="46.315212054178119" lon="8.254776857793331">
        <ele>1649.28</ele>
        <time>2019-01-15T08:07:24Z</time>
      </trkpt>
      <trkpt lat="46.315208785235882" lon="8.254634952172637">
        <ele>1651.2</ele>
        <time>2019-01-15T08:07:35Z</time>
      </trkpt>
      <trkpt lat="46.315192691981792" lon="8.25448751449585">
        <ele>1650.72</ele>
        <time>2019-01-15T08:07:46Z</time>
      </trkpt>
      <trkpt lat="46.315178191289306" lon="8.254456166177988">
        <ele>1651.2</ele>
        <time>2019-01-15T08:07:49Z</time>
      </trkpt>
      <trkpt lat="46.315137958154082" lon="8.254353236407042">
        <ele>1650.72</ele>
        <time>2019-01-15T08:07:58Z</time>
      </trkpt>
      <trkpt lat="46.315108872950077" lon="8.254233626648784">
        <ele>1650.72</ele>
        <time>2019-01-15T08:08:07Z</time>
      </trkpt>
      <trkpt lat="46.31507090292871" lon="8.254104712978005">
        <ele>1650.72</ele>
        <time>2019-01-15T08:08:17Z</time>
      </trkpt>
      <trkpt lat="46.315063694491982" lon="8.254071269184351">
        <ele>1651.6800000000001</ele>
        <time>2019-01-15T08:08:20Z</time>
      </trkpt>
      <trkpt lat="46.315054642036557" lon="8.254025001078844">
        <ele>1651.2</ele>
        <time>2019-01-15T08:08:24Z</time>
      </trkpt>
      <trkpt lat="46.315038381144404" lon="8.25397253036499">
        <ele>1651.6800000000001</ele>
        <time>2019-01-15T08:08:35Z</time>
      </trkpt>
      <trkpt lat="46.315015917643905" lon="8.25388946570456">
        <ele>1651.6800000000001</ele>
        <time>2019-01-15T08:08:43Z</time>
      </trkpt>
      <trkpt lat="46.314956992864609" lon="8.253726856783032">
        <ele>1653.5999999999999</ele>
        <time>2019-01-15T08:08:57Z</time>
      </trkpt>
      <trkpt lat="46.314944252371788" lon="8.253671368584037">
        <ele>1654.0899999999999</ele>
        <time>2019-01-15T08:09:02Z</time>
      </trkpt>
      <trkpt lat="46.314917178824544" lon="8.25361043214798">
        <ele>1655.53</ele>
        <time>2019-01-15T08:09:12Z</time>
      </trkpt>
      <trkpt lat="46.314936960116029" lon="8.253703135997057">
        <ele>1660.8099999999999</ele>
        <time>2019-01-15T08:09:43Z</time>
      </trkpt>
      <trkpt lat="46.314919525757432" lon="8.253651168197393">
        <ele>1661.78</ele>
        <time>2019-01-15T08:09:54Z</time>
      </trkpt>
      <trkpt lat="46.314953975379467" lon="8.253646390512586">
        <ele>1660.3299999999999</ele>
        <time>2019-01-15T08:10:06Z</time>
      </trkpt>
      <trkpt lat="46.314949784427881" lon="8.253641026094556">
        <ele>1660.8099999999999</ele>
        <time>2019-01-15T08:10:21Z</time>
      </trkpt>
      <trkpt lat="46.314901923760772" lon="8.25364463031292">
        <ele>1661.78</ele>
        <time>2019-01-15T08:10:35Z</time>
      </trkpt>
      <trkpt lat="46.314904941245914" lon="8.253647312521935">
        <ele>1660.8099999999999</ele>
        <time>2019-01-15T08:10:37Z</time>
      </trkpt>
      <trkpt lat="46.314885495230556" lon="8.253630800172687">
        <ele>1662.26</ele>
        <time>2019-01-15T08:10:47Z</time>
      </trkpt>
      <trkpt lat="46.314888764172792" lon="8.253604900091887">
        <ele>1661.78</ele>
        <time>2019-01-15T08:10:49Z</time>
      </trkpt>
      <trkpt lat="46.314896224066615" lon="8.253500880673528">
        <ele>1658.4100000000001</ele>
        <time>2019-01-15T08:10:58Z</time>
      </trkpt>
      <trkpt lat="46.314894715324044" lon="8.253490990027785">
        <ele>1658.4100000000001</ele>
        <time>2019-01-15T08:10:59Z</time>
      </trkpt>
      <trkpt lat="46.314888009801507" lon="8.253453439101577">
        <ele>1658.4100000000001</ele>
        <time>2019-01-15T08:11:02Z</time>
      </trkpt>
      <trkpt lat="46.314877867698669" lon="8.25341010466218">
        <ele>1658.4100000000001</ele>
        <time>2019-01-15T08:11:06Z</time>
      </trkpt>
      <trkpt lat="46.314853811636567" lon="8.25326937250793">
        <ele>1658.4100000000001</ele>
        <time>2019-01-15T08:11:16Z</time>
      </trkpt>
      <trkpt lat="46.314839059486985" lon="8.253133418038487">
        <ele>1658.8900000000001</ele>
        <time>2019-01-15T08:11:26Z</time>
      </trkpt>
      <trkpt lat="46.314814081415534" lon="8.253000816330314">
        <ele>1658.4100000000001</ele>
        <time>2019-01-15T08:11:35Z</time>
      </trkpt>
      <trkpt lat="46.314813243225217" lon="8.252959996461868">
        <ele>1658.8900000000001</ele>
        <time>2019-01-15T08:11:38Z</time>
      </trkpt>
      <trkpt lat="46.31480653770268" lon="8.252804512158036">
        <ele>1658.8900000000001</ele>
        <time>2019-01-15T08:11:49Z</time>
      </trkpt>
      <trkpt lat="46.314815254881978" lon="8.252699989825487">
        <ele>1658.8900000000001</ele>
        <time>2019-01-15T08:11:56Z</time>
      </trkpt>
      <trkpt lat="46.314808297902346" lon="8.252669982612133">
        <ele>1658.8900000000001</ele>
        <time>2019-01-15T08:12:06Z</time>
      </trkpt>
      <trkpt lat="46.314798155799508" lon="8.252668138593435">
        <ele>1658.8900000000001</ele>
        <time>2019-01-15T08:12:08Z</time>
      </trkpt>
      <trkpt lat="46.314783487468958" lon="8.25265372171998">
        <ele>1659.3699999999999</ele>
        <time>2019-01-15T08:12:10Z</time>
      </trkpt>
      <trkpt lat="46.314686173573136" lon="8.252563197165728">
        <ele>1658.4100000000001</ele>
        <time>2019-01-15T08:12:22Z</time>
      </trkpt>
      <trkpt lat="46.314629763364792" lon="8.252461440861225">
        <ele>1658.4100000000001</ele>
        <time>2019-01-15T08:12:33Z</time>
      </trkpt>
      <trkpt lat="46.314595900475979" lon="8.252396732568741">
        <ele>1659.3699999999999</ele>
        <time>2019-01-15T08:12:41Z</time>
      </trkpt>
      <trkpt lat="46.314586848020554" lon="8.25233856216073">
        <ele>1660.3299999999999</ele>
        <time>2019-01-15T08:12:46Z</time>
      </trkpt>
      <trkpt lat="46.314576370641589" lon="8.25227745808661">
        <ele>1660.8099999999999</ele>
        <time>2019-01-15T08:12:52Z</time>
      </trkpt>
      <trkpt lat="46.314564635977149" lon="8.252230770885944">
        <ele>1661.78</ele>
        <time>2019-01-15T08:12:56Z</time>
      </trkpt>
      <trkpt lat="46.314551308751106" lon="8.252182910218835">
        <ele>1662.26</ele>
        <time>2019-01-15T08:13:01Z</time>
      </trkpt>
      <trkpt lat="46.31455197930336" lon="8.252127422019839">
        <ele>1662.26</ele>
        <time>2019-01-15T08:13:06Z</time>
      </trkpt>
      <trkpt lat="46.314536137506366" lon="8.251997251063585">
        <ele>1664.1800000000001</ele>
        <time>2019-01-15T08:13:18Z</time>
      </trkpt>
      <trkpt lat="46.314564971253276" lon="8.251863643527031">
        <ele>1666.0999999999999</ele>
        <time>2019-01-15T08:13:29Z</time>
      </trkpt>
      <trkpt lat="46.314557259902358" lon="8.251828774809837">
        <ele>1667.54</ele>
        <time>2019-01-15T08:13:39Z</time>
      </trkpt>
      <trkpt lat="46.314585255458951" lon="8.251742441207171">
        <ele>1668.02</ele>
        <time>2019-01-15T08:13:49Z</time>
      </trkpt>
      <trkpt lat="46.314606545493007" lon="8.251674799248576">
        <ele>1668.51</ele>
        <time>2019-01-15T08:13:57Z</time>
      </trkpt>
      <trkpt lat="46.314658345654607" lon="8.251618472859263">
        <ele>1670.9100000000001</ele>
        <time>2019-01-15T08:14:06Z</time>
      </trkpt>
      <trkpt lat="46.314688604325056" lon="8.251587962731719">
        <ele>1671.8699999999999</ele>
        <time>2019-01-15T08:14:14Z</time>
      </trkpt>
      <trkpt lat="46.314688604325056" lon="8.251568851992488">
        <ele>1671.3900000000001</ele>
        <time>2019-01-15T08:14:25Z</time>
      </trkpt>
      <trkpt lat="46.314693382009864" lon="8.251583855599165">
        <ele>1672.8299999999999</ele>
        <time>2019-01-15T08:14:40Z</time>
      </trkpt>
      <trkpt lat="46.314693465828896" lon="8.251571031287313">
        <ele>1673.79</ele>
        <time>2019-01-15T08:14:50Z</time>
      </trkpt>
      <trkpt lat="46.3147606048733" lon="8.251533564180136">
        <ele>1674.75</ele>
        <time>2019-01-15T08:14:59Z</time>
      </trkpt>
      <trkpt lat="46.314806202426553" lon="8.251529959961772">
        <ele>1675.23</ele>
        <time>2019-01-15T08:15:11Z</time>
      </trkpt>
      <trkpt lat="46.314808130264282" lon="8.251475896686316">
        <ele>1676.2</ele>
        <time>2019-01-15T08:15:15Z</time>
      </trkpt>
      <trkpt lat="46.314810393378139" lon="8.251377744600177">
        <ele>1675.72</ele>
        <time>2019-01-15T08:15:24Z</time>
      </trkpt>
      <trkpt lat="46.314796647056937" lon="8.251308426260948">
        <ele>1674.75</ele>
        <time>2019-01-15T08:15:33Z</time>
      </trkpt>
      <trkpt lat="46.314805028960109" lon="8.251260565593839">
        <ele>1674.27</ele>
        <time>2019-01-15T08:15:39Z</time>
      </trkpt>
      <trkpt lat="46.314810309559107" lon="8.251237766817212">
        <ele>1673.3099999999999</ele>
        <time>2019-01-15T08:15:43Z</time>
      </trkpt>
      <trkpt lat="46.314834868535399" lon="8.251173058524728">
        <ele>1672.3499999999999</ele>
        <time>2019-01-15T08:15:51Z</time>
      </trkpt>
      <trkpt lat="46.314849704504013" lon="8.251113379374147">
        <ele>1672.8299999999999</ele>
        <time>2019-01-15T08:15:59Z</time>
      </trkpt>
      <trkpt lat="46.314882226288319" lon="8.251014472916722">
        <ele>1676.2</ele>
        <time>2019-01-15T08:16:09Z</time>
      </trkpt>
      <trkpt lat="46.314891865476966" lon="8.251003073528409">
        <ele>1677.1600000000001</ele>
        <time>2019-01-15T08:16:11Z</time>
      </trkpt>
      <trkpt lat="46.314910892397165" lon="8.250986225903034">
        <ele>1679.0799999999999</ele>
        <time>2019-01-15T08:16:13Z</time>
      </trkpt>
      <trkpt lat="46.314943162724376" lon="8.250945573672652">
        <ele>1681</ele>
        <time>2019-01-15T08:16:18Z</time>
      </trkpt>
      <trkpt lat="46.314986832439899" lon="8.25095621868968">
        <ele>1678.5999999999999</ele>
        <time>2019-01-15T08:16:27Z</time>
      </trkpt>
      <trkpt lat="46.314993454143405" lon="8.250975161790848">
        <ele>1677.6400000000001</ele>
        <time>2019-01-15T08:16:29Z</time>
      </trkpt>
      <trkpt lat="46.315014073625207" lon="8.25096745043993">
        <ele>1679.0799999999999</ele>
        <time>2019-01-15T08:16:38Z</time>
      </trkpt>
      <trkpt lat="46.315018432214856" lon="8.250964852049947">
        <ele>1678.5999999999999</ele>
        <time>2019-01-15T08:16:39Z</time>
      </trkpt>
      <trkpt lat="46.3150679692626" lon="8.250854546204209">
        <ele>1681.48</ele>
        <time>2019-01-15T08:16:50Z</time>
      </trkpt>
      <trkpt lat="46.315109459683299" lon="8.250762596726418">
        <ele>1683.8900000000001</ele>
        <time>2019-01-15T08:17:01Z</time>
      </trkpt>
      <trkpt lat="46.315159751102328" lon="8.250679029151797">
        <ele>1686.77</ele>
        <time>2019-01-15T08:17:11Z</time>
      </trkpt>
      <trkpt lat="46.315195206552744" lon="8.250584648922086">
        <ele>1688.6900000000001</ele>
        <time>2019-01-15T08:17:22Z</time>
      </trkpt>
      <trkpt lat="46.315209958702326" lon="8.250510301440954">
        <ele>1689.6500000000001</ele>
        <time>2019-01-15T08:17:32Z</time>
      </trkpt>
      <trkpt lat="46.315255053341389" lon="8.250429164618254">
        <ele>1691.5799999999999</ele>
        <time>2019-01-15T08:17:43Z</time>
      </trkpt>
      <trkpt lat="46.315279863774776" lon="8.250392451882362">
        <ele>1693.5</ele>
        <time>2019-01-15T08:17:52Z</time>
      </trkpt>
      <trkpt lat="46.315300231799483" lon="8.250372335314751">
        <ele>1694.9400000000001</ele>
        <time>2019-01-15T08:18:00Z</time>
      </trkpt>
      <trkpt lat="46.315336106345057" lon="8.250350207090378">
        <ele>1695.4200000000001</ele>
        <time>2019-01-15T08:18:05Z</time>
      </trkpt>
      <trkpt lat="46.315360916778445" lon="8.250404857099056">
        <ele>1694.9400000000001</ele>
        <time>2019-01-15T08:18:15Z</time>
      </trkpt>
      <trkpt lat="46.315372651442885" lon="8.250403683632612">
        <ele>1697.3399999999999</ele>
        <time>2019-01-15T08:18:25Z</time>
      </trkpt>
      <trkpt lat="46.315424116328359" lon="8.250341825187206">
        <ele>1695.9000000000001</ele>
        <time>2019-01-15T08:18:43Z</time>
      </trkpt>
      <trkpt lat="46.315451273694634" lon="8.25037426315248">
        <ele>1693.5</ele>
        <time>2019-01-15T08:19:03Z</time>
      </trkpt>
      <trkpt lat="46.315327640622854" lon="8.250359511002898">
        <ele>1695.4200000000001</ele>
        <time>2019-01-15T08:19:21Z</time>
      </trkpt>
      <trkpt lat="46.315353121608496" lon="8.250394714996219">
        <ele>1696.8599999999999</ele>
        <time>2019-01-15T08:19:38Z</time>
      </trkpt>
      <trkpt lat="46.315320264548063" lon="8.250406617298722">
        <ele>1698.3099999999999</ele>
        <time>2019-01-15T08:20:01Z</time>
      </trkpt>
      <trkpt lat="46.315316325053573" lon="8.250391446053982">
        <ele>1695.4200000000001</ele>
        <time>2019-01-15T08:20:08Z</time>
      </trkpt>
      <trkpt lat="46.315292604267597" lon="8.250407036393881">
        <ele>1696.8599999999999</ele>
        <time>2019-01-15T08:20:21Z</time>
      </trkpt>
      <trkpt lat="46.315336357802153" lon="8.250413658097386">
        <ele>1696.8599999999999</ele>
        <time>2019-01-15T08:20:29Z</time>
      </trkpt>
      <trkpt lat="46.315357983112335" lon="8.250423045828939">
        <ele>1695.9000000000001</ele>
        <time>2019-01-15T08:20:42Z</time>
      </trkpt>
      <trkpt lat="46.315396875143051" lon="8.250392032787204">
        <ele>1696.3800000000001</ele>
        <time>2019-01-15T08:20:53Z</time>
      </trkpt>
      <trkpt lat="46.315416237339377" lon="8.250335538759828">
        <ele>1696.3800000000001</ele>
        <time>2019-01-15T08:20:58Z</time>
      </trkpt>
      <trkpt lat="46.315445238724351" lon="8.250221461057663">
        <ele>1694.9400000000001</ele>
        <time>2019-01-15T08:21:05Z</time>
      </trkpt>
      <trkpt lat="46.31546032615006" lon="8.250156166031957">
        <ele>1694.9400000000001</ele>
        <time>2019-01-15T08:21:09Z</time>
      </trkpt>
      <trkpt lat="46.315466109663248" lon="8.250082405284047">
        <ele>1694.46</ele>
        <time>2019-01-15T08:21:14Z</time>
      </trkpt>
      <trkpt lat="46.315486477687955" lon="8.250070502981544">
        <ele>1693.98</ele>
        <time>2019-01-15T08:21:16Z</time>
      </trkpt>
      <trkpt lat="46.315515898168087" lon="8.25006639584899">
        <ele>1694.46</ele>
        <time>2019-01-15T08:21:19Z</time>
      </trkpt>
      <trkpt lat="46.315611200407147" lon="8.250018786638975">
        <ele>1692.54</ele>
        <time>2019-01-15T08:21:29Z</time>
      </trkpt>
      <trkpt lat="46.315665766596794" lon="8.24996380135417">
        <ele>1693.02</ele>
        <time>2019-01-15T08:21:37Z</time>
      </trkpt>
      <trkpt lat="46.31572712212801" lon="8.249940667301416">
        <ele>1692.54</ele>
        <time>2019-01-15T08:21:45Z</time>
      </trkpt>
      <trkpt lat="46.315785711631179" lon="8.249918958172202">
        <ele>1694.46</ele>
        <time>2019-01-15T08:21:54Z</time>
      </trkpt>
      <trkpt lat="46.315870871767402" lon="8.249893393367529">
        <ele>1693.98</ele>
        <time>2019-01-15T08:22:04Z</time>
      </trkpt>
      <trkpt lat="46.31587858311832" lon="8.249875791370869">
        <ele>1697.3399999999999</ele>
        <time>2019-01-15T08:22:17Z</time>
      </trkpt>
      <trkpt lat="46.315845139324665" lon="8.2498724386096">
        <ele>1695.4200000000001</ele>
        <time>2019-01-15T08:22:29Z</time>
      </trkpt>
      <trkpt lat="46.315846228972077" lon="8.249864056706429">
        <ele>1697.8299999999999</ele>
        <time>2019-01-15T08:22:43Z</time>
      </trkpt>
      <trkpt lat="46.315883947536349" lon="8.249908480793238">
        <ele>1698.79</ele>
        <time>2019-01-15T08:23:02Z</time>
      </trkpt>
      <trkpt lat="46.31584539078176" lon="8.249909151345491">
        <ele>1702.1500000000001</ele>
        <time>2019-01-15T08:23:15Z</time>
      </trkpt>
      <trkpt lat="46.315841283649206" lon="8.249895153567195">
        <ele>1702.1500000000001</ele>
        <time>2019-01-15T08:23:16Z</time>
      </trkpt>
      <trkpt lat="46.315844217315316" lon="8.249856932088733">
        <ele>1700.23</ele>
        <time>2019-01-15T08:23:26Z</time>
      </trkpt>
      <trkpt lat="46.315842373296618" lon="8.249879730865359">
        <ele>1703.1099999999999</ele>
        <time>2019-01-15T08:23:39Z</time>
      </trkpt>
      <trkpt lat="46.315843379124999" lon="8.249877467751503">
        <ele>1703.5899999999999</ele>
        <time>2019-01-15T08:23:40Z</time>
      </trkpt>
      <trkpt lat="46.315815802663565" lon="8.24988367035985">
        <ele>1706</ele>
        <time>2019-01-15T08:23:53Z</time>
      </trkpt>
      <trkpt lat="46.315814880654216" lon="8.249880066141486">
        <ele>1706</ele>
        <time>2019-01-15T08:23:54Z</time>
      </trkpt>
      <trkpt lat="46.315817479044199" lon="8.249889621511102">
        <ele>1708.4000000000001</ele>
        <time>2019-01-15T08:24:12Z</time>
      </trkpt>
      <trkpt lat="46.315768025815487" lon="8.249928429722786">
        <ele>1709.3599999999999</ele>
        <time>2019-01-15T08:24:21Z</time>
      </trkpt>
      <trkpt lat="46.315707676112652" lon="8.24990957044065">
        <ele>1710.3199999999999</ele>
        <time>2019-01-15T08:24:29Z</time>
      </trkpt>
      <trkpt lat="46.315738689154387" lon="8.249802868813276">
        <ele>1709.8399999999999</ele>
        <time>2019-01-15T08:24:38Z</time>
      </trkpt>
      <trkpt lat="46.315821837633848" lon="8.249686863273382">
        <ele>1708.4000000000001</ele>
        <time>2019-01-15T08:24:49Z</time>
      </trkpt>
      <trkpt lat="46.315876068547368" lon="8.249561134725809">
        <ele>1708.8800000000001</ele>
        <time>2019-01-15T08:24:59Z</time>
      </trkpt>
      <trkpt lat="46.315916134044528" lon="8.249515704810619">
        <ele>1708.8800000000001</ele>
        <time>2019-01-15T08:25:07Z</time>
      </trkpt>
      <trkpt lat="46.315921498462558" lon="8.249485613778234">
        <ele>1710.8</ele>
        <time>2019-01-15T08:25:12Z</time>
      </trkpt>
      <trkpt lat="46.315958630293608" lon="8.249416630715132">
        <ele>1711.76</ele>
        <time>2019-01-15T08:25:19Z</time>
      </trkpt>
      <trkpt lat="46.31595678627491" lon="8.249344462528825">
        <ele>1711.28</ele>
        <time>2019-01-15T08:25:29Z</time>
      </trkpt>
      <trkpt lat="46.315996516495943" lon="8.249292830005288">
        <ele>1712.25</ele>
        <time>2019-01-15T08:25:39Z</time>
      </trkpt>
      <trkpt lat="46.316004814580083" lon="8.249290650710464">
        <ele>1715.6099999999999</ele>
        <time>2019-01-15T08:25:45Z</time>
      </trkpt>
      <trkpt lat="46.316078994423151" lon="8.249259805306792">
        <ele>1718.97</ele>
        <time>2019-01-15T08:25:55Z</time>
      </trkpt>
      <trkpt lat="46.316122328862548" lon="8.249228289350867">
        <ele>1718.49</ele>
        <time>2019-01-15T08:26:05Z</time>
      </trkpt>
      <trkpt lat="46.316133309155703" lon="8.24921521358192">
        <ele>1719.9400000000001</ele>
        <time>2019-01-15T08:26:09Z</time>
      </trkpt>
      <trkpt lat="46.316191144287586" lon="8.249184116721153">
        <ele>1721.8599999999999</ele>
        <time>2019-01-15T08:26:20Z</time>
      </trkpt>
      <trkpt lat="46.316209333017468" lon="8.249135836958885">
        <ele>1722.3399999999999</ele>
        <time>2019-01-15T08:26:27Z</time>
      </trkpt>
      <trkpt lat="46.316181337460876" lon="8.249082779511809">
        <ele>1722.3399999999999</ele>
        <time>2019-01-15T08:26:37Z</time>
      </trkpt>
      <trkpt lat="46.316186869516969" lon="8.248999211937189">
        <ele>1723.78</ele>
        <time>2019-01-15T08:26:45Z</time>
      </trkpt>
      <trkpt lat="46.316189551725984" lon="8.248940203338862">
        <ele>1724.26</ele>
        <time>2019-01-15T08:26:53Z</time>
      </trkpt>
      <trkpt lat="46.316151665523648" lon="8.248870046809316">
        <ele>1724.74</ele>
        <time>2019-01-15T08:27:03Z</time>
      </trkpt>
      <trkpt lat="46.316120401024818" lon="8.248833753168583">
        <ele>1727.6300000000001</ele>
        <time>2019-01-15T08:27:11Z</time>
      </trkpt>
      <trkpt lat="46.316082598641515" lon="8.248800057917833">
        <ele>1729.0699999999999</ele>
        <time>2019-01-15T08:27:20Z</time>
      </trkpt>
      <trkpt lat="46.316036581993103" lon="8.248777259141207">
        <ele>1730.99</ele>
        <time>2019-01-15T08:27:28Z</time>
      </trkpt>
      <trkpt lat="46.316002048552036" lon="8.248723363503814">
        <ele>1732.9100000000001</ele>
        <time>2019-01-15T08:27:37Z</time>
      </trkpt>
      <trkpt lat="46.315948907285929" lon="8.248709365725517">
        <ele>1734.8399999999999</ele>
        <time>2019-01-15T08:27:47Z</time>
      </trkpt>
      <trkpt lat="46.315931053832173" lon="8.248690338805318">
        <ele>1736.28</ele>
        <time>2019-01-15T08:27:50Z</time>
      </trkpt>
      <trkpt lat="46.315894424915314" lon="8.248640634119511">
        <ele>1738.2</ele>
        <time>2019-01-15T08:28:00Z</time>
      </trkpt>
      <trkpt lat="46.315856287255883" lon="8.248606100678444">
        <ele>1739.6400000000001</ele>
        <time>2019-01-15T08:28:09Z</time>
      </trkpt>
      <trkpt lat="46.315818149596453" lon="8.248674497008324">
        <ele>1739.6400000000001</ele>
        <time>2019-01-15T08:28:18Z</time>
      </trkpt>
      <trkpt lat="46.315819658339024" lon="8.248689081519842">
        <ele>1739.6400000000001</ele>
        <time>2019-01-15T08:28:19Z</time>
      </trkpt>
      <trkpt lat="46.315849246457219" lon="8.248766111209989">
        <ele>1740.1199999999999</ele>
        <time>2019-01-15T08:28:30Z</time>
      </trkpt>
      <trkpt lat="46.315856287255883" lon="8.248878847807646">
        <ele>1742.05</ele>
        <time>2019-01-15T08:28:41Z</time>
      </trkpt>
      <trkpt lat="46.315815802663565" lon="8.248920505866408">
        <ele>1745.4100000000001</ele>
        <time>2019-01-15T08:28:51Z</time>
      </trkpt>
      <trkpt lat="46.31577841937542" lon="8.248869795352221">
        <ele>1742.53</ele>
        <time>2019-01-15T08:29:00Z</time>
      </trkpt>
      <trkpt lat="46.315744137391448" lon="8.248825706541538">
        <ele>1745.4100000000001</ele>
        <time>2019-01-15T08:29:10Z</time>
      </trkpt>
      <trkpt lat="46.315742796286941" lon="8.248823191970587">
        <ele>1745.4100000000001</ele>
        <time>2019-01-15T08:29:11Z</time>
      </trkpt>
      <trkpt lat="46.315719662234187" lon="8.248772229999304">
        <ele>1745.4100000000001</ele>
        <time>2019-01-15T08:29:21Z</time>
      </trkpt>
      <trkpt lat="46.315677417442203" lon="8.248695535585284">
        <ele>1746.3699999999999</ele>
        <time>2019-01-15T08:29:31Z</time>
      </trkpt>
      <trkpt lat="46.315669203177094" lon="8.248674580827355">
        <ele>1746.8499999999999</ele>
        <time>2019-01-15T08:29:34Z</time>
      </trkpt>
      <trkpt lat="46.315635675564408" lon="8.248629234731197">
        <ele>1747.8099999999999</ele>
        <time>2019-01-15T08:29:43Z</time>
      </trkpt>
      <trkpt lat="46.315579852089286" lon="8.2486014906317">
        <ele>1747.8099999999999</ele>
        <time>2019-01-15T08:29:52Z</time>
      </trkpt>
      <trkpt lat="46.315568536520004" lon="8.248601825907826">
        <ele>1747.8099999999999</ele>
        <time>2019-01-15T08:29:53Z</time>
      </trkpt>
      <trkpt lat="46.315514976158738" lon="8.248569220304489">
        <ele>1749.74</ele>
        <time>2019-01-15T08:30:03Z</time>
      </trkpt>
      <trkpt lat="46.31549896672368" lon="8.248568885028362">
        <ele>1751.6600000000001</ele>
        <time>2019-01-15T08:30:08Z</time>
      </trkpt>
      <trkpt lat="46.315435934811831" lon="8.24854533188045">
        <ele>1755.02</ele>
        <time>2019-01-15T08:30:18Z</time>
      </trkpt>
      <trkpt lat="46.315373824909329" lon="8.24847592972219">
        <ele>1756.47</ele>
        <time>2019-01-15T08:30:30Z</time>
      </trkpt>
      <trkpt lat="46.315325628966093" lon="8.248394625261426">
        <ele>1755.02</ele>
        <time>2019-01-15T08:30:38Z</time>
      </trkpt>
      <trkpt lat="46.315253963693976" lon="8.248348608613014">
        <ele>1754.54</ele>
        <time>2019-01-15T08:30:49Z</time>
      </trkpt>
      <trkpt lat="46.315180035308003" lon="8.248234111815691">
        <ele>1755.02</ele>
        <time>2019-01-15T08:31:00Z</time>
      </trkpt>
      <trkpt lat="46.315172994509339" lon="8.248223550617695">
        <ele>1754.54</ele>
        <time>2019-01-15T08:31:01Z</time>
      </trkpt>
      <trkpt lat="46.315135946497321" lon="8.248179294168949">
        <ele>1753.5799999999999</ele>
        <time>2019-01-15T08:31:05Z</time>
      </trkpt>
      <trkpt lat="46.315109459683299" lon="8.248123470693827">
        <ele>1753.0999999999999</ele>
        <time>2019-01-15T08:31:14Z</time>
      </trkpt>
      <trkpt lat="46.315065203234553" lon="8.248101342469454">
        <ele>1755.5</ele>
        <time>2019-01-15T08:31:20Z</time>
      </trkpt>
      <trkpt lat="46.31505724042654" lon="8.248090445995331">
        <ele>1755.99</ele>
        <time>2019-01-15T08:31:21Z</time>
      </trkpt>
      <trkpt lat="46.315016085281968" lon="8.247992964461446">
        <ele>1755.5</ele>
        <time>2019-01-15T08:31:31Z</time>
      </trkpt>
      <trkpt lat="46.314995884895325" lon="8.247895902022719">
        <ele>1755.99</ele>
        <time>2019-01-15T08:31:41Z</time>
      </trkpt>
      <trkpt lat="46.314947353675961" lon="8.247826080769301">
        <ele>1755.5</ele>
        <time>2019-01-15T08:31:53Z</time>
      </trkpt>
      <trkpt lat="46.314885662868619" lon="8.247813424095511">
        <ele>1758.3900000000001</ele>
        <time>2019-01-15T08:32:05Z</time>
      </trkpt>
      <trkpt lat="46.314838975667953" lon="8.247769922018051">
        <ele>1759.3499999999999</ele>
        <time>2019-01-15T08:32:15Z</time>
      </trkpt>
      <trkpt lat="46.314805615693331" lon="8.247733125463128">
        <ele>1760.3099999999999</ele>
        <time>2019-01-15T08:32:24Z</time>
      </trkpt>
      <trkpt lat="46.314761275425553" lon="8.247711416333914">
        <ele>1761.75</ele>
        <time>2019-01-15T08:32:34Z</time>
      </trkpt>
      <trkpt lat="46.314750462770462" lon="8.247702531516552">
        <ele>1762.23</ele>
        <time>2019-01-15T08:32:35Z</time>
      </trkpt>
      <trkpt lat="46.314717521890998" lon="8.247679900377989">
        <ele>1762.71</ele>
        <time>2019-01-15T08:32:38Z</time>
      </trkpt>
      <trkpt lat="46.314664296805859" lon="8.24762424454093">
        <ele>1764.6400000000001</ele>
        <time>2019-01-15T08:32:44Z</time>
      </trkpt>
      <trkpt lat="46.314637390896678" lon="8.247561631724238">
        <ele>1765.5999999999999</ele>
        <time>2019-01-15T08:32:53Z</time>
      </trkpt>
      <trkpt lat="46.314588859677315" lon="8.247568504884839">
        <ele>1765.5999999999999</ele>
        <time>2019-01-15T08:33:02Z</time>
      </trkpt>
      <trkpt lat="46.314566479995847" lon="8.247599434107542">
        <ele>1766.0799999999999</ele>
        <time>2019-01-15T08:33:05Z</time>
      </trkpt>
      <trkpt lat="46.31452071480453" lon="8.247582586482167">
        <ele>1768.96</ele>
        <time>2019-01-15T08:33:16Z</time>
      </trkpt>
      <trkpt lat="46.314502358436584" lon="8.24751871638">
        <ele>1772.3299999999999</ele>
        <time>2019-01-15T08:33:24Z</time>
      </trkpt>
      <trkpt lat="46.314481403678656" lon="8.247440680861473">
        <ele>1774.73</ele>
        <time>2019-01-15T08:33:33Z</time>
      </trkpt>
      <trkpt lat="46.314460784196854" lon="8.247391059994698">
        <ele>1775.6900000000001</ele>
        <time>2019-01-15T08:33:38Z</time>
      </trkpt>
      <trkpt lat="46.314457012340426" lon="8.2473408523947">
        <ele>1774.25</ele>
        <time>2019-01-15T08:33:48Z</time>
      </trkpt>
      <trkpt lat="46.314426166936755" lon="8.247292321175337">
        <ele>1775.21</ele>
        <time>2019-01-15T08:33:58Z</time>
      </trkpt>
      <trkpt lat="46.314379395917058" lon="8.24723138473928">
        <ele>1776.1700000000001</ele>
        <time>2019-01-15T08:34:07Z</time>
      </trkpt>
      <trkpt lat="46.314355256035924" lon="8.247226607054472">
        <ele>1777.1300000000001</ele>
        <time>2019-01-15T08:34:17Z</time>
      </trkpt>
      <trkpt lat="46.314315609633923" lon="8.247355436906219">
        <ele>1777.1300000000001</ele>
        <time>2019-01-15T08:34:30Z</time>
      </trkpt>
      <trkpt lat="46.314275879412889" lon="8.247365495190024">
        <ele>1780.02</ele>
        <time>2019-01-15T08:34:42Z</time>
      </trkpt>
      <trkpt lat="46.314247380942106" lon="8.247317718341947">
        <ele>1781.9400000000001</ele>
        <time>2019-01-15T08:34:50Z</time>
      </trkpt>
      <trkpt lat="46.314239501953125" lon="8.247314784675837">
        <ele>1782.4200000000001</ele>
        <time>2019-01-15T08:34:52Z</time>
      </trkpt>
      <trkpt lat="46.314210332930088" lon="8.247283101081848">
        <ele>1785.3099999999999</ele>
        <time>2019-01-15T08:35:02Z</time>
      </trkpt>
      <trkpt lat="46.31416741758585" lon="8.24724898673594">
        <ele>1785.79</ele>
        <time>2019-01-15T08:35:11Z</time>
      </trkpt>
      <trkpt lat="46.314106229692698" lon="8.247204478830099">
        <ele>1787.23</ele>
        <time>2019-01-15T08:35:25Z</time>
      </trkpt>
      <trkpt lat="46.314064236357808" lon="8.247181596234441">
        <ele>1790.1099999999999</ele>
        <time>2019-01-15T08:35:39Z</time>
      </trkpt>
      <trkpt lat="46.3140042219311" lon="8.247176315635443">
        <ele>1791.55</ele>
        <time>2019-01-15T08:35:51Z</time>
      </trkpt>
      <trkpt lat="46.314004892483354" lon="8.247273294255137">
        <ele>1793</ele>
        <time>2019-01-15T08:36:03Z</time>
      </trkpt>
      <trkpt lat="46.314000366255641" lon="8.247296009212732">
        <ele>1793.48</ele>
        <time>2019-01-15T08:36:05Z</time>
      </trkpt>
      <trkpt lat="46.313983518630266" lon="8.2473374158144">
        <ele>1794.9200000000001</ele>
        <time>2019-01-15T08:36:11Z</time>
      </trkpt>
      <trkpt lat="46.313928868621588" lon="8.247331883758307">
        <ele>1798.28</ele>
        <time>2019-01-15T08:36:19Z</time>
      </trkpt>
      <trkpt lat="46.313914703205228" lon="8.247325178235769">
        <ele>1800.21</ele>
        <time>2019-01-15T08:36:22Z</time>
      </trkpt>
      <trkpt lat="46.31388645619154" lon="8.247265163809061">
        <ele>1802.6099999999999</ele>
        <time>2019-01-15T08:36:33Z</time>
      </trkpt>
      <trkpt lat="46.31387623026967" lon="8.247244292870164">
        <ele>1802.6099999999999</ele>
        <time>2019-01-15T08:36:35Z</time>
      </trkpt>
      <trkpt lat="46.313829878345132" lon="8.24722065590322">
        <ele>1805.97</ele>
        <time>2019-01-15T08:36:45Z</time>
      </trkpt>
      <trkpt lat="46.313784699887037" lon="8.247205317020416">
        <ele>1808.8599999999999</ele>
        <time>2019-01-15T08:36:56Z</time>
      </trkpt>
      <trkpt lat="46.313751507550478" lon="8.247230295091867">
        <ele>1808.8599999999999</ele>
        <time>2019-01-15T08:37:05Z</time>
      </trkpt>
      <trkpt lat="46.313722087070346" lon="8.247283939272165">
        <ele>1810.78</ele>
        <time>2019-01-15T08:37:17Z</time>
      </trkpt>
      <trkpt lat="46.313660396263003" lon="8.247275725007057">
        <ele>1812.7</ele>
        <time>2019-01-15T08:37:30Z</time>
      </trkpt>
      <trkpt lat="46.31360549479723" lon="8.247206658124924">
        <ele>1814.1500000000001</ele>
        <time>2019-01-15T08:37:43Z</time>
      </trkpt>
      <trkpt lat="46.3135483302176" lon="8.247189475223422">
        <ele>1817.03</ele>
        <time>2019-01-15T08:37:52Z</time>
      </trkpt>
      <trkpt lat="46.313517484813929" lon="8.247186876833439">
        <ele>1818.95</ele>
        <time>2019-01-15T08:38:02Z</time>
      </trkpt>
      <trkpt lat="46.313467277213931" lon="8.247154774144292">
        <ele>1820.8699999999999</ele>
        <time>2019-01-15T08:38:12Z</time>
      </trkpt>
      <trkpt lat="46.313412040472031" lon="8.247118145227432">
        <ele>1823.28</ele>
        <time>2019-01-15T08:38:24Z</time>
      </trkpt>
      <trkpt lat="46.313361581414938" lon="8.247088557109237">
        <ele>1826.6400000000001</ele>
        <time>2019-01-15T08:38:35Z</time>
      </trkpt>
      <trkpt lat="46.313290754333138" lon="8.247073637321591">
        <ele>1829.05</ele>
        <time>2019-01-15T08:38:46Z</time>
      </trkpt>
      <trkpt lat="46.313230320811272" lon="8.24707699008286">
        <ele>1830.49</ele>
        <time>2019-01-15T08:38:58Z</time>
      </trkpt>
      <trkpt lat="46.313213054090738" lon="8.247087299823761">
        <ele>1830.97</ele>
        <time>2019-01-15T08:39:00Z</time>
      </trkpt>
      <trkpt lat="46.31317600607872" lon="8.246987638995051">
        <ele>1830.97</ele>
        <time>2019-01-15T08:39:11Z</time>
      </trkpt>
      <trkpt lat="46.313154548406601" lon="8.246903484687209">
        <ele>1828.5599999999999</ele>
        <time>2019-01-15T08:39:23Z</time>
      </trkpt>
      <trkpt lat="46.313126049935818" lon="8.246845649555326">
        <ele>1828.5599999999999</ele>
        <time>2019-01-15T08:39:33Z</time>
      </trkpt>
      <trkpt lat="46.313079530373216" lon="8.246791670098901">
        <ele>1829.05</ele>
        <time>2019-01-15T08:39:44Z</time>
      </trkpt>
      <trkpt lat="46.313027981668711" lon="8.246732242405415">
        <ele>1830.49</ele>
        <time>2019-01-15T08:39:55Z</time>
      </trkpt>
      <trkpt lat="46.312994370236993" lon="8.246700558811426">
        <ele>1831.45</ele>
        <time>2019-01-15T08:40:03Z</time>
      </trkpt>
      <trkpt lat="46.312938714399934" lon="8.246678430587053">
        <ele>1833.3699999999999</ele>
        <time>2019-01-15T08:40:15Z</time>
      </trkpt>
      <trkpt lat="46.312873670831323" lon="8.246606010943651">
        <ele>1833.8499999999999</ele>
        <time>2019-01-15T08:40:25Z</time>
      </trkpt>
      <trkpt lat="46.312848189845681" lon="8.246530657634139">
        <ele>1833.8499999999999</ele>
        <time>2019-01-15T08:40:32Z</time>
      </trkpt>
      <trkpt lat="46.312845004722476" lon="8.246511295437813">
        <ele>1834.3299999999999</ele>
        <time>2019-01-15T08:40:41Z</time>
      </trkpt>
      <trkpt lat="46.312787840142846" lon="8.24647449888289">
        <ele>1836.26</ele>
        <time>2019-01-15T08:40:54Z</time>
      </trkpt>
      <trkpt lat="46.312748026102781" lon="8.246391266584396">
        <ele>1834.3299999999999</ele>
        <time>2019-01-15T08:41:04Z</time>
      </trkpt>
      <trkpt lat="46.312721958383918" lon="8.246286325156689">
        <ele>1832.8900000000001</ele>
        <time>2019-01-15T08:41:15Z</time>
      </trkpt>
      <trkpt lat="46.312697567045689" lon="8.246202757582068">
        <ele>1831.9300000000001</ele>
        <time>2019-01-15T08:41:25Z</time>
      </trkpt>
      <trkpt lat="46.312650293111801" lon="8.246139474213123">
        <ele>1833.3699999999999</ele>
        <time>2019-01-15T08:41:35Z</time>
      </trkpt>
      <trkpt lat="46.312611903995275" lon="8.246089266613126">
        <ele>1834.3299999999999</ele>
        <time>2019-01-15T08:41:44Z</time>
      </trkpt>
      <trkpt lat="46.312528671696782" lon="8.246047357097268">
        <ele>1835.77</ele>
        <time>2019-01-15T08:41:56Z</time>
      </trkpt>
      <trkpt lat="46.312500592321157" lon="8.246035203337669">
        <ele>1835.77</ele>
        <time>2019-01-15T08:42:08Z</time>
      </trkpt>
      <trkpt lat="46.312437728047371" lon="8.245996311306953">
        <ele>1838.1800000000001</ele>
        <time>2019-01-15T08:42:19Z</time>
      </trkpt>
      <trkpt lat="46.312393806874752" lon="8.245999496430159">
        <ele>1839.1400000000001</ele>
        <time>2019-01-15T08:42:29Z</time>
      </trkpt>
      <trkpt lat="46.312351813539863" lon="8.246024306863546">
        <ele>1842.5</ele>
        <time>2019-01-15T08:42:38Z</time>
      </trkpt>
      <trkpt lat="46.312302108854055" lon="8.2459731772542">
        <ele>1844.4300000000001</ele>
        <time>2019-01-15T08:42:52Z</time>
      </trkpt>
      <trkpt lat="46.312296073883772" lon="8.245906960219145">
        <ele>1846.3499999999999</ele>
        <time>2019-01-15T08:43:02Z</time>
      </trkpt>
      <trkpt lat="46.312272101640701" lon="8.245829092338681">
        <ele>1846.8299999999999</ele>
        <time>2019-01-15T08:43:13Z</time>
      </trkpt>
      <trkpt lat="46.312227174639702" lon="8.245843006297946">
        <ele>1846.8299999999999</ele>
        <time>2019-01-15T08:43:25Z</time>
      </trkpt>
      <trkpt lat="46.312154503539205" lon="8.245796654373407">
        <ele>1848.27</ele>
        <time>2019-01-15T08:43:38Z</time>
      </trkpt>
      <trkpt lat="46.312089711427689" lon="8.24571275152266">
        <ele>1849.23</ele>
        <time>2019-01-15T08:43:50Z</time>
      </trkpt>
      <trkpt lat="46.312069678679109" lon="8.24562281370163">
        <ele>1849.23</ele>
        <time>2019-01-15T08:43:59Z</time>
      </trkpt>
      <trkpt lat="46.312054758891463" lon="8.24555735103786">
        <ele>1849.23</ele>
        <time>2019-01-15T08:44:08Z</time>
      </trkpt>
      <trkpt lat="46.312060542404652" lon="8.245558356866241">
        <ele>1852.5999999999999</ele>
        <time>2019-01-15T08:44:16Z</time>
      </trkpt>
      <trkpt lat="46.312059536576271" lon="8.245554836466909">
        <ele>1852.5999999999999</ele>
        <time>2019-01-15T08:44:17Z</time>
      </trkpt>
      <trkpt lat="46.312033301219344" lon="8.245501695200801">
        <ele>1853.5599999999999</ele>
        <time>2019-01-15T08:44:26Z</time>
      </trkpt>
      <trkpt lat="46.31202626042068" lon="8.245441010221839">
        <ele>1856.4400000000001</ele>
        <time>2019-01-15T08:44:38Z</time>
      </trkpt>
      <trkpt lat="46.312010502442718" lon="8.245380995795131">
        <ele>1854.04</ele>
        <time>2019-01-15T08:44:50Z</time>
      </trkpt>
      <trkpt lat="46.311962977051735" lon="8.245312180370092">
        <ele>1857.4000000000001</ele>
        <time>2019-01-15T08:45:00Z</time>
      </trkpt>
      <trkpt lat="46.311945710331202" lon="8.245308743789792">
        <ele>1860.29</ele>
        <time>2019-01-15T08:45:07Z</time>
      </trkpt>
      <trkpt lat="46.311904052272439" lon="8.245310001075268">
        <ele>1862.6900000000001</ele>
        <time>2019-01-15T08:45:17Z</time>
      </trkpt>
      <trkpt lat="46.311850156635046" lon="8.245357610285282">
        <ele>1864.6099999999999</ele>
        <time>2019-01-15T08:45:28Z</time>
      </trkpt>
      <trkpt lat="46.311819478869438" lon="8.245399100705981">
        <ele>1866.54</ele>
        <time>2019-01-15T08:45:38Z</time>
      </trkpt>
      <trkpt lat="46.311768684536219" lon="8.245406309142709">
        <ele>1866.54</ele>
        <time>2019-01-15T08:45:50Z</time>
      </trkpt>
      <trkpt lat="46.311724847182631" lon="8.245424749329686">
        <ele>1866.0599999999999</ele>
        <time>2019-01-15T08:46:01Z</time>
      </trkpt>
      <trkpt lat="46.31167589686811" lon="8.245431873947382">
        <ele>1865.5799999999999</ele>
        <time>2019-01-15T08:46:09Z</time>
      </trkpt>
      <trkpt lat="46.311625270172954" lon="8.245448553934693">
        <ele>1865.5799999999999</ele>
        <time>2019-01-15T08:46:21Z</time>
      </trkpt>
      <trkpt lat="46.311615463346243" lon="8.245444362983108">
        <ele>1865.5799999999999</ele>
        <time>2019-01-15T08:46:22Z</time>
      </trkpt>
      <trkpt lat="46.311554694548249" lon="8.245426090434194">
        <ele>1868.46</ele>
        <time>2019-01-15T08:46:32Z</time>
      </trkpt>
      <trkpt lat="46.311494596302509" lon="8.245368925854564">
        <ele>1871.3399999999999</ele>
        <time>2019-01-15T08:46:41Z</time>
      </trkpt>
      <trkpt lat="46.311475317925215" lon="8.245294997468591">
        <ele>1871.8199999999999</ele>
        <time>2019-01-15T08:46:51Z</time>
      </trkpt>
      <trkpt lat="46.311436593532562" lon="8.245211848989129">
        <ele>1874.23</ele>
        <time>2019-01-15T08:47:01Z</time>
      </trkpt>
      <trkpt lat="46.311426283791661" lon="8.245196091011167">
        <ele>1874.23</ele>
        <time>2019-01-15T08:47:03Z</time>
      </trkpt>
      <trkpt lat="46.31141304038465" lon="8.245184691622853">
        <ele>1874.71</ele>
        <time>2019-01-15T08:47:05Z</time>
      </trkpt>
      <trkpt lat="46.311406586319208" lon="8.245174633339047">
        <ele>1875.1900000000001</ele>
        <time>2019-01-15T08:47:06Z</time>
      </trkpt>
      <trkpt lat="46.311400383710861" lon="8.245165664702654">
        <ele>1875.1900000000001</ele>
        <time>2019-01-15T08:47:07Z</time>
      </trkpt>
      <trkpt lat="46.311366437003016" lon="8.245118139311671">
        <ele>1875.6700000000001</ele>
        <time>2019-01-15T08:47:18Z</time>
      </trkpt>
      <trkpt lat="46.311314888298512" lon="8.245051167905331">
        <ele>1876.6300000000001</ele>
        <time>2019-01-15T08:47:30Z</time>
      </trkpt>
      <trkpt lat="46.31128647364676" lon="8.244978161528707">
        <ele>1877.5899999999999</ele>
        <time>2019-01-15T08:47:39Z</time>
      </trkpt>
      <trkpt lat="46.311250180006027" lon="8.244933485984802">
        <ele>1879.51</ele>
        <time>2019-01-15T08:47:50Z</time>
      </trkpt>
      <trkpt lat="46.311204414814711" lon="8.244844889268279">
        <ele>1878.0699999999999</ele>
        <time>2019-01-15T08:48:01Z</time>
      </trkpt>
      <trkpt lat="46.3111462444067" lon="8.244782024994493">
        <ele>1880</ele>
        <time>2019-01-15T08:48:12Z</time>
      </trkpt>
      <trkpt lat="46.31109980866313" lon="8.244736846536398">
        <ele>1880.96</ele>
        <time>2019-01-15T08:48:22Z</time>
      </trkpt>
      <trkpt lat="46.311082374304533" lon="8.2446832023561">
        <ele>1882.4000000000001</ele>
        <time>2019-01-15T08:48:32Z</time>
      </trkpt>
      <trkpt lat="46.311041973531246" lon="8.244599467143416">
        <ele>1883.3599999999999</ele>
        <time>2019-01-15T08:48:42Z</time>
      </trkpt>
      <trkpt lat="46.311001572757959" lon="8.244565688073635">
        <ele>1884.3199999999999</ele>
        <time>2019-01-15T08:48:51Z</time>
      </trkpt>
      <trkpt lat="46.310978354886174" lon="8.244530567899346">
        <ele>1885.76</ele>
        <time>2019-01-15T08:48:56Z</time>
      </trkpt>
      <trkpt lat="46.310932338237762" lon="8.244444318115711">
        <ele>1888.6500000000001</ele>
        <time>2019-01-15T08:49:05Z</time>
      </trkpt>
      <trkpt lat="46.3109165802598" lon="8.244413556531072">
        <ele>1890.0899999999999</ele>
        <time>2019-01-15T08:49:16Z</time>
      </trkpt>
      <trkpt lat="46.310906857252121" lon="8.244370138272643">
        <ele>1890.5699999999999</ele>
        <time>2019-01-15T08:49:24Z</time>
      </trkpt>
      <trkpt lat="46.31085891276598" lon="8.244291432201862">
        <ele>1892.01</ele>
        <time>2019-01-15T08:49:34Z</time>
      </trkpt>
      <trkpt lat="46.310813315212727" lon="8.244212390854955">
        <ele>1893.9300000000001</ele>
        <time>2019-01-15T08:49:45Z</time>
      </trkpt>
      <trkpt lat="46.310749026015401" lon="8.244151705875993">
        <ele>1894.9000000000001</ele>
        <time>2019-01-15T08:49:55Z</time>
      </trkpt>
      <trkpt lat="46.31073284894228" lon="8.244145419448614">
        <ele>1895.3800000000001</ele>
        <time>2019-01-15T08:49:57Z</time>
      </trkpt>
      <trkpt lat="46.31071524694562" lon="8.244128990918398">
        <ele>1895.3800000000001</ele>
        <time>2019-01-15T08:49:59Z</time>
      </trkpt>
      <trkpt lat="46.310639139264822" lon="8.244057912379503">
        <ele>1898.26</ele>
        <time>2019-01-15T08:50:10Z</time>
      </trkpt>
      <trkpt lat="46.310609551146626" lon="8.244033688679338">
        <ele>1901.6300000000001</ele>
        <time>2019-01-15T08:50:15Z</time>
      </trkpt>
      <trkpt lat="46.310577197000384" lon="8.244018098339438">
        <ele>1904.99</ele>
        <time>2019-01-15T08:50:20Z</time>
      </trkpt>
      <trkpt lat="46.31056135520339" lon="8.244005776941776">
        <ele>1905.47</ele>
        <time>2019-01-15T08:50:22Z</time>
      </trkpt>
      <trkpt lat="46.31055012345314" lon="8.243994293734431">
        <ele>1905.95</ele>
        <time>2019-01-15T08:50:23Z</time>
      </trkpt>
      <trkpt lat="46.310520870611072" lon="8.243904355913401">
        <ele>1906.9100000000001</ele>
        <time>2019-01-15T08:50:32Z</time>
      </trkpt>
      <trkpt lat="46.310482900589705" lon="8.243840737268329">
        <ele>1907.3900000000001</ele>
        <time>2019-01-15T08:50:43Z</time>
      </trkpt>
      <trkpt lat="46.310485079884529" lon="8.24381441809237">
        <ele>1906.9100000000001</ele>
        <time>2019-01-15T08:50:52Z</time>
      </trkpt>
      <trkpt lat="46.31046605296433" lon="8.243778375908732">
        <ele>1905.47</ele>
        <time>2019-01-15T08:51:04Z</time>
      </trkpt>
      <trkpt lat="46.310437805950642" lon="8.243740405887365">
        <ele>1905.47</ele>
        <time>2019-01-15T08:51:15Z</time>
      </trkpt>
      <trkpt lat="46.310413666069508" lon="8.24369179084897">
        <ele>1907.8699999999999</ele>
        <time>2019-01-15T08:51:24Z</time>
      </trkpt>
      <trkpt lat="46.310374103486538" lon="8.243637476116419">
        <ele>1908.3499999999999</ele>
        <time>2019-01-15T08:51:33Z</time>
      </trkpt>
      <trkpt lat="46.310349879786372" lon="8.243597578257322">
        <ele>1907.8699999999999</ele>
        <time>2019-01-15T08:51:43Z</time>
      </trkpt>
      <trkpt lat="46.31034292280674" lon="8.243559524416924">
        <ele>1905.95</ele>
        <time>2019-01-15T08:51:52Z</time>
      </trkpt>
      <trkpt lat="46.310314843431115" lon="8.243504287675023">
        <ele>1905.95</ele>
        <time>2019-01-15T08:52:01Z</time>
      </trkpt>
      <trkpt lat="46.310273185372353" lon="8.243469754233956">
        <ele>1906.9100000000001</ele>
        <time>2019-01-15T08:52:10Z</time>
      </trkpt>
      <trkpt lat="46.310235466808081" lon="8.243424911051989">
        <ele>1907.8699999999999</ele>
        <time>2019-01-15T08:52:21Z</time>
      </trkpt>
      <trkpt lat="46.310196574777365" lon="8.243399932980537">
        <ele>1907.8699999999999</ele>
        <time>2019-01-15T08:52:29Z</time>
      </trkpt>
      <trkpt lat="46.310179810971022" lon="8.243416361510754">
        <ele>1909.8</ele>
        <time>2019-01-15T08:52:37Z</time>
      </trkpt>
      <trkpt lat="46.310157431289554" lon="8.243415607139468">
        <ele>1909.8</ele>
        <time>2019-01-15T08:52:50Z</time>
      </trkpt>
      <trkpt lat="46.310097584500909" lon="8.243412086740136">
        <ele>1912.2</ele>
        <time>2019-01-15T08:53:00Z</time>
      </trkpt>
      <trkpt lat="46.310074701905251" lon="8.243425665423274">
        <ele>1915.5599999999999</ele>
        <time>2019-01-15T08:53:07Z</time>
      </trkpt>
      <trkpt lat="46.310076881200075" lon="8.243429269641638">
        <ele>1917.01</ele>
        <time>2019-01-15T08:53:10Z</time>
      </trkpt>
      <trkpt lat="46.310069421306252" lon="8.243439998477697">
        <ele>1917.01</ele>
        <time>2019-01-15T08:53:20Z</time>
      </trkpt>
      <trkpt lat="46.310038743540645" lon="8.243470760062337">
        <ele>1916.53</ele>
        <time>2019-01-15T08:53:31Z</time>
      </trkpt>
      <trkpt lat="46.310049807652831" lon="8.243450140580535">
        <ele>1916.04</ele>
        <time>2019-01-15T08:53:37Z</time>
      </trkpt>
      <trkpt lat="46.310067744925618" lon="8.243434885516763">
        <ele>1915.0799999999999</ele>
        <time>2019-01-15T08:53:48Z</time>
      </trkpt>
      <trkpt lat="46.310046203434467" lon="8.243412002921104">
        <ele>1918.45</ele>
        <time>2019-01-15T08:54:01Z</time>
      </trkpt>
      <trkpt lat="46.310053328052163" lon="8.243409069254994">
        <ele>1915.0799999999999</ele>
        <time>2019-01-15T08:54:05Z</time>
      </trkpt>
      <trkpt lat="46.31005366332829" lon="8.243400603532791">
        <ele>1917.01</ele>
        <time>2019-01-15T08:54:17Z</time>
      </trkpt>
      <trkpt lat="46.310052992776036" lon="8.24339515529573">
        <ele>1916.04</ele>
        <time>2019-01-15T08:54:34Z</time>
      </trkpt>
      <trkpt lat="46.31002432666719" lon="8.243420720100403">
        <ele>1917.01</ele>
        <time>2019-01-15T08:54:49Z</time>
      </trkpt>
      <trkpt lat="46.310014771297574" lon="8.243472101166844">
        <ele>1916.53</ele>
        <time>2019-01-15T08:55:03Z</time>
      </trkpt>
      <trkpt lat="46.310028349980712" lon="8.24348752386868">
        <ele>1919.4100000000001</ele>
        <time>2019-01-15T08:55:14Z</time>
      </trkpt>
      <trkpt lat="46.310027176514268" lon="8.243488110601902">
        <ele>1920.3699999999999</ele>
        <time>2019-01-15T08:55:16Z</time>
      </trkpt>
      <trkpt lat="46.310011334717274" lon="8.243460953235626">
        <ele>1921.8099999999999</ele>
        <time>2019-01-15T08:55:25Z</time>
      </trkpt>
      <trkpt lat="46.309992391616106" lon="8.243456510826945">
        <ele>1924.22</ele>
        <time>2019-01-15T08:55:41Z</time>
      </trkpt>
      <trkpt lat="46.309986943379045" lon="8.243456762284041">
        <ele>1924.7</ele>
        <time>2019-01-15T08:55:42Z</time>
      </trkpt>
      <trkpt lat="46.309958947822452" lon="8.243470257148147">
        <ele>1922.77</ele>
        <time>2019-01-15T08:55:58Z</time>
      </trkpt>
      <trkpt lat="46.309958444908261" lon="8.2434640545398">
        <ele>1924.22</ele>
        <time>2019-01-15T08:56:01Z</time>
      </trkpt>
      <trkpt lat="46.309971939772367" lon="8.243443351238966">
        <ele>1924.22</ele>
        <time>2019-01-15T08:56:15Z</time>
      </trkpt>
      <trkpt lat="46.309979064390063" lon="8.243426503613591">
        <ele>1926.1400000000001</ele>
        <time>2019-01-15T08:56:29Z</time>
      </trkpt>
      <trkpt lat="46.309969257563353" lon="8.243390461429954">
        <ele>1922.29</ele>
        <time>2019-01-15T08:56:32Z</time>
      </trkpt>
      <trkpt lat="46.309978729113936" lon="8.243402782827616">
        <ele>1922.29</ele>
        <time>2019-01-15T08:56:44Z</time>
      </trkpt>
      <trkpt lat="46.30998719483614" lon="8.24343379586935">
        <ele>1921.8099999999999</ele>
        <time>2019-01-15T08:56:57Z</time>
      </trkpt>
      <trkpt lat="46.309990463778377" lon="8.243412422016263">
        <ele>1921.3299999999999</ele>
        <time>2019-01-15T08:57:08Z</time>
      </trkpt>
      <trkpt lat="46.309987530112267" lon="8.243421642109752">
        <ele>1922.29</ele>
        <time>2019-01-15T08:57:20Z</time>
      </trkpt>
      <trkpt lat="46.309984931722283" lon="8.243422312662005">
        <ele>1924.22</ele>
        <time>2019-01-15T08:57:31Z</time>
      </trkpt>
      <trkpt lat="46.309987530112267" lon="8.243436813354492">
        <ele>1923.74</ele>
        <time>2019-01-15T08:57:46Z</time>
      </trkpt>
      <trkpt lat="46.309981411322951" lon="8.243436561897397">
        <ele>1922.77</ele>
        <time>2019-01-15T08:58:01Z</time>
      </trkpt>
      <trkpt lat="46.309980405494571" lon="8.243433712050319">
        <ele>1922.29</ele>
        <time>2019-01-15T08:58:02Z</time>
      </trkpt>
      <trkpt lat="46.309989457949996" lon="8.243439914658666">
        <ele>1922.77</ele>
        <time>2019-01-15T08:58:19Z</time>
      </trkpt>
      <trkpt lat="46.309965066611767" lon="8.243407141417265">
        <ele>1921.3299999999999</ele>
        <time>2019-01-15T08:58:29Z</time>
      </trkpt>
      <trkpt lat="46.309923408553004" lon="8.243385013192892">
        <ele>1921.3299999999999</ele>
        <time>2019-01-15T08:58:37Z</time>
      </trkpt>
      <trkpt lat="46.309897340834141" lon="8.243339499458671">
        <ele>1920.8499999999999</ele>
        <time>2019-01-15T08:58:45Z</time>
      </trkpt>
      <trkpt lat="46.309854676946998" lon="8.24326079338789">
        <ele>1920.3699999999999</ele>
        <time>2019-01-15T08:58:57Z</time>
      </trkpt>
      <trkpt lat="46.309834308922291" lon="8.243223913013935">
        <ele>1919.8900000000001</ele>
        <time>2019-01-15T08:59:02Z</time>
      </trkpt>
      <trkpt lat="46.309785274788737" lon="8.243136322125793">
        <ele>1919.8900000000001</ele>
        <time>2019-01-15T08:59:11Z</time>
      </trkpt>
      <trkpt lat="46.309745376929641" lon="8.243151241913438">
        <ele>1918.9300000000001</ele>
        <time>2019-01-15T08:59:19Z</time>
      </trkpt>
      <trkpt lat="46.309705479070544" lon="8.243188876658678">
        <ele>1917.49</ele>
        <time>2019-01-15T08:59:29Z</time>
      </trkpt>
      <trkpt lat="46.309651415795088" lon="8.243195163086057">
        <ele>1918.45</ele>
        <time>2019-01-15T08:59:40Z</time>
      </trkpt>
      <trkpt lat="46.309589138254523" lon="8.243220392614603">
        <ele>1920.3699999999999</ele>
        <time>2019-01-15T08:59:49Z</time>
      </trkpt>
      <trkpt lat="46.309534823521972" lon="8.243216117843986">
        <ele>1920.8499999999999</ele>
        <time>2019-01-15T08:59:59Z</time>
      </trkpt>
      <trkpt lat="46.30949953570962" lon="8.243234977126122">
        <ele>1920.3699999999999</ele>
        <time>2019-01-15T09:00:10Z</time>
      </trkpt>
      <trkpt lat="46.309451591223478" lon="8.243229780346155">
        <ele>1920.8499999999999</ele>
        <time>2019-01-15T09:00:21Z</time>
      </trkpt>
      <trkpt lat="46.309420578181744" lon="8.243129951879382">
        <ele>1923.25</ele>
        <time>2019-01-15T09:00:33Z</time>
      </trkpt>
      <trkpt lat="46.309386715292931" lon="8.243092149496079">
        <ele>1926.1400000000001</ele>
        <time>2019-01-15T09:00:41Z</time>
      </trkpt>
      <trkpt lat="46.309355115517974" lon="8.243060549721122">
        <ele>1928.54</ele>
        <time>2019-01-15T09:00:51Z</time>
      </trkpt>
      <trkpt lat="46.309331059455872" lon="8.243070859462023">
        <ele>1929.02</ele>
        <time>2019-01-15T09:01:00Z</time>
      </trkpt>
      <trkpt lat="46.309283534064889" lon="8.243086952716112">
        <ele>1929.5</ele>
        <time>2019-01-15T09:01:12Z</time>
      </trkpt>
      <trkpt lat="46.309233494102955" lon="8.243078989908099">
        <ele>1930.46</ele>
        <time>2019-01-15T09:01:23Z</time>
      </trkpt>
      <trkpt lat="46.309187477454543" lon="8.243075050413609">
        <ele>1931.4300000000001</ele>
        <time>2019-01-15T09:01:34Z</time>
      </trkpt>
      <trkpt lat="46.309131905436516" lon="8.243005480617285">
        <ele>1933.3499999999999</ele>
        <time>2019-01-15T09:01:45Z</time>
      </trkpt>
      <trkpt lat="46.309103239327669" lon="8.242993326857686">
        <ele>1934.79</ele>
        <time>2019-01-15T09:01:56Z</time>
      </trkpt>
      <trkpt lat="46.309074573218822" lon="8.242976227775216">
        <ele>1936.23</ele>
        <time>2019-01-15T09:02:08Z</time>
      </trkpt>
      <trkpt lat="46.309060156345367" lon="8.242931636050344">
        <ele>1936.71</ele>
        <time>2019-01-15T09:02:16Z</time>
      </trkpt>
      <trkpt lat="46.309043643996119" lon="8.242865167558193">
        <ele>1938.1600000000001</ele>
        <time>2019-01-15T09:02:27Z</time>
      </trkpt>
      <trkpt lat="46.309057809412479" lon="8.242804063484073">
        <ele>1940.5599999999999</ele>
        <time>2019-01-15T09:02:37Z</time>
      </trkpt>
      <trkpt lat="46.30908228456974" lon="8.242774056270719">
        <ele>1943.4400000000001</ele>
        <time>2019-01-15T09:02:46Z</time>
      </trkpt>
      <trkpt lat="46.309125116094947" lon="8.24275410734117">
        <ele>1943.4400000000001</ele>
        <time>2019-01-15T09:02:57Z</time>
      </trkpt>
      <trkpt lat="46.30916777998209" lon="8.242747401818633">
        <ele>1944.4000000000001</ele>
        <time>2019-01-15T09:03:08Z</time>
      </trkpt>
      <trkpt lat="46.309163505211473" lon="8.242724351584911">
        <ele>1944.4000000000001</ele>
        <time>2019-01-15T09:03:16Z</time>
      </trkpt>
      <trkpt lat="46.309128971770406" lon="8.242720747366548">
        <ele>1946.3299999999999</ele>
        <time>2019-01-15T09:03:25Z</time>
      </trkpt>
      <trkpt lat="46.30910181440413" lon="8.24270473793149">
        <ele>1948.73</ele>
        <time>2019-01-15T09:03:36Z</time>
      </trkpt>
      <trkpt lat="46.309080021455884" lon="8.242696356028318">
        <ele>1950.1700000000001</ele>
        <time>2019-01-15T09:03:46Z</time>
      </trkpt>
      <trkpt lat="46.309054372832179" lon="8.242702390998602">
        <ele>1951.1300000000001</ele>
        <time>2019-01-15T09:03:55Z</time>
      </trkpt>
      <trkpt lat="46.309009026736021" lon="8.242690237239003">
        <ele>1950.1700000000001</ele>
        <time>2019-01-15T09:04:05Z</time>
      </trkpt>
      <trkpt lat="46.308970889076591" lon="8.242659727111459">
        <ele>1951.1300000000001</ele>
        <time>2019-01-15T09:04:16Z</time>
      </trkpt>
      <trkpt lat="46.308952700346708" lon="8.242641538381577">
        <ele>1951.1300000000001</ele>
        <time>2019-01-15T09:04:25Z</time>
      </trkpt>
      <trkpt lat="46.308956723660231" lon="8.242621086537838">
        <ele>1954.02</ele>
        <time>2019-01-15T09:04:37Z</time>
      </trkpt>
      <trkpt lat="46.308971727266908" lon="8.242599377408624">
        <ele>1956.9000000000001</ele>
        <time>2019-01-15T09:04:55Z</time>
      </trkpt>
      <trkpt lat="46.308974241837859" lon="8.242586301639676">
        <ele>1958.3399999999999</ele>
        <time>2019-01-15T09:05:10Z</time>
      </trkpt>
      <trkpt lat="46.308963010087609" lon="8.242589486762881">
        <ele>1957.3800000000001</ele>
        <time>2019-01-15T09:05:31Z</time>
      </trkpt>
      <trkpt lat="46.308971391990781" lon="8.242595857009292">
        <ele>1959.78</ele>
        <time>2019-01-15T09:05:47Z</time>
      </trkpt>
      <trkpt lat="46.308980947360396" lon="8.242546487599611">
        <ele>1959.3</ele>
        <time>2019-01-15T09:06:00Z</time>
      </trkpt>
      <trkpt lat="46.308999555185437" lon="8.242507847025991">
        <ele>1957.8599999999999</ele>
        <time>2019-01-15T09:06:10Z</time>
      </trkpt>
      <trkpt lat="46.308975163847208" lon="8.242473313584924">
        <ele>1958.3399999999999</ele>
        <time>2019-01-15T09:06:20Z</time>
      </trkpt>
      <trkpt lat="46.308933673426509" lon="8.242473229765892">
        <ele>1960.27</ele>
        <time>2019-01-15T09:06:30Z</time>
      </trkpt>
      <trkpt lat="46.308894781395793" lon="8.242515306919813">
        <ele>1962.1900000000001</ele>
        <time>2019-01-15T09:06:42Z</time>
      </trkpt>
      <trkpt lat="46.308845914900303" lon="8.242540117353201">
        <ele>1962.1900000000001</ele>
        <time>2019-01-15T09:06:52Z</time>
      </trkpt>
      <trkpt lat="46.308803921565413" lon="8.242544559761882">
        <ele>1963.1500000000001</ele>
        <time>2019-01-15T09:07:02Z</time>
      </trkpt>
      <trkpt lat="46.308776177465916" lon="8.242479851469398">
        <ele>1962.6700000000001</ele>
        <time>2019-01-15T09:07:12Z</time>
      </trkpt>
      <trkpt lat="46.308747259899974" lon="8.242438780143857">
        <ele>1963.1500000000001</ele>
        <time>2019-01-15T09:07:22Z</time>
      </trkpt>
      <trkpt lat="46.308734435588121" lon="8.242419837042689">
        <ele>1963.6300000000001</ele>
        <time>2019-01-15T09:07:30Z</time>
      </trkpt>
      <trkpt lat="46.308697387576103" lon="8.242416651919484">
        <ele>1963.6300000000001</ele>
        <time>2019-01-15T09:07:40Z</time>
      </trkpt>
      <trkpt lat="46.308659752830863" lon="8.24242084287107">
        <ele>1964.1099999999999</ele>
        <time>2019-01-15T09:07:50Z</time>
      </trkpt>
      <trkpt lat="46.308626476675272" lon="8.242424363270402">
        <ele>1964.5899999999999</ele>
        <time>2019-01-15T09:08:00Z</time>
      </trkpt>
      <trkpt lat="46.308595966547728" lon="8.242445150390267">
        <ele>1966.99</ele>
        <time>2019-01-15T09:08:09Z</time>
      </trkpt>
      <trkpt lat="46.308556068688631" lon="8.242457136511803">
        <ele>1968.9200000000001</ele>
        <time>2019-01-15T09:08:19Z</time>
      </trkpt>
      <trkpt lat="46.30852279253304" lon="8.242452945560217">
        <ele>1968.4400000000001</ele>
        <time>2019-01-15T09:08:28Z</time>
      </trkpt>
      <trkpt lat="46.308491444215178" lon="8.242435259744525">
        <ele>1969.4000000000001</ele>
        <time>2019-01-15T09:08:36Z</time>
      </trkpt>
      <trkpt lat="46.30846512503922" lon="8.242425452917814">
        <ele>1969.4000000000001</ele>
        <time>2019-01-15T09:08:44Z</time>
      </trkpt>
      <trkpt lat="46.308440566062927" lon="8.242414221167564">
        <ele>1970.8399999999999</ele>
        <time>2019-01-15T09:08:52Z</time>
      </trkpt>
      <trkpt lat="46.308397650718689" lon="8.242417825385928">
        <ele>1970.8399999999999</ele>
        <time>2019-01-15T09:09:01Z</time>
      </trkpt>
      <trkpt lat="46.308365883305669" lon="8.242408102378249">
        <ele>1972.28</ele>
        <time>2019-01-15T09:09:10Z</time>
      </trkpt>
      <trkpt lat="46.308342581614852" lon="8.242404581978917">
        <ele>1974.2</ele>
        <time>2019-01-15T09:09:19Z</time>
      </trkpt>
      <trkpt lat="46.308301007375121" lon="8.242407683283091">
        <ele>1975.6500000000001</ele>
        <time>2019-01-15T09:09:28Z</time>
      </trkpt>
      <trkpt lat="46.308274436742067" lon="8.242401145398617">
        <ele>1977.0899999999999</ele>
        <time>2019-01-15T09:09:36Z</time>
      </trkpt>
      <trkpt lat="46.308249039575458" lon="8.242390668019652">
        <ele>1977.5699999999999</ele>
        <time>2019-01-15T09:09:44Z</time>
      </trkpt>
      <trkpt lat="46.308223642408848" lon="8.242385135963559">
        <ele>1979.97</ele>
        <time>2019-01-15T09:09:53Z</time>
      </trkpt>
      <trkpt lat="46.308202017098665" lon="8.242387315258384">
        <ele>1981.9000000000001</ele>
        <time>2019-01-15T09:10:01Z</time>
      </trkpt>
      <trkpt lat="46.308163041248918" lon="8.24237541295588">
        <ele>1982.8599999999999</ele>
        <time>2019-01-15T09:10:12Z</time>
      </trkpt>
      <trkpt lat="46.308139069005847" lon="8.242372730746865">
        <ele>1983.8199999999999</ele>
        <time>2019-01-15T09:10:20Z</time>
      </trkpt>
      <trkpt lat="46.308111911639571" lon="8.242370383813977">
        <ele>1983.8199999999999</ele>
        <time>2019-01-15T09:10:30Z</time>
      </trkpt>
      <trkpt lat="46.308093722909689" lon="8.242368623614311">
        <ele>1983.3399999999999</ele>
        <time>2019-01-15T09:10:37Z</time>
      </trkpt>
      <trkpt lat="46.308072935789824" lon="8.242374658584595">
        <ele>1983.8199999999999</ele>
        <time>2019-01-15T09:10:45Z</time>
      </trkpt>
      <trkpt lat="46.308054411783814" lon="8.242368204519153">
        <ele>1983.8199999999999</ele>
        <time>2019-01-15T09:10:52Z</time>
      </trkpt>
      <trkpt lat="46.308023817837238" lon="8.242338197305799">
        <ele>1984.78</ele>
        <time>2019-01-15T09:11:01Z</time>
      </trkpt>
      <trkpt lat="46.308016860857606" lon="8.24227717705071">
        <ele>1986.22</ele>
        <time>2019-01-15T09:11:09Z</time>
      </trkpt>
      <trkpt lat="46.308013424277306" lon="8.24221758171916">
        <ele>1987.6600000000001</ele>
        <time>2019-01-15T09:11:22Z</time>
      </trkpt>
      <trkpt lat="46.308000683784485" lon="8.242195369675756">
        <ele>1989.5899999999999</ele>
        <time>2019-01-15T09:11:31Z</time>
      </trkpt>
      <trkpt lat="46.307984674349427" lon="8.242213809862733">
        <ele>1990.0699999999999</ele>
        <time>2019-01-15T09:11:40Z</time>
      </trkpt>
      <trkpt lat="46.30796279758215" lon="8.242245325818658">
        <ele>1990.0699999999999</ele>
        <time>2019-01-15T09:11:50Z</time>
      </trkpt>
      <trkpt lat="46.307942178100348" lon="8.242188580334187">
        <ele>1988.6199999999999</ele>
        <time>2019-01-15T09:11:59Z</time>
      </trkpt>
      <trkpt lat="46.307939831167459" lon="8.242137199267745">
        <ele>1989.5899999999999</ele>
        <time>2019-01-15T09:12:09Z</time>
      </trkpt>
      <trkpt lat="46.30794276483357" lon="8.242147509008646">
        <ele>1990.0699999999999</ele>
        <time>2019-01-15T09:12:19Z</time>
      </trkpt>
      <trkpt lat="46.30793153308332" lon="8.242177600041032">
        <ele>1991.03</ele>
        <time>2019-01-15T09:12:28Z</time>
      </trkpt>
      <trkpt lat="46.307910913601518" lon="8.242177767679095">
        <ele>1992.95</ele>
        <time>2019-01-15T09:12:38Z</time>
      </trkpt>
      <trkpt lat="46.30790370516479" lon="8.242181204259396">
        <ele>1994.3900000000001</ele>
        <time>2019-01-15T09:12:47Z</time>
      </trkpt>
      <trkpt lat="46.307905381545424" lon="8.242195621132851">
        <ele>1994.3900000000001</ele>
        <time>2019-01-15T09:12:59Z</time>
      </trkpt>
      <trkpt lat="46.307895323261619" lon="8.242176594212651">
        <ele>1993.9100000000001</ele>
        <time>2019-01-15T09:13:09Z</time>
      </trkpt>
      <trkpt lat="46.307883085682988" lon="8.242130326107144">
        <ele>1995.3499999999999</ele>
        <time>2019-01-15T09:13:17Z</time>
      </trkpt>
      <trkpt lat="46.307884091511369" lon="8.242079950869083">
        <ele>1995.8299999999999</ele>
        <time>2019-01-15T09:13:27Z</time>
      </trkpt>
      <trkpt lat="46.307874703779817" lon="8.242083135992289">
        <ele>1995.8299999999999</ele>
        <time>2019-01-15T09:13:36Z</time>
      </trkpt>
      <trkpt lat="46.307863555848598" lon="8.242102162912488">
        <ele>1997.28</ele>
        <time>2019-01-15T09:13:46Z</time>
      </trkpt>
      <trkpt lat="46.307844948023558" lon="8.242103336378932">
        <ele>1997.76</ele>
        <time>2019-01-15T09:13:57Z</time>
      </trkpt>
      <trkpt lat="46.307831620797515" lon="8.242065031081438">
        <ele>2000.1600000000001</ele>
        <time>2019-01-15T09:14:06Z</time>
      </trkpt>
      <trkpt lat="46.307821478694677" lon="8.242049608379602">
        <ele>2002.0799999999999</ele>
        <time>2019-01-15T09:14:17Z</time>
      </trkpt>
      <trkpt lat="46.307818125933409" lon="8.24202504940331">
        <ele>2002.0799999999999</ele>
        <time>2019-01-15T09:14:28Z</time>
      </trkpt>
      <trkpt lat="46.307812258601189" lon="8.241996131837368">
        <ele>2001.5999999999999</ele>
        <time>2019-01-15T09:14:37Z</time>
      </trkpt>
      <trkpt lat="46.307815443724394" lon="8.241941817104816">
        <ele>2003.04</ele>
        <time>2019-01-15T09:14:45Z</time>
      </trkpt>
      <trkpt lat="46.307815527543426" lon="8.241939134895802">
        <ele>2004.01</ele>
        <time>2019-01-15T09:14:47Z</time>
      </trkpt>
      <trkpt lat="46.307812090963125" lon="8.241907954216003">
        <ele>2004.97</ele>
        <time>2019-01-15T09:14:56Z</time>
      </trkpt>
      <trkpt lat="46.307844277471304" lon="8.241904601454735">
        <ele>2004.01</ele>
        <time>2019-01-15T09:15:06Z</time>
      </trkpt>
      <trkpt lat="46.307857353240252" lon="8.241918347775936">
        <ele>2004.01</ele>
        <time>2019-01-15T09:15:20Z</time>
      </trkpt>
      <trkpt lat="46.307853162288666" lon="8.24185254983604">
        <ele>2004.49</ele>
        <time>2019-01-15T09:15:29Z</time>
      </trkpt>
      <trkpt lat="46.307845450937748" lon="8.241759091615677">
        <ele>2006.8900000000001</ele>
        <time>2019-01-15T09:15:41Z</time>
      </trkpt>
      <trkpt lat="46.307827346026897" lon="8.241660268977284">
        <ele>2008.8099999999999</ele>
        <time>2019-01-15T09:15:52Z</time>
      </trkpt>
      <trkpt lat="46.30782944150269" lon="8.241556836292148">
        <ele>2008.3299999999999</ele>
        <time>2019-01-15T09:16:03Z</time>
      </trkpt>
      <trkpt lat="46.307829944416881" lon="8.241470167413354">
        <ele>2008.8099999999999</ele>
        <time>2019-01-15T09:16:14Z</time>
      </trkpt>
      <trkpt lat="46.3078289385885" lon="8.241397831588984">
        <ele>2010.25</ele>
        <time>2019-01-15T09:16:23Z</time>
      </trkpt>
      <trkpt lat="46.307819718495011" lon="8.241316443309188">
        <ele>2011.22</ele>
        <time>2019-01-15T09:16:35Z</time>
      </trkpt>
      <trkpt lat="46.307822903618217" lon="8.241274952888489">
        <ele>2010.73</ele>
        <time>2019-01-15T09:16:47Z</time>
      </trkpt>
      <trkpt lat="46.307869590818882" lon="8.241213764995337">
        <ele>2011.7</ele>
        <time>2019-01-15T09:16:57Z</time>
      </trkpt>
      <trkpt lat="46.307929018512368" lon="8.241154421120882">
        <ele>2012.6600000000001</ele>
        <time>2019-01-15T09:17:08Z</time>
      </trkpt>
      <trkpt lat="46.3079584389925" lon="8.241096250712872">
        <ele>2010.73</ele>
        <time>2019-01-15T09:17:19Z</time>
      </trkpt>
      <trkpt lat="46.307988530024886" lon="8.241041516885161">
        <ele>2010.25</ele>
        <time>2019-01-15T09:17:30Z</time>
      </trkpt>
      <trkpt lat="46.308017782866955" lon="8.2409359049052">
        <ele>2007.8499999999999</ele>
        <time>2019-01-15T09:17:42Z</time>
      </trkpt>
      <trkpt lat="46.308012586086988" lon="8.240856863558292">
        <ele>2009.29</ele>
        <time>2019-01-15T09:17:52Z</time>
      </trkpt>
      <trkpt lat="46.308021806180477" lon="8.240777822211385">
        <ele>2010.25</ele>
        <time>2019-01-15T09:18:00Z</time>
      </trkpt>
      <trkpt lat="46.308024069294333" lon="8.240768518298864">
        <ele>2010.25</ele>
        <time>2019-01-15T09:18:01Z</time>
      </trkpt>
      <trkpt lat="46.308030774816871" lon="8.240733565762639">
        <ele>2010.73</ele>
        <time>2019-01-15T09:18:04Z</time>
      </trkpt>
      <trkpt lat="46.308029098436236" lon="8.240660727024078">
        <ele>2011.7</ele>
        <time>2019-01-15T09:18:10Z</time>
      </trkpt>
      <trkpt lat="46.308003030717373" lon="8.240595096722245">
        <ele>2011.7</ele>
        <time>2019-01-15T09:18:16Z</time>
      </trkpt>
      <trkpt lat="46.307967910543084" lon="8.240568609908223">
        <ele>2011.7</ele>
        <time>2019-01-15T09:18:25Z</time>
      </trkpt>
      <trkpt lat="46.307948883622885" lon="8.240547571331263">
        <ele>2012.1800000000001</ele>
        <time>2019-01-15T09:18:35Z</time>
      </trkpt>
      <trkpt lat="46.307942010462284" lon="8.240528041496873">
        <ele>2013.1400000000001</ele>
        <time>2019-01-15T09:18:50Z</time>
      </trkpt>
      <trkpt lat="46.307921390980482" lon="8.240441791713238">
        <ele>2009.77</ele>
        <time>2019-01-15T09:18:58Z</time>
      </trkpt>
      <trkpt lat="46.307889120653272" lon="8.240337269380689">
        <ele>2008.8099999999999</ele>
        <time>2019-01-15T09:19:10Z</time>
      </trkpt>
      <trkpt lat="46.30785433575511" lon="8.240254456177354">
        <ele>2009.29</ele>
        <time>2019-01-15T09:19:20Z</time>
      </trkpt>
      <trkpt lat="46.307829357683659" lon="8.240193435922265">
        <ele>2009.29</ele>
        <time>2019-01-15T09:19:29Z</time>
      </trkpt>
      <trkpt lat="46.307831453159451" lon="8.240149095654488">
        <ele>2008.8099999999999</ele>
        <time>2019-01-15T09:19:39Z</time>
      </trkpt>
      <trkpt lat="46.307860789820552" lon="8.240143144503236">
        <ele>2005.9300000000001</ele>
        <time>2019-01-15T09:19:52Z</time>
      </trkpt>
      <trkpt lat="46.307837404310703" lon="8.240153538063169">
        <ele>2005.45</ele>
        <time>2019-01-15T09:20:08Z</time>
      </trkpt>
      <trkpt lat="46.307820472866297" lon="8.240164685994387">
        <ele>2005.9300000000001</ele>
        <time>2019-01-15T09:20:21Z</time>
      </trkpt>
      <trkpt lat="46.307788286358118" lon="8.240091428160667">
        <ele>2005.9300000000001</ele>
        <time>2019-01-15T09:20:32Z</time>
      </trkpt>
      <trkpt lat="46.307736067101359" lon="8.240018589422107">
        <ele>2005.9300000000001</ele>
        <time>2019-01-15T09:20:42Z</time>
      </trkpt>
      <trkpt lat="46.307702204212546" lon="8.2399757578969">
        <ele>2004.97</ele>
        <time>2019-01-15T09:20:51Z</time>
      </trkpt>
      <trkpt lat="46.307661887258291" lon="8.239920940250158">
        <ele>2005.45</ele>
        <time>2019-01-15T09:21:00Z</time>
      </trkpt>
      <trkpt lat="46.307599525898695" lon="8.239851202815771">
        <ele>2006.8900000000001</ele>
        <time>2019-01-15T09:21:14Z</time>
      </trkpt>
      <trkpt lat="46.307568596675992" lon="8.239803425967693">
        <ele>2008.8099999999999</ele>
        <time>2019-01-15T09:21:20Z</time>
      </trkpt>
      <trkpt lat="46.307507073506713" lon="8.239698400720954">
        <ele>2008.3299999999999</ele>
        <time>2019-01-15T09:21:33Z</time>
      </trkpt>
      <trkpt lat="46.307460637763143" lon="8.239586334675551">
        <ele>2007.3699999999999</ele>
        <time>2019-01-15T09:21:44Z</time>
      </trkpt>
      <trkpt lat="46.307432390749454" lon="8.239502683281899">
        <ele>2009.29</ele>
        <time>2019-01-15T09:21:55Z</time>
      </trkpt>
      <trkpt lat="46.307394756004214" lon="8.239435544237495">
        <ele>2009.77</ele>
        <time>2019-01-15T09:22:05Z</time>
      </trkpt>
      <trkpt lat="46.307355025783181" lon="8.23937620036304">
        <ele>2009.77</ele>
        <time>2019-01-15T09:22:15Z</time>
      </trkpt>
      <trkpt lat="46.307342369109392" lon="8.239365220069885">
        <ele>2010.73</ele>
        <time>2019-01-15T09:22:26Z</time>
      </trkpt>
      <trkpt lat="46.307344464585185" lon="8.239348791539669">
        <ele>2013.1400000000001</ele>
        <time>2019-01-15T09:22:43Z</time>
      </trkpt>
      <trkpt lat="46.307348320260644" lon="8.239332865923643">
        <ele>2013.6199999999999</ele>
        <time>2019-01-15T09:23:03Z</time>
      </trkpt>
      <trkpt lat="46.307326862588525" lon="8.239285256713629">
        <ele>2014.5799999999999</ele>
        <time>2019-01-15T09:23:15Z</time>
      </trkpt>
      <trkpt lat="46.307321498170495" lon="8.239275617524982">
        <ele>2014.5799999999999</ele>
        <time>2019-01-15T09:23:16Z</time>
      </trkpt>
      <trkpt lat="46.307301297783852" lon="8.239228343591094">
        <ele>2015.0599999999999</ele>
        <time>2019-01-15T09:23:26Z</time>
      </trkpt>
      <trkpt lat="46.307270703837276" lon="8.239224907010794">
        <ele>2014.5799999999999</ele>
        <time>2019-01-15T09:23:44Z</time>
      </trkpt>
      <trkpt lat="46.307253856211901" lon="8.239213591441512">
        <ele>2014.5799999999999</ele>
        <time>2019-01-15T09:23:52Z</time>
      </trkpt>
      <trkpt lat="46.307248240336776" lon="8.239148715510964">
        <ele>2015.0599999999999</ele>
        <time>2019-01-15T09:24:04Z</time>
      </trkpt>
      <trkpt lat="46.307226615026593" lon="8.239092556759715">
        <ele>2015.0599999999999</ele>
        <time>2019-01-15T09:24:13Z</time>
      </trkpt>
      <trkpt lat="46.307170959189534" lon="8.23900924064219">
        <ele>2015.0599999999999</ele>
        <time>2019-01-15T09:24:24Z</time>
      </trkpt>
      <trkpt lat="46.307164505124092" lon="8.23889683932066">
        <ele>2015.0599999999999</ele>
        <time>2019-01-15T09:24:34Z</time>
      </trkpt>
      <trkpt lat="46.307127792388201" lon="8.238858198747039">
        <ele>2016.5</ele>
        <time>2019-01-15T09:24:45Z</time>
      </trkpt>
      <trkpt lat="46.307091834023595" lon="8.238818217068911">
        <ele>2016.5</ele>
        <time>2019-01-15T09:24:53Z</time>
      </trkpt>
      <trkpt lat="46.307077836245298" lon="8.238762561231852">
        <ele>2015.54</ele>
        <time>2019-01-15T09:25:02Z</time>
      </trkpt>
      <trkpt lat="46.307047074660659" lon="8.238703636452556">
        <ele>2015.54</ele>
        <time>2019-01-15T09:25:11Z</time>
      </trkpt>
      <trkpt lat="46.307028969749808" lon="8.238663487136364">
        <ele>2016.02</ele>
        <time>2019-01-15T09:25:20Z</time>
      </trkpt>
      <trkpt lat="46.307008350268006" lon="8.238600790500641">
        <ele>2017.9400000000001</ele>
        <time>2019-01-15T09:25:28Z</time>
      </trkpt>
      <trkpt lat="46.306977923959494" lon="8.238555360585451">
        <ele>2018.9100000000001</ele>
        <time>2019-01-15T09:25:36Z</time>
      </trkpt>
      <trkpt lat="46.306952107697725" lon="8.238513115793467">
        <ele>2017.46</ele>
        <time>2019-01-15T09:25:45Z</time>
      </trkpt>
      <trkpt lat="46.306928470730782" lon="8.238478749990463">
        <ele>2015.54</ele>
        <time>2019-01-15T09:25:54Z</time>
      </trkpt>
      <trkpt lat="46.306891506537795" lon="8.238434325903654">
        <ele>2016.02</ele>
        <time>2019-01-15T09:26:03Z</time>
      </trkpt>
      <trkpt lat="46.306851943954825" lon="8.238414376974106">
        <ele>2015.54</ele>
        <time>2019-01-15T09:26:13Z</time>
      </trkpt>
      <trkpt lat="46.306821014732122" lon="8.238402893766761">
        <ele>2015.54</ele>
        <time>2019-01-15T09:26:22Z</time>
      </trkpt>
      <trkpt lat="46.306789582595229" lon="8.238399373367429">
        <ele>2015.54</ele>
        <time>2019-01-15T09:26:31Z</time>
      </trkpt>
      <trkpt lat="46.30675446242094" lon="8.238396942615509">
        <ele>2016.5</ele>
        <time>2019-01-15T09:26:40Z</time>
      </trkpt>
      <trkpt lat="46.306702746078372" lon="8.238380346447229">
        <ele>2017.46</ele>
        <time>2019-01-15T09:26:51Z</time>
      </trkpt>
      <trkpt lat="46.30665136501193" lon="8.238360146060586">
        <ele>2017.46</ele>
        <time>2019-01-15T09:27:00Z</time>
      </trkpt>
      <trkpt lat="46.30662253126502" lon="8.238339358940721">
        <ele>2017.9400000000001</ele>
        <time>2019-01-15T09:27:09Z</time>
      </trkpt>
      <trkpt lat="46.306601241230965" lon="8.238336425274611">
        <ele>2018.9100000000001</ele>
        <time>2019-01-15T09:27:19Z</time>
      </trkpt>
      <trkpt lat="46.30655363202095" lon="8.238283786922693">
        <ele>2018.9100000000001</ele>
        <time>2019-01-15T09:27:30Z</time>
      </trkpt>
      <trkpt lat="46.306517170742154" lon="8.238271046429873">
        <ele>2019.8699999999999</ele>
        <time>2019-01-15T09:27:44Z</time>
      </trkpt>
      <trkpt lat="46.306476518511772" lon="8.238240284845233">
        <ele>2018.9100000000001</ele>
        <time>2019-01-15T09:27:53Z</time>
      </trkpt>
      <trkpt lat="46.306447936221957" lon="8.238187730312347">
        <ele>2018.4300000000001</ele>
        <time>2019-01-15T09:27:59Z</time>
      </trkpt>
      <trkpt lat="46.306424718350172" lon="8.238138528540731">
        <ele>2018.4300000000001</ele>
        <time>2019-01-15T09:28:04Z</time>
      </trkpt>
      <trkpt lat="46.306357998400927" lon="8.238079100847244">
        <ele>2018.4300000000001</ele>
        <time>2019-01-15T09:28:14Z</time>
      </trkpt>
      <trkpt lat="46.306316172704101" lon="8.238040460273624">
        <ele>2019.3900000000001</ele>
        <time>2019-01-15T09:28:23Z</time>
      </trkpt>
      <trkpt lat="46.30627459846437" lon="8.237957982346416">
        <ele>2018.4300000000001</ele>
        <time>2019-01-15T09:28:34Z</time>
      </trkpt>
      <trkpt lat="46.306259511038661" lon="8.237944068387151">
        <ele>2018.9100000000001</ele>
        <time>2019-01-15T09:28:36Z</time>
      </trkpt>
      <trkpt lat="46.30623696371913" lon="8.237894363701344">
        <ele>2018.4300000000001</ele>
        <time>2019-01-15T09:28:46Z</time>
      </trkpt>
      <trkpt lat="46.30619103088975" lon="8.237786907702684">
        <ele>2016.98</ele>
        <time>2019-01-15T09:28:57Z</time>
      </trkpt>
      <trkpt lat="46.306153479963541" lon="8.237729491665959">
        <ele>2016.5</ele>
        <time>2019-01-15T09:29:06Z</time>
      </trkpt>
      <trkpt lat="46.306102434173226" lon="8.237669561058283">
        <ele>2017.9400000000001</ele>
        <time>2019-01-15T09:29:17Z</time>
      </trkpt>
      <trkpt lat="46.3060830719769" lon="8.237615246325731">
        <ele>2018.4300000000001</ele>
        <time>2019-01-15T09:29:23Z</time>
      </trkpt>
      <trkpt lat="46.306065889075398" lon="8.237537713721395">
        <ele>2017.9400000000001</ele>
        <time>2019-01-15T09:29:32Z</time>
      </trkpt>
      <trkpt lat="46.3060312718153" lon="8.237501252442598">
        <ele>2017.46</ele>
        <time>2019-01-15T09:29:42Z</time>
      </trkpt>
      <trkpt lat="46.306005790829659" lon="8.237441657111049">
        <ele>2016.98</ele>
        <time>2019-01-15T09:29:50Z</time>
      </trkpt>
      <trkpt lat="46.305995481088758" lon="8.237403519451618">
        <ele>2017.46</ele>
        <time>2019-01-15T09:30:00Z</time>
      </trkpt>
      <trkpt lat="46.30593404173851" lon="8.237358927726746">
        <ele>2016.98</ele>
        <time>2019-01-15T09:30:11Z</time>
      </trkpt>
      <trkpt lat="46.305909063667059" lon="8.237317688763142">
        <ele>2018.4300000000001</ele>
        <time>2019-01-15T09:30:22Z</time>
      </trkpt>
      <trkpt lat="46.305868662893772" lon="8.237231438979507">
        <ele>2016.98</ele>
        <time>2019-01-15T09:30:33Z</time>
      </trkpt>
      <trkpt lat="46.30585290491581" lon="8.237195061519742">
        <ele>2017.46</ele>
        <time>2019-01-15T09:30:42Z</time>
      </trkpt>
      <trkpt lat="46.305829603224993" lon="8.237166646867991">
        <ele>2017.46</ele>
        <time>2019-01-15T09:30:46Z</time>
      </trkpt>
      <trkpt lat="46.3058016076684" lon="8.237089281901717">
        <ele>2017.9400000000001</ele>
        <time>2019-01-15T09:30:55Z</time>
      </trkpt>
      <trkpt lat="46.30577813833952" lon="8.237028177827597">
        <ele>2017.9400000000001</ele>
        <time>2019-01-15T09:31:04Z</time>
      </trkpt>
      <trkpt lat="46.30576254799962" lon="8.236938156187534">
        <ele>2018.9100000000001</ele>
        <time>2019-01-15T09:31:13Z</time>
      </trkpt>
      <trkpt lat="46.305733127519488" lon="8.236857857555151">
        <ele>2018.4300000000001</ele>
        <time>2019-01-15T09:31:25Z</time>
      </trkpt>
      <trkpt lat="46.305720806121826" lon="8.236816450953484">
        <ele>2017.9400000000001</ele>
        <time>2019-01-15T09:31:34Z</time>
      </trkpt>
      <trkpt lat="46.305691972374916" lon="8.236752916127443">
        <ele>2017.9400000000001</ele>
        <time>2019-01-15T09:31:45Z</time>
      </trkpt>
      <trkpt lat="46.305661797523499" lon="8.23671561665833">
        <ele>2019.8699999999999</ele>
        <time>2019-01-15T09:31:53Z</time>
      </trkpt>
      <trkpt lat="46.305626928806305" lon="8.236687034368515">
        <ele>2019.8699999999999</ele>
        <time>2019-01-15T09:32:01Z</time>
      </trkpt>
      <trkpt lat="46.305567668750882" lon="8.236645208671689">
        <ele>2018.4300000000001</ele>
        <time>2019-01-15T09:32:14Z</time>
      </trkpt>
      <trkpt lat="46.305528776720166" lon="8.236593827605248">
        <ele>2018.4300000000001</ele>
        <time>2019-01-15T09:32:23Z</time>
      </trkpt>
      <trkpt lat="46.305472450330853" lon="8.236545044928789">
        <ele>2017.46</ele>
        <time>2019-01-15T09:32:33Z</time>
      </trkpt>
      <trkpt lat="46.305439844727516" lon="8.236528281122446">
        <ele>2017.9400000000001</ele>
        <time>2019-01-15T09:32:42Z</time>
      </trkpt>
      <trkpt lat="46.305421404540539" lon="8.236481426283717">
        <ele>2017.9400000000001</ele>
        <time>2019-01-15T09:32:50Z</time>
      </trkpt>
      <trkpt lat="46.305392738431692" lon="8.236424848437309">
        <ele>2018.9100000000001</ele>
        <time>2019-01-15T09:32:57Z</time>
      </trkpt>
      <trkpt lat="46.305363737046719" lon="8.236371874809265">
        <ele>2019.8699999999999</ele>
        <time>2019-01-15T09:33:06Z</time>
      </trkpt>
      <trkpt lat="46.305335490033031" lon="8.236327785998583">
        <ele>2020.3499999999999</ele>
        <time>2019-01-15T09:33:16Z</time>
      </trkpt>
      <trkpt lat="46.305309673771262" lon="8.236281685531139">
        <ele>2021.3099999999999</ele>
        <time>2019-01-15T09:33:24Z</time>
      </trkpt>
      <trkpt lat="46.30528075620532" lon="8.236220329999924">
        <ele>2021.79</ele>
        <time>2019-01-15T09:33:33Z</time>
      </trkpt>
      <trkpt lat="46.305262483656406" lon="8.236171128228307">
        <ele>2021.79</ele>
        <time>2019-01-15T09:33:42Z</time>
      </trkpt>
      <trkpt lat="46.305256113409996" lon="8.236098038032651">
        <ele>2021.79</ele>
        <time>2019-01-15T09:33:54Z</time>
      </trkpt>
      <trkpt lat="46.305260639637709" lon="8.23607599362731">
        <ele>2022.27</ele>
        <time>2019-01-15T09:34:05Z</time>
      </trkpt>
      <trkpt lat="46.30525728687644" lon="8.236035089939833">
        <ele>2020.3499999999999</ele>
        <time>2019-01-15T09:34:20Z</time>
      </trkpt>
      <trkpt lat="46.305244965478778" lon="8.236013296991587">
        <ele>2021.3099999999999</ele>
        <time>2019-01-15T09:34:27Z</time>
      </trkpt>
      <trkpt lat="46.305224932730198" lon="8.235951270908117">
        <ele>2022.27</ele>
        <time>2019-01-15T09:34:36Z</time>
      </trkpt>
      <trkpt lat="46.305217053741217" lon="8.235940374433994">
        <ele>2024.1900000000001</ele>
        <time>2019-01-15T09:34:50Z</time>
      </trkpt>
      <trkpt lat="46.305211773142219" lon="8.23594506829977">
        <ele>2024.1900000000001</ele>
        <time>2019-01-15T09:35:03Z</time>
      </trkpt>
      <trkpt lat="46.305192494764924" lon="8.235917910933495">
        <ele>2024.6700000000001</ele>
        <time>2019-01-15T09:35:11Z</time>
      </trkpt>
      <trkpt lat="46.305167935788631" lon="8.235885808244348">
        <ele>2025.1500000000001</ele>
        <time>2019-01-15T09:35:22Z</time>
      </trkpt>
      <trkpt lat="46.305152010172606" lon="8.235861333087087">
        <ele>2025.6400000000001</ele>
        <time>2019-01-15T09:35:31Z</time>
      </trkpt>
      <trkpt lat="46.305138263851404" lon="8.235829146578908">
        <ele>2026.5999999999999</ele>
        <time>2019-01-15T09:35:41Z</time>
      </trkpt>
      <trkpt lat="46.305122170597315" lon="8.235795451328158">
        <ele>2027.5599999999999</ele>
        <time>2019-01-15T09:35:49Z</time>
      </trkpt>
      <trkpt lat="46.305116470903158" lon="8.235776424407959">
        <ele>2028.04</ele>
        <time>2019-01-15T09:36:00Z</time>
      </trkpt>
      <trkpt lat="46.305112112313509" lon="8.235749183222652">
        <ele>2027.5599999999999</ele>
        <time>2019-01-15T09:36:09Z</time>
      </trkpt>
      <trkpt lat="46.305082608014345" lon="8.235712051391602">
        <ele>2028.52</ele>
        <time>2019-01-15T09:36:22Z</time>
      </trkpt>
      <trkpt lat="46.305078500881791" lon="8.235684810206294">
        <ele>2028.04</ele>
        <time>2019-01-15T09:36:32Z</time>
      </trkpt>
      <trkpt lat="46.305060815066099" lon="8.235638793557882">
        <ele>2029</ele>
        <time>2019-01-15T09:36:41Z</time>
      </trkpt>
      <trkpt lat="46.305053187534213" lon="8.235620940104127">
        <ele>2029.96</ele>
        <time>2019-01-15T09:36:50Z</time>
      </trkpt>
      <trkpt lat="46.305041033774614" lon="8.235586993396282">
        <ele>2031.4000000000001</ele>
        <time>2019-01-15T09:37:00Z</time>
      </trkpt>
      <trkpt lat="46.305032819509506" lon="8.235561847686768">
        <ele>2032.8399999999999</ele>
        <time>2019-01-15T09:37:10Z</time>
      </trkpt>
      <trkpt lat="46.305014630779624" lon="8.235517675057054">
        <ele>2033.3299999999999</ele>
        <time>2019-01-15T09:37:18Z</time>
      </trkpt>
      <trkpt lat="46.305001806467772" lon="8.235476184636354">
        <ele>2033.3299999999999</ele>
        <time>2019-01-15T09:37:26Z</time>
      </trkpt>
      <trkpt lat="46.30499635823071" lon="8.235437124967575">
        <ele>2033.3299999999999</ele>
        <time>2019-01-15T09:37:35Z</time>
      </trkpt>
      <trkpt lat="46.304983701556921" lon="8.235401166602969">
        <ele>2033.8099999999999</ele>
        <time>2019-01-15T09:37:45Z</time>
      </trkpt>
      <trkpt lat="46.304972972720861" lon="8.23537727817893">
        <ele>2034.77</ele>
        <time>2019-01-15T09:37:54Z</time>
      </trkpt>
      <trkpt lat="46.304945982992649" lon="8.235361771658063">
        <ele>2036.6900000000001</ele>
        <time>2019-01-15T09:38:04Z</time>
      </trkpt>
      <trkpt lat="46.304916897788644" lon="8.235345343127847">
        <ele>2038.6099999999999</ele>
        <time>2019-01-15T09:38:13Z</time>
      </trkpt>
      <trkpt lat="46.304877419024706" lon="8.235291698947549">
        <ele>2038.6099999999999</ele>
        <time>2019-01-15T09:38:25Z</time>
      </trkpt>
      <trkpt lat="46.304856715723872" lon="8.235232941806316">
        <ele>2039.0899999999999</ele>
        <time>2019-01-15T09:38:36Z</time>
      </trkpt>
      <trkpt lat="46.304847160354257" lon="8.235197737812996">
        <ele>2039.5699999999999</ele>
        <time>2019-01-15T09:38:50Z</time>
      </trkpt>
      <trkpt lat="46.304832994937897" lon="8.235183153301477">
        <ele>2039.5699999999999</ele>
        <time>2019-01-15T09:39:02Z</time>
      </trkpt>
      <trkpt lat="46.304816734045744" lon="8.235161527991295">
        <ele>2040.54</ele>
        <time>2019-01-15T09:39:10Z</time>
      </trkpt>
      <trkpt lat="46.304805083200336" lon="8.235144261270762">
        <ele>2041.5</ele>
        <time>2019-01-15T09:39:18Z</time>
      </trkpt>
      <trkpt lat="46.304822852835059" lon="8.235128168016672">
        <ele>2043.4200000000001</ele>
        <time>2019-01-15T09:39:36Z</time>
      </trkpt>
      <trkpt lat="46.304794941097498" lon="8.235130263492465">
        <ele>2043.4200000000001</ele>
        <time>2019-01-15T09:39:57Z</time>
      </trkpt>
      <trkpt lat="46.304806005209684" lon="8.235103357583284">
        <ele>2040.54</ele>
        <time>2019-01-15T09:40:08Z</time>
      </trkpt>
      <trkpt lat="46.304812207818031" lon="8.235149793326855">
        <ele>2040.05</ele>
        <time>2019-01-15T09:40:27Z</time>
      </trkpt>
      <trkpt lat="46.304780105128884" lon="8.235125485807657">
        <ele>2040.54</ele>
        <time>2019-01-15T09:40:36Z</time>
      </trkpt>
      <trkpt lat="46.304745739325881" lon="8.235117187723517">
        <ele>2040.54</ele>
        <time>2019-01-15T09:40:42Z</time>
      </trkpt>
      <trkpt lat="46.304732663556933" lon="8.235120791941881">
        <ele>2040.05</ele>
        <time>2019-01-15T09:40:51Z</time>
      </trkpt>
      <trkpt lat="46.304730484262109" lon="8.235112242400646">
        <ele>2039.0899999999999</ele>
        <time>2019-01-15T09:40:53Z</time>
      </trkpt>
      <trkpt lat="46.304757473990321" lon="8.235092712566257">
        <ele>2038.6099999999999</ele>
        <time>2019-01-15T09:41:15Z</time>
      </trkpt>
      <trkpt lat="46.304774070158601" lon="8.235089862719178">
        <ele>2036.6900000000001</ele>
        <time>2019-01-15T09:41:27Z</time>
      </trkpt>
      <trkpt lat="46.304767029359937" lon="8.235068321228027">
        <ele>2037.6500000000001</ele>
        <time>2019-01-15T09:41:47Z</time>
      </trkpt>
      <trkpt lat="46.304742470383644" lon="8.235068488866091">
        <ele>2040.05</ele>
        <time>2019-01-15T09:42:04Z</time>
      </trkpt>
      <trkpt lat="46.304756719619036" lon="8.235075362026691">
        <ele>2039.5699999999999</ele>
        <time>2019-01-15T09:42:21Z</time>
      </trkpt>
      <trkpt lat="46.304750014096498" lon="8.235085923224688">
        <ele>2038.1300000000001</ele>
        <time>2019-01-15T09:42:31Z</time>
      </trkpt>
      <trkpt lat="46.304739369079471" lon="8.235119702294469">
        <ele>2039.0899999999999</ele>
        <time>2019-01-15T09:42:51Z</time>
      </trkpt>
      <trkpt lat="46.304726460948586" lon="8.235090700909495">
        <ele>2038.6099999999999</ele>
        <time>2019-01-15T09:43:03Z</time>
      </trkpt>
      <trkpt lat="46.304756216704845" lon="8.235118025913835">
        <ele>2038.6099999999999</ele>
        <time>2019-01-15T09:43:16Z</time>
      </trkpt>
      <trkpt lat="46.304765688255429" lon="8.235125401988626">
        <ele>2035.73</ele>
        <time>2019-01-15T09:43:37Z</time>
      </trkpt>
      <trkpt lat="46.304754707962275" lon="8.235113248229027">
        <ele>2036.6900000000001</ele>
        <time>2019-01-15T09:44:02Z</time>
      </trkpt>
      <trkpt lat="46.304747583344579" lon="8.235128000378609">
        <ele>2038.6099999999999</ele>
        <time>2019-01-15T09:44:20Z</time>
      </trkpt>
      <trkpt lat="46.304743979126215" lon="8.235126910731196">
        <ele>2039.0899999999999</ele>
        <time>2019-01-15T09:44:35Z</time>
      </trkpt>
      <trkpt lat="46.304775327444077" lon="8.235097490251064">
        <ele>2038.1300000000001</ele>
        <time>2019-01-15T09:45:04Z</time>
      </trkpt>
      <trkpt lat="46.304770717397332" lon="8.235113751143217">
        <ele>2039.5699999999999</ele>
        <time>2019-01-15T09:45:16Z</time>
      </trkpt>
      <trkpt lat="46.304758982732892" lon="8.235102854669094">
        <ele>2039.0899999999999</ele>
        <time>2019-01-15T09:45:29Z</time>
      </trkpt>
      <trkpt lat="46.304769711568952" lon="8.2351129129529">
        <ele>2037.6500000000001</ele>
        <time>2019-01-15T09:45:50Z</time>
      </trkpt>
      <trkpt lat="46.304783625528216" lon="8.235105285421014">
        <ele>2039.5699999999999</ele>
        <time>2019-01-15T09:46:19Z</time>
      </trkpt>
      <trkpt lat="46.304751019924879" lon="8.235115427523851">
        <ele>2037.1700000000001</ele>
        <time>2019-01-15T09:46:44Z</time>
      </trkpt>
      <trkpt lat="46.304762000218034" lon="8.235119534656405">
        <ele>2034.29</ele>
        <time>2019-01-15T09:47:05Z</time>
      </trkpt>
      <trkpt lat="46.304760491475463" lon="8.235114505514503">
        <ele>2035.25</ele>
        <time>2019-01-15T09:47:09Z</time>
      </trkpt>
      <trkpt lat="46.30477256141603" lon="8.235103189945221">
        <ele>2034.29</ele>
        <time>2019-01-15T09:47:40Z</time>
      </trkpt>
      <trkpt lat="46.304775075986981" lon="8.23511341586709">
        <ele>2033.3299999999999</ele>
        <time>2019-01-15T09:48:03Z</time>
      </trkpt>
      <trkpt lat="46.304744062945247" lon="8.235113834962249">
        <ele>2035.25</ele>
        <time>2019-01-15T09:48:17Z</time>
      </trkpt>
      <trkpt lat="46.304741213098168" lon="8.235104866325855">
        <ele>2036.21</ele>
        <time>2019-01-15T09:48:28Z</time>
      </trkpt>
      <trkpt lat="46.304744984954596" lon="8.235129257664084">
        <ele>2036.21</ele>
        <time>2019-01-15T09:48:40Z</time>
      </trkpt>
      <trkpt lat="46.304760072380304" lon="8.235117020085454">
        <ele>2036.21</ele>
        <time>2019-01-15T09:48:54Z</time>
      </trkpt>
      <trkpt lat="46.304765185341239" lon="8.235080558806658">
        <ele>2037.1700000000001</ele>
        <time>2019-01-15T09:49:16Z</time>
      </trkpt>
      <trkpt lat="46.304749008268118" lon="8.235079301521182">
        <ele>2037.6500000000001</ele>
        <time>2019-01-15T09:49:23Z</time>
      </trkpt>
      <trkpt lat="46.304735261946917" lon="8.235060358420014">
        <ele>2040.54</ele>
        <time>2019-01-15T09:49:31Z</time>
      </trkpt>
      <trkpt lat="46.304737944155931" lon="8.235076367855072">
        <ele>2040.54</ele>
        <time>2019-01-15T09:49:41Z</time>
      </trkpt>
      <trkpt lat="46.304755043238401" lon="8.235101765021682">
        <ele>2039.0899999999999</ele>
        <time>2019-01-15T09:49:47Z</time>
      </trkpt>
      <trkpt lat="46.304766861721873" lon="8.235096903517842">
        <ele>2039.0899999999999</ele>
        <time>2019-01-15T09:49:59Z</time>
      </trkpt>
      <trkpt lat="46.304779686033726" lon="8.235085252672434">
        <ele>2038.1300000000001</ele>
        <time>2019-01-15T09:50:21Z</time>
      </trkpt>
      <trkpt lat="46.304751774296165" lon="8.235066309571266">
        <ele>2040.54</ele>
        <time>2019-01-15T09:50:37Z</time>
      </trkpt>
      <trkpt lat="46.304721096530557" lon="8.234997326508164">
        <ele>2041.02</ele>
        <time>2019-01-15T09:50:49Z</time>
      </trkpt>
      <trkpt lat="46.304711038246751" lon="8.23499171063304">
        <ele>2041.5</ele>
        <time>2019-01-15T09:50:51Z</time>
      </trkpt>
      <trkpt lat="46.304651610553265" lon="8.234912501648068">
        <ele>2042.46</ele>
        <time>2019-01-15T09:51:02Z</time>
      </trkpt>
      <trkpt lat="46.304627303034067" lon="8.234834717586637">
        <ele>2043.9000000000001</ele>
        <time>2019-01-15T09:51:11Z</time>
      </trkpt>
      <trkpt lat="46.304592099040747" lon="8.234780989587307">
        <ele>2042.46</ele>
        <time>2019-01-15T09:51:19Z</time>
      </trkpt>
      <trkpt lat="46.304563684388995" lon="8.234714521095157">
        <ele>2042.9400000000001</ele>
        <time>2019-01-15T09:51:29Z</time>
      </trkpt>
      <trkpt lat="46.304536946117878" lon="8.234629025682807">
        <ele>2045.8199999999999</ele>
        <time>2019-01-15T09:51:39Z</time>
      </trkpt>
      <trkpt lat="46.304557397961617" lon="8.234587283805013">
        <ele>2047.75</ele>
        <time>2019-01-15T09:51:48Z</time>
      </trkpt>
      <trkpt lat="46.304595032706857" lon="8.234547469764948">
        <ele>2047.75</ele>
        <time>2019-01-15T09:51:58Z</time>
      </trkpt>
      <trkpt lat="46.30463819950819" lon="8.234485108405352">
        <ele>2047.75</ele>
        <time>2019-01-15T09:52:10Z</time>
      </trkpt>
      <trkpt lat="46.304654544219375" lon="8.234429284930229">
        <ele>2049.1900000000001</ele>
        <time>2019-01-15T09:52:20Z</time>
      </trkpt>
      <trkpt lat="46.304643312469125" lon="8.234400283545256">
        <ele>2050.1500000000001</ele>
        <time>2019-01-15T09:52:29Z</time>
      </trkpt>
      <trkpt lat="46.304627470672131" lon="8.234405228868127">
        <ele>2052.5500000000002</ele>
        <time>2019-01-15T09:52:38Z</time>
      </trkpt>
      <trkpt lat="46.30460986867547" lon="8.234413862228394">
        <ele>2052.5500000000002</ele>
        <time>2019-01-15T09:52:46Z</time>
      </trkpt>
      <trkpt lat="46.304585644975305" lon="8.234403636306524">
        <ele>2053.0300000000002</ele>
        <time>2019-01-15T09:52:55Z</time>
      </trkpt>
      <trkpt lat="46.304571060463786" lon="8.234406569972634">
        <ele>2054.4699999999998</ele>
        <time>2019-01-15T09:53:04Z</time>
      </trkpt>
      <trkpt lat="46.304545747116208" lon="8.234389973804355">
        <ele>2054.4699999999998</ele>
        <time>2019-01-15T09:53:12Z</time>
      </trkpt>
      <trkpt lat="46.304514650255442" lon="8.23438829742372">
        <ele>2055.9200000000001</ele>
        <time>2019-01-15T09:53:21Z</time>
      </trkpt>
      <trkpt lat="46.304503753781319" lon="8.234367007389665">
        <ele>2056.8800000000001</ele>
        <time>2019-01-15T09:53:30Z</time>
      </trkpt>
      <trkpt lat="46.304485565051436" lon="8.234340772032738">
        <ele>2056.8800000000001</ele>
        <time>2019-01-15T09:53:39Z</time>
      </trkpt>
      <trkpt lat="46.304455138742924" lon="8.234331384301186">
        <ele>2056.8800000000001</ele>
        <time>2019-01-15T09:53:49Z</time>
      </trkpt>
      <trkpt lat="46.304433848708868" lon="8.234310345724225">
        <ele>2057.8400000000001</ele>
        <time>2019-01-15T09:53:57Z</time>
      </trkpt>
      <trkpt lat="46.304415995255113" lon="8.234305316582322">
        <ele>2059.2800000000002</ele>
        <time>2019-01-15T09:54:06Z</time>
      </trkpt>
      <trkpt lat="46.30439193919301" lon="8.234286289662123">
        <ele>2060.7199999999998</ele>
        <time>2019-01-15T09:54:14Z</time>
      </trkpt>
      <trkpt lat="46.304352125152946" lon="8.234284278005362">
        <ele>2062.6500000000001</ele>
        <time>2019-01-15T09:54:23Z</time>
      </trkpt>
      <trkpt lat="46.304313652217388" lon="8.234312692657113">
        <ele>2063.1300000000001</ele>
        <time>2019-01-15T09:54:32Z</time>
      </trkpt>
      <trkpt lat="46.304273502901196" lon="8.234323002398014">
        <ele>2064.5700000000002</ele>
        <time>2019-01-15T09:54:41Z</time>
      </trkpt>
      <trkpt lat="46.304244082421064" lon="8.234280841425061">
        <ele>2063.6100000000001</ele>
        <time>2019-01-15T09:54:50Z</time>
      </trkpt>
      <trkpt lat="46.304230755195022" lon="8.234265334904194">
        <ele>2061.6799999999998</ele>
        <time>2019-01-15T09:55:00Z</time>
      </trkpt>
      <trkpt lat="46.30423410795629" lon="8.234255695715547">
        <ele>2062.1700000000001</ele>
        <time>2019-01-15T09:55:04Z</time>
      </trkpt>
      <trkpt lat="46.304213656112552" lon="8.234231388196349">
        <ele>2065.0500000000002</ele>
        <time>2019-01-15T09:55:12Z</time>
      </trkpt>
      <trkpt lat="46.304178955033422" lon="8.234178498387337">
        <ele>2066.4899999999998</ele>
        <time>2019-01-15T09:55:22Z</time>
      </trkpt>
      <trkpt lat="46.30412464030087" lon="8.234132649376988">
        <ele>2066.0100000000002</ele>
        <time>2019-01-15T09:55:32Z</time>
      </trkpt>
      <trkpt lat="46.304081473499537" lon="8.234126614406705">
        <ele>2066.4899999999998</ele>
        <time>2019-01-15T09:55:40Z</time>
      </trkpt>
      <trkpt lat="46.304028583690524" lon="8.234129715710878">
        <ele>2066.4899999999998</ele>
        <time>2019-01-15T09:55:49Z</time>
      </trkpt>
      <trkpt lat="46.30397317931056" lon="8.234122758731246">
        <ele>2067.9299999999998</ele>
        <time>2019-01-15T09:55:59Z</time>
      </trkpt>
      <trkpt lat="46.30396144464612" lon="8.234098786488175">
        <ele>2069.8600000000001</ele>
        <time>2019-01-15T09:56:05Z</time>
      </trkpt>
      <trkpt lat="46.303911823779345" lon="8.234084118157625">
        <ele>2072.7399999999998</ele>
        <time>2019-01-15T09:56:16Z</time>
      </trkpt>
      <trkpt lat="46.303877960890532" lon="8.234048997983336">
        <ele>2074.1799999999998</ele>
        <time>2019-01-15T09:56:24Z</time>
      </trkpt>
      <trkpt lat="46.303836302831769" lon="8.234043885022402">
        <ele>2073.2199999999998</ele>
        <time>2019-01-15T09:56:33Z</time>
      </trkpt>
      <trkpt lat="46.3038001768291" lon="8.234023014083505">
        <ele>2075.1399999999999</ele>
        <time>2019-01-15T09:56:44Z</time>
      </trkpt>
      <trkpt lat="46.303764972835779" lon="8.234001556411386">
        <ele>2076.0999999999999</ele>
        <time>2019-01-15T09:56:52Z</time>
      </trkpt>
      <trkpt lat="46.303731612861156" lon="8.23396559804678">
        <ele>2078.0300000000002</ele>
        <time>2019-01-15T09:56:59Z</time>
      </trkpt>
      <trkpt lat="46.303691798821092" lon="8.233942883089185">
        <ele>2077.0700000000002</ele>
        <time>2019-01-15T09:57:07Z</time>
      </trkpt>
      <trkpt lat="46.303661875426769" lon="8.233931651338935">
        <ele>2078.5100000000002</ele>
        <time>2019-01-15T09:57:15Z</time>
      </trkpt>
      <trkpt lat="46.303625078871846" lon="8.233908684924245">
        <ele>2081.3899999999999</ele>
        <time>2019-01-15T09:57:24Z</time>
      </trkpt>
      <trkpt lat="46.303586354479194" lon="8.233887311071158">
        <ele>2082.3499999999999</ele>
        <time>2019-01-15T09:57:32Z</time>
      </trkpt>
      <trkpt lat="46.303538242354989" lon="8.233868200331926">
        <ele>2081.3899999999999</ele>
        <time>2019-01-15T09:57:42Z</time>
      </trkpt>
      <trkpt lat="46.303500439971685" lon="8.233848167583346">
        <ele>2082.8299999999999</ele>
        <time>2019-01-15T09:57:51Z</time>
      </trkpt>
      <trkpt lat="46.303453585132957" lon="8.233814472332597">
        <ele>2082.8299999999999</ele>
        <time>2019-01-15T09:58:01Z</time>
      </trkpt>
      <trkpt lat="46.30340882577002" lon="8.233784548938274">
        <ele>2084.7600000000002</ele>
        <time>2019-01-15T09:58:11Z</time>
      </trkpt>
      <trkpt lat="46.303368760272861" lon="8.233750350773335">
        <ele>2085.7199999999998</ele>
        <time>2019-01-15T09:58:21Z</time>
      </trkpt>
      <trkpt lat="46.303319139406085" lon="8.233715314418078">
        <ele>2086.1999999999998</ele>
        <time>2019-01-15T09:58:31Z</time>
      </trkpt>
      <trkpt lat="46.303279744461179" lon="8.233680110424757">
        <ele>2086.1999999999998</ele>
        <time>2019-01-15T09:58:41Z</time>
      </trkpt>
      <trkpt lat="46.303245546296239" lon="8.233652953058481">
        <ele>2086.6799999999998</ele>
        <time>2019-01-15T09:58:48Z</time>
      </trkpt>
      <trkpt lat="46.303191902115941" lon="8.233618335798383">
        <ele>2088.1199999999999</ele>
        <time>2019-01-15T09:58:57Z</time>
      </trkpt>
      <trkpt lat="46.303128870204091" lon="8.233583802357316">
        <ele>2089.5599999999999</ele>
        <time>2019-01-15T09:59:06Z</time>
      </trkpt>
      <trkpt lat="46.303087715059519" lon="8.233544072136283">
        <ele>2091.9699999999998</ele>
        <time>2019-01-15T09:59:15Z</time>
      </trkpt>
      <trkpt lat="46.303037256002426" lon="8.23351263999939">
        <ele>2092.9299999999998</ele>
        <time>2019-01-15T09:59:24Z</time>
      </trkpt>
      <trkpt lat="46.30299786105752" lon="8.233484895899892">
        <ele>2091</ele>
        <time>2019-01-15T09:59:33Z</time>
      </trkpt>
      <trkpt lat="46.302961399778724" lon="8.233445752412081">
        <ele>2093.8899999999999</ele>
        <time>2019-01-15T09:59:43Z</time>
      </trkpt>
      <trkpt lat="46.302953520789742" lon="8.233442399650812">
        <ele>2094.3699999999999</ele>
        <time>2019-01-15T09:59:44Z</time>
      </trkpt>
      <trkpt lat="46.302908174693584" lon="8.233431922271848">
        <ele>2096.77</ele>
        <time>2019-01-15T09:59:53Z</time>
      </trkpt>
      <trkpt lat="46.302846651524305" lon="8.233424797654152">
        <ele>2096.29</ele>
        <time>2019-01-15T10:00:04Z</time>
      </trkpt>
      <trkpt lat="46.302807759493589" lon="8.233416751027107">
        <ele>2097.25</ele>
        <time>2019-01-15T10:00:14Z</time>
      </trkpt>
      <trkpt lat="46.302767023444176" lon="8.233402334153652">
        <ele>2097.25</ele>
        <time>2019-01-15T10:00:21Z</time>
      </trkpt>
      <trkpt lat="46.302719917148352" lon="8.233383810147643">
        <ele>2099.1799999999998</ele>
        <time>2019-01-15T10:00:29Z</time>
      </trkpt>
      <trkpt lat="46.302679935470223" lon="8.233374254778028">
        <ele>2102.0599999999999</ele>
        <time>2019-01-15T10:00:39Z</time>
      </trkpt>
      <trkpt lat="46.302637355402112" lon="8.233355395495892">
        <ele>2103.5</ele>
        <time>2019-01-15T10:00:48Z</time>
      </trkpt>
      <trkpt lat="46.302587818354368" lon="8.233335698023439">
        <ele>2104.9400000000001</ele>
        <time>2019-01-15T10:00:58Z</time>
      </trkpt>
      <trkpt lat="46.302535934373736" lon="8.233332512900233">
        <ele>2106.3899999999999</ele>
        <time>2019-01-15T10:01:10Z</time>
      </trkpt>
      <trkpt lat="46.302483296021819" lon="8.233317090198398">
        <ele>2107.8299999999999</ele>
        <time>2019-01-15T10:01:20Z</time>
      </trkpt>
      <trkpt lat="46.302432753145695" lon="8.23331474326551">
        <ele>2110.23</ele>
        <time>2019-01-15T10:01:32Z</time>
      </trkpt>
      <trkpt lat="46.302359830588102" lon="8.233301667496562">
        <ele>2112.1500000000001</ele>
        <time>2019-01-15T10:01:44Z</time>
      </trkpt>
      <trkpt lat="46.302324878051877" lon="8.233289513736963">
        <ele>2114.0799999999999</ele>
        <time>2019-01-15T10:01:53Z</time>
      </trkpt>
      <trkpt lat="46.302298055961728" lon="8.233304182067514">
        <ele>2112.6300000000001</ele>
        <time>2019-01-15T10:02:04Z</time>
      </trkpt>
      <trkpt lat="46.302250446751714" lon="8.233287921175361">
        <ele>2114.0799999999999</ele>
        <time>2019-01-15T10:02:15Z</time>
      </trkpt>
      <trkpt lat="46.302232090383768" lon="8.233311977237463">
        <ele>2114.0799999999999</ele>
        <time>2019-01-15T10:02:28Z</time>
      </trkpt>
      <trkpt lat="46.30223267711699" lon="8.233322119340301">
        <ele>2114.5599999999999</ele>
        <time>2019-01-15T10:02:38Z</time>
      </trkpt>
      <trkpt lat="46.302232844755054" lon="8.233304601162672">
        <ele>2113.5999999999999</ele>
        <time>2019-01-15T10:02:51Z</time>
      </trkpt>
      <trkpt lat="46.302231419831514" lon="8.233302086591721">
        <ele>2115.04</ele>
        <time>2019-01-15T10:03:05Z</time>
      </trkpt>
      <trkpt lat="46.30223318003118" lon="8.233303930610418">
        <ele>2114.5599999999999</ele>
        <time>2019-01-15T10:03:15Z</time>
      </trkpt>
      <trkpt lat="46.302229994907975" lon="8.233307786285877">
        <ele>2114.5599999999999</ele>
        <time>2019-01-15T10:03:24Z</time>
      </trkpt>
      <trkpt lat="46.302229408174753" lon="8.233316084370017">
        <ele>2115.04</ele>
        <time>2019-01-15T10:03:37Z</time>
      </trkpt>
      <trkpt lat="46.302221361547709" lon="8.233294878154993">
        <ele>2115.04</ele>
        <time>2019-01-15T10:03:51Z</time>
      </trkpt>
      <trkpt lat="46.30222337320447" lon="8.233269648626447">
        <ele>2116</ele>
        <time>2019-01-15T10:04:06Z</time>
      </trkpt>
      <trkpt lat="46.302222786471248" lon="8.233269397169352">
        <ele>2117.4400000000001</ele>
        <time>2019-01-15T10:04:18Z</time>
      </trkpt>
      <trkpt lat="46.302181128412485" lon="8.233212819322944">
        <ele>2120.3200000000002</ele>
        <time>2019-01-15T10:04:28Z</time>
      </trkpt>
      <trkpt lat="46.302136033773422" lon="8.233193876221776">
        <ele>2121.29</ele>
        <time>2019-01-15T10:04:38Z</time>
      </trkpt>
      <trkpt lat="46.302073840051889" lon="8.233155319467187">
        <ele>2121.29</ele>
        <time>2019-01-15T10:04:52Z</time>
      </trkpt>
      <trkpt lat="46.302021872252226" lon="8.233087258413434">
        <ele>2122.25</ele>
        <time>2019-01-15T10:05:04Z</time>
      </trkpt>
      <trkpt lat="46.301976190879941" lon="8.233029339462519">
        <ele>2123.6900000000001</ele>
        <time>2019-01-15T10:05:14Z</time>
      </trkpt>
      <trkpt lat="46.301929587498307" lon="8.23297955095768">
        <ele>2124.1700000000001</ele>
        <time>2019-01-15T10:05:25Z</time>
      </trkpt>
      <trkpt lat="46.30189061164856" lon="8.232930852100253">
        <ele>2125.1300000000001</ele>
        <time>2019-01-15T10:05:35Z</time>
      </trkpt>
      <trkpt lat="46.301853898912668" lon="8.232891960069537">
        <ele>2125.6100000000001</ele>
        <time>2019-01-15T10:05:45Z</time>
      </trkpt>
      <trkpt lat="46.30181341432035" lon="8.232850218191743">
        <ele>2126.5700000000002</ele>
        <time>2019-01-15T10:05:55Z</time>
      </trkpt>
      <trkpt lat="46.301782485097647" lon="8.232799591496587">
        <ele>2127.0500000000002</ele>
        <time>2019-01-15T10:06:04Z</time>
      </trkpt>
      <trkpt lat="46.301734540611506" lon="8.232765728607774">
        <ele>2126.5700000000002</ele>
        <time>2019-01-15T10:06:14Z</time>
      </trkpt>
      <trkpt lat="46.301699755713344" lon="8.232722645625472">
        <ele>2127.0500000000002</ele>
        <time>2019-01-15T10:06:25Z</time>
      </trkpt>
      <trkpt lat="46.301669329404831" lon="8.232712335884571">
        <ele>2126.5700000000002</ele>
        <time>2019-01-15T10:06:33Z</time>
      </trkpt>
      <trkpt lat="46.301631862297654" lon="8.232723651453853">
        <ele>2125.6100000000001</ele>
        <time>2019-01-15T10:06:42Z</time>
      </trkpt>
      <trkpt lat="46.301602106541395" lon="8.23271669447422">
        <ele>2126.0900000000001</ele>
        <time>2019-01-15T10:06:50Z</time>
      </trkpt>
      <trkpt lat="46.30156522616744" lon="8.232717616483569">
        <ele>2126.0900000000001</ele>
        <time>2019-01-15T10:07:00Z</time>
      </trkpt>
      <trkpt lat="46.301526920869946" lon="8.232698673382402">
        <ele>2126.0900000000001</ele>
        <time>2019-01-15T10:07:10Z</time>
      </trkpt>
      <trkpt lat="46.30148945376277" lon="8.232703870162368">
        <ele>2126.0900000000001</ele>
        <time>2019-01-15T10:07:20Z</time>
      </trkpt>
      <trkpt lat="46.301463050767779" lon="8.232720969244838">
        <ele>2126.0900000000001</ele>
        <time>2019-01-15T10:07:29Z</time>
      </trkpt>
      <trkpt lat="46.301437569782138" lon="8.232748126611114">
        <ele>2127.0500000000002</ele>
        <time>2019-01-15T10:07:37Z</time>
      </trkpt>
      <trkpt lat="46.301419716328382" lon="8.232801435515285">
        <ele>2128.02</ele>
        <time>2019-01-15T10:07:46Z</time>
      </trkpt>
      <trkpt lat="46.301403371617198" lon="8.232871675863862">
        <ele>2128.98</ele>
        <time>2019-01-15T10:07:55Z</time>
      </trkpt>
      <trkpt lat="46.301397336646914" lon="8.232938311994076">
        <ele>2129.9400000000001</ele>
        <time>2019-01-15T10:08:05Z</time>
      </trkpt>
      <trkpt lat="46.301380740478635" lon="8.233007546514273">
        <ele>2130.4200000000001</ele>
        <time>2019-01-15T10:08:15Z</time>
      </trkpt>
      <trkpt lat="46.30138099193573" lon="8.233047109097242">
        <ele>2130.9000000000001</ele>
        <time>2019-01-15T10:08:23Z</time>
      </trkpt>
      <trkpt lat="46.301384763792157" lon="8.233103267848492">
        <ele>2130.9000000000001</ele>
        <time>2019-01-15T10:08:32Z</time>
      </trkpt>
      <trkpt lat="46.301373783499002" lon="8.233179207891226">
        <ele>2131.8600000000001</ele>
        <time>2019-01-15T10:08:42Z</time>
      </trkpt>
      <trkpt lat="46.301367245614529" lon="8.233215501531959">
        <ele>2133.3000000000002</ele>
        <time>2019-01-15T10:08:50Z</time>
      </trkpt>
      <trkpt lat="46.301356768235564" lon="8.233268223702908">
        <ele>2133.7800000000002</ele>
        <time>2019-01-15T10:08:58Z</time>
      </trkpt>
      <trkpt lat="46.301344279199839" lon="8.2333411462605">
        <ele>2135.23</ele>
        <time>2019-01-15T10:09:07Z</time>
      </trkpt>
      <trkpt lat="46.301313852891326" lon="8.233377439901233">
        <ele>2135.71</ele>
        <time>2019-01-15T10:09:15Z</time>
      </trkpt>
      <trkpt lat="46.301282085478306" lon="8.233425216749311">
        <ele>2137.1500000000001</ele>
        <time>2019-01-15T10:09:25Z</time>
      </trkpt>
      <trkpt lat="46.30127496086061" lon="8.233462851494551">
        <ele>2138.1100000000001</ele>
        <time>2019-01-15T10:09:34Z</time>
      </trkpt>
      <trkpt lat="46.30128032527864" lon="8.233442148193717">
        <ele>2137.6300000000001</ele>
        <time>2019-01-15T10:09:44Z</time>
      </trkpt>
      <trkpt lat="46.301308153197169" lon="8.233447931706905">
        <ele>2135.23</ele>
        <time>2019-01-15T10:09:55Z</time>
      </trkpt>
      <trkpt lat="46.301280744373798" lon="8.2335190102458">
        <ele>2133.7800000000002</ele>
        <time>2019-01-15T10:10:06Z</time>
      </trkpt>
      <trkpt lat="46.30124562419951" lon="8.233575168997049">
        <ele>2134.7399999999998</ele>
        <time>2019-01-15T10:10:16Z</time>
      </trkpt>
      <trkpt lat="46.301219388842583" lon="8.233622862026095">
        <ele>2135.71</ele>
        <time>2019-01-15T10:10:26Z</time>
      </trkpt>
      <trkpt lat="46.301173288375139" lon="8.233703412115574">
        <ele>2135.23</ele>
        <time>2019-01-15T10:10:37Z</time>
      </trkpt>
      <trkpt lat="46.301130624487996" lon="8.233739202842116">
        <ele>2136.6700000000001</ele>
        <time>2019-01-15T10:10:45Z</time>
      </trkpt>
      <trkpt lat="46.301072286441922" lon="8.233832828700542">
        <ele>2137.6300000000001</ele>
        <time>2019-01-15T10:10:55Z</time>
      </trkpt>
      <trkpt lat="46.301044542342424" lon="8.233879348263145">
        <ele>2137.6300000000001</ele>
        <time>2019-01-15T10:11:05Z</time>
      </trkpt>
      <trkpt lat="46.300984108820558" lon="8.233912792056799">
        <ele>2138.5900000000001</ele>
        <time>2019-01-15T10:11:16Z</time>
      </trkpt>
      <trkpt lat="46.300952006131411" lon="8.233950342983007">
        <ele>2139.0700000000002</ele>
        <time>2019-01-15T10:11:25Z</time>
      </trkpt>
      <trkpt lat="46.300929123535752" lon="8.234023014083505">
        <ele>2138.1100000000001</ele>
        <time>2019-01-15T10:11:34Z</time>
      </trkpt>
      <trkpt lat="46.300903894007206" lon="8.234102558344603">
        <ele>2136.6700000000001</ele>
        <time>2019-01-15T10:11:43Z</time>
      </trkpt>
      <trkpt lat="46.300878161564469" lon="8.234161902219057">
        <ele>2135.23</ele>
        <time>2019-01-15T10:11:53Z</time>
      </trkpt>
      <trkpt lat="46.300846897065639" lon="8.234213283285499">
        <ele>2135.71</ele>
        <time>2019-01-15T10:12:02Z</time>
      </trkpt>
      <trkpt lat="46.300805658102036" lon="8.234270950779319">
        <ele>2135.71</ele>
        <time>2019-01-15T10:12:12Z</time>
      </trkpt>
      <trkpt lat="46.300768023356795" lon="8.23431596159935">
        <ele>2136.1900000000001</ele>
        <time>2019-01-15T10:12:21Z</time>
      </trkpt>
      <trkpt lat="46.300733909010887" lon="8.234367677941918">
        <ele>2136.6700000000001</ele>
        <time>2019-01-15T10:12:30Z</time>
      </trkpt>
      <trkpt lat="46.300710188224912" lon="8.234392236918211">
        <ele>2136.6700000000001</ele>
        <time>2019-01-15T10:12:39Z</time>
      </trkpt>
      <trkpt lat="46.300697447732091" lon="8.234436074271798">
        <ele>2136.1900000000001</ele>
        <time>2019-01-15T10:12:49Z</time>
      </trkpt>
      <trkpt lat="46.300685042515397" lon="8.234439510852099">
        <ele>2138.5900000000001</ele>
        <time>2019-01-15T10:13:01Z</time>
      </trkpt>
      <trkpt lat="46.300664506852627" lon="8.234491143375635">
        <ele>2138.1100000000001</ele>
        <time>2019-01-15T10:13:11Z</time>
      </trkpt>
      <trkpt lat="46.300628716126084" lon="8.234545039013028">
        <ele>2138.1100000000001</ele>
        <time>2019-01-15T10:13:23Z</time>
      </trkpt>
      <trkpt lat="46.300609773024917" lon="8.234578650444746">
        <ele>2137.6300000000001</ele>
        <time>2019-01-15T10:13:29Z</time>
      </trkpt>
      <trkpt lat="46.300563924014568" lon="8.234653417021036">
        <ele>2136.6700000000001</ele>
        <time>2019-01-15T10:13:39Z</time>
      </trkpt>
      <trkpt lat="46.300520841032267" lon="8.23471661657095">
        <ele>2136.6700000000001</ele>
        <time>2019-01-15T10:13:50Z</time>
      </trkpt>
      <trkpt lat="46.300499718636274" lon="8.2347571849823">
        <ele>2138.5900000000001</ele>
        <time>2019-01-15T10:14:00Z</time>
      </trkpt>
      <trkpt lat="46.30048387683928" lon="8.234821055084467">
        <ele>2139.5500000000002</ele>
        <time>2019-01-15T10:14:09Z</time>
      </trkpt>
      <trkpt lat="46.300451690331101" lon="8.23487738147378">
        <ele>2140.9899999999998</ele>
        <time>2019-01-15T10:14:19Z</time>
      </trkpt>
      <trkpt lat="46.300439285114408" lon="8.234950471669436">
        <ele>2140.9899999999998</ele>
        <time>2019-01-15T10:14:28Z</time>
      </trkpt>
      <trkpt lat="46.300434675067663" lon="8.234967403113842">
        <ele>2140.9899999999998</ele>
        <time>2019-01-15T10:14:31Z</time>
      </trkpt>
      <trkpt lat="46.300404416397214" lon="8.235059520229697">
        <ele>2142.4400000000001</ele>
        <time>2019-01-15T10:14:42Z</time>
      </trkpt>
      <trkpt lat="46.300406344234943" lon="8.235065555199981">
        <ele>2142.4400000000001</ele>
        <time>2019-01-15T10:14:43Z</time>
      </trkpt>
      <trkpt lat="46.300397543236613" lon="8.235138980671763">
        <ele>2142.9200000000001</ele>
        <time>2019-01-15T10:14:53Z</time>
      </trkpt>
      <trkpt lat="46.300386395305395" lon="8.235208969563246">
        <ele>2143.4000000000001</ele>
        <time>2019-01-15T10:15:01Z</time>
      </trkpt>
      <trkpt lat="46.300360327586532" lon="8.235276024788618">
        <ele>2144.3600000000001</ele>
        <time>2019-01-15T10:15:11Z</time>
      </trkpt>
      <trkpt lat="46.300347084179521" lon="8.235353473573923">
        <ele>2144.8400000000001</ele>
        <time>2019-01-15T10:15:22Z</time>
      </trkpt>
      <trkpt lat="46.300324285402894" lon="8.235430251806974">
        <ele>2146.2800000000002</ele>
        <time>2019-01-15T10:15:31Z</time>
      </trkpt>
      <trkpt lat="46.300289332866669" lon="8.235511807724834">
        <ele>2146.2800000000002</ele>
        <time>2019-01-15T10:15:39Z</time>
      </trkpt>
      <trkpt lat="46.300281789153814" lon="8.235541144385934">
        <ele>2147.7199999999998</ele>
        <time>2019-01-15T10:15:43Z</time>
      </trkpt>
      <trkpt lat="46.300248261541128" lon="8.235636530444026">
        <ele>2147.2399999999998</ele>
        <time>2019-01-15T10:15:52Z</time>
      </trkpt>
      <trkpt lat="46.300227222964168" lon="8.23571540415287">
        <ele>2147.2399999999998</ele>
        <time>2019-01-15T10:16:01Z</time>
      </trkpt>
      <trkpt lat="46.300207944586873" lon="8.235771143808961">
        <ele>2148.1999999999998</ele>
        <time>2019-01-15T10:16:10Z</time>
      </trkpt>
      <trkpt lat="46.300196377560496" lon="8.235836355015636">
        <ele>2147.7199999999998</ele>
        <time>2019-01-15T10:16:19Z</time>
      </trkpt>
      <trkpt lat="46.300187995657325" lon="8.235896704718471">
        <ele>2148.6799999999998</ele>
        <time>2019-01-15T10:16:28Z</time>
      </trkpt>
      <trkpt lat="46.300166202709079" lon="8.235957892611623">
        <ele>2148.1999999999998</ele>
        <time>2019-01-15T10:16:37Z</time>
      </trkpt>
      <trkpt lat="46.300157317891717" lon="8.236007513478398">
        <ele>2149.1599999999999</ele>
        <time>2019-01-15T10:16:46Z</time>
      </trkpt>
      <trkpt lat="46.300152456387877" lon="8.236049255356193">
        <ele>2150.1300000000001</ele>
        <time>2019-01-15T10:16:55Z</time>
      </trkpt>
      <trkpt lat="46.300137871876359" lon="8.236105162650347">
        <ele>2151.0900000000001</ele>
        <time>2019-01-15T10:17:04Z</time>
      </trkpt>
      <trkpt lat="46.300130328163505" lon="8.236146988347173">
        <ele>2152.0500000000002</ele>
        <time>2019-01-15T10:17:12Z</time>
      </trkpt>
      <trkpt lat="46.300121694803238" lon="8.236195100471377">
        <ele>2153.0100000000002</ele>
        <time>2019-01-15T10:17:21Z</time>
      </trkpt>
      <trkpt lat="46.300107361748815" lon="8.236228544265032">
        <ele>2153.9699999999998</ele>
        <time>2019-01-15T10:17:28Z</time>
      </trkpt>
      <trkpt lat="46.300094956532121" lon="8.236264502629638">
        <ele>2154.4499999999998</ele>
        <time>2019-01-15T10:17:36Z</time>
      </trkpt>
      <trkpt lat="46.300078779459" lon="8.236307753250003">
        <ele>2154.9299999999998</ele>
        <time>2019-01-15T10:17:44Z</time>
      </trkpt>
      <trkpt lat="46.300061345100403" lon="8.236355781555176">
        <ele>2155.4099999999999</ele>
        <time>2019-01-15T10:17:52Z</time>
      </trkpt>
      <trkpt lat="46.300035612657666" lon="8.236406240612268">
        <ele>2156.8600000000001</ele>
        <time>2019-01-15T10:18:01Z</time>
      </trkpt>
      <trkpt lat="46.30003091879189" lon="8.236443875357509">
        <ele>2157.3400000000001</ele>
        <time>2019-01-15T10:18:09Z</time>
      </trkpt>
      <trkpt lat="46.300025386735797" lon="8.236458459869027">
        <ele>2157.8200000000002</ele>
        <time>2019-01-15T10:18:20Z</time>
      </trkpt>
      <trkpt lat="46.300024045631289" lon="8.236493580043316">
        <ele>2158.3000000000002</ele>
        <time>2019-01-15T10:18:33Z</time>
      </trkpt>
      <trkpt lat="46.300026141107082" lon="8.236555103212595">
        <ele>2158.7800000000002</ele>
        <time>2019-01-15T10:18:43Z</time>
      </trkpt>
      <trkpt lat="46.300031505525112" lon="8.236619727686048">
        <ele>2159.7399999999998</ele>
        <time>2019-01-15T10:18:53Z</time>
      </trkpt>
      <trkpt lat="46.300018932670355" lon="8.236679742112756">
        <ele>2161.1799999999998</ele>
        <time>2019-01-15T10:19:02Z</time>
      </trkpt>
      <trkpt lat="46.300010466948152" lon="8.236720394343138">
        <ele>2162.6199999999999</ele>
        <time>2019-01-15T10:19:11Z</time>
      </trkpt>
      <trkpt lat="46.300000827759504" lon="8.236776553094387">
        <ele>2163.5799999999999</ele>
        <time>2019-01-15T10:19:20Z</time>
      </trkpt>
      <trkpt lat="46.29997962154448" lon="8.236840507015586">
        <ele>2163.5799999999999</ele>
        <time>2019-01-15T10:19:30Z</time>
      </trkpt>
      <trkpt lat="46.299971239641309" lon="8.236889205873013">
        <ele>2164.5500000000002</ele>
        <time>2019-01-15T10:19:38Z</time>
      </trkpt>
      <trkpt lat="46.299953386187553" lon="8.23696288280189">
        <ele>2165.0300000000002</ele>
        <time>2019-01-15T10:19:48Z</time>
      </trkpt>
      <trkpt lat="46.299943327903748" lon="8.237032871693373">
        <ele>2166.4699999999998</ele>
        <time>2019-01-15T10:19:57Z</time>
      </trkpt>
      <trkpt lat="46.299932766705751" lon="8.237112835049629">
        <ele>2167.4299999999998</ele>
        <time>2019-01-15T10:20:07Z</time>
      </trkpt>
      <trkpt lat="46.29992438480258" lon="8.237183159217238">
        <ele>2168.3899999999999</ele>
        <time>2019-01-15T10:20:17Z</time>
      </trkpt>
      <trkpt lat="46.299914158880711" lon="8.237235629931092">
        <ele>2169.3499999999999</ele>
        <time>2019-01-15T10:20:26Z</time>
      </trkpt>
      <trkpt lat="46.299883564934134" lon="8.237256333231926">
        <ele>2170.3099999999999</ele>
        <time>2019-01-15T10:20:35Z</time>
      </trkpt>
      <trkpt lat="46.299860263243318" lon="8.237244095653296">
        <ele>2172.2399999999998</ele>
        <time>2019-01-15T10:20:47Z</time>
      </trkpt>
      <trkpt lat="46.29986722022295" lon="8.23724334128201">
        <ele>2170.79</ele>
        <time>2019-01-15T10:20:51Z</time>
      </trkpt>
      <trkpt lat="46.299880379810929" lon="8.237321125343442">
        <ele>2170.79</ele>
        <time>2019-01-15T10:21:02Z</time>
      </trkpt>
      <trkpt lat="46.299895299598575" lon="8.237397484481335">
        <ele>2171.27</ele>
        <time>2019-01-15T10:21:13Z</time>
      </trkpt>
      <trkpt lat="46.299871327355504" lon="8.237462025135756">
        <ele>2172.2399999999998</ele>
        <time>2019-01-15T10:21:21Z</time>
      </trkpt>
      <trkpt lat="46.299865627661347" lon="8.237507287412882">
        <ele>2173.1999999999998</ele>
        <time>2019-01-15T10:21:30Z</time>
      </trkpt>
      <trkpt lat="46.299870070070028" lon="8.237552801147103">
        <ele>2173.6799999999998</ele>
        <time>2019-01-15T10:21:39Z</time>
      </trkpt>
      <trkpt lat="46.299879876896739" lon="8.237554728984833">
        <ele>2173.6799999999998</ele>
        <time>2019-01-15T10:21:48Z</time>
      </trkpt>
      <trkpt lat="46.299852970987558" lon="8.237621951848269">
        <ele>2176.0799999999999</ele>
        <time>2019-01-15T10:21:57Z</time>
      </trkpt>
      <trkpt lat="46.299840984866023" lon="8.237681295722723">
        <ele>2177.04</ele>
        <time>2019-01-15T10:22:07Z</time>
      </trkpt>
      <trkpt lat="46.299819611012936" lon="8.237731335684657">
        <ele>2178.48</ele>
        <time>2019-01-15T10:22:17Z</time>
      </trkpt>
      <trkpt lat="46.299781640991569" lon="8.23776176199317">
        <ele>2179.9299999999998</ele>
        <time>2019-01-15T10:22:27Z</time>
      </trkpt>
      <trkpt lat="46.299754399806261" lon="8.237775759771466">
        <ele>2181.8499999999999</ele>
        <time>2019-01-15T10:22:35Z</time>
      </trkpt>
      <trkpt lat="46.299715004861355" lon="8.237805431708694">
        <ele>2184.25</ele>
        <time>2019-01-15T10:22:44Z</time>
      </trkpt>
      <trkpt lat="46.299689607694745" lon="8.237838204950094">
        <ele>2185.21</ele>
        <time>2019-01-15T10:22:53Z</time>
      </trkpt>
      <trkpt lat="46.299716345965862" lon="8.237861422821879">
        <ele>2186.6599999999999</ele>
        <time>2019-01-15T10:23:02Z</time>
      </trkpt>
      <trkpt lat="46.299722967669368" lon="8.237913893535733">
        <ele>2186.6599999999999</ele>
        <time>2019-01-15T10:23:11Z</time>
      </trkpt>
      <trkpt lat="46.299733277410269" lon="8.237953456118703">
        <ele>2187.6199999999999</ele>
        <time>2019-01-15T10:23:21Z</time>
      </trkpt>
      <trkpt lat="46.299743084236979" lon="8.237993437796831">
        <ele>2188.5799999999999</ele>
        <time>2019-01-15T10:23:29Z</time>
      </trkpt>
      <trkpt lat="46.299753561615944" lon="8.238042807206512">
        <ele>2189.54</ele>
        <time>2019-01-15T10:23:38Z</time>
      </trkpt>
      <trkpt lat="46.299764290452003" lon="8.238099552690983">
        <ele>2191.46</ele>
        <time>2019-01-15T10:23:47Z</time>
      </trkpt>
      <trkpt lat="46.299758004024625" lon="8.238163171336055">
        <ele>2192.4200000000001</ele>
        <time>2019-01-15T10:23:57Z</time>
      </trkpt>
      <trkpt lat="46.299743754789233" lon="8.238200303167105">
        <ele>2194.3499999999999</ele>
        <time>2019-01-15T10:24:07Z</time>
      </trkpt>
      <trkpt lat="46.299728164449334" lon="8.238195944577456">
        <ele>2193.3899999999999</ele>
        <time>2019-01-15T10:24:23Z</time>
      </trkpt>
      <trkpt lat="46.299706371501088" lon="8.238236093893647">
        <ele>2193.3899999999999</ele>
        <time>2019-01-15T10:24:38Z</time>
      </trkpt>
      <trkpt lat="46.299657840281725" lon="8.23828361928463">
        <ele>2195.3099999999999</ele>
        <time>2019-01-15T10:24:49Z</time>
      </trkpt>
      <trkpt lat="46.29961852915585" lon="8.23829292319715">
        <ele>2198.6700000000001</ele>
        <time>2019-01-15T10:24:58Z</time>
      </trkpt>
      <trkpt lat="46.299553904682398" lon="8.238330977037549">
        <ele>2198.6700000000001</ele>
        <time>2019-01-15T10:25:08Z</time>
      </trkpt>
      <trkpt lat="46.29955155774951" lon="8.238360900431871">
        <ele>2201.5599999999999</ele>
        <time>2019-01-15T10:25:18Z</time>
      </trkpt>
      <trkpt lat="46.299508139491081" lon="8.238361906260252">
        <ele>2203</ele>
        <time>2019-01-15T10:25:25Z</time>
      </trkpt>
      <trkpt lat="46.299452818930149" lon="8.238395266234875">
        <ele>2204.4400000000001</ele>
        <time>2019-01-15T10:25:33Z</time>
      </trkpt>
      <trkpt lat="46.299420883879066" lon="8.238438265398145">
        <ele>2203.48</ele>
        <time>2019-01-15T10:25:39Z</time>
      </trkpt>
      <trkpt lat="46.299387523904443" lon="8.238480174914002">
        <ele>2206.3600000000001</ele>
        <time>2019-01-15T10:25:50Z</time>
      </trkpt>
      <trkpt lat="46.299350978806615" lon="8.238518731668592">
        <ele>2209.25</ele>
        <time>2019-01-15T10:25:59Z</time>
      </trkpt>
      <trkpt lat="46.2993448600173" lon="8.238594168797135">
        <ele>2211.1700000000001</ele>
        <time>2019-01-15T10:26:10Z</time>
      </trkpt>
      <trkpt lat="46.299331868067384" lon="8.238707492128015">
        <ele>2210.6900000000001</ele>
        <time>2019-01-15T10:26:23Z</time>
      </trkpt>
      <trkpt lat="46.29933706484735" lon="8.238765830174089">
        <ele>2209.73</ele>
        <time>2019-01-15T10:26:32Z</time>
      </trkpt>
      <trkpt lat="46.299314014613628" lon="8.238836489617825">
        <ele>2212.1300000000001</ele>
        <time>2019-01-15T10:26:41Z</time>
      </trkpt>
      <trkpt lat="46.299301106482744" lon="8.238933216780424">
        <ele>2212.1300000000001</ele>
        <time>2019-01-15T10:26:52Z</time>
      </trkpt>
      <trkpt lat="46.299279732629657" lon="8.239002116024494">
        <ele>2214.5300000000002</ele>
        <time>2019-01-15T10:27:03Z</time>
      </trkpt>
      <trkpt lat="46.299254251644015" lon="8.239081492647529">
        <ele>2217.4200000000001</ele>
        <time>2019-01-15T10:27:16Z</time>
      </trkpt>
      <trkpt lat="46.299234805628657" lon="8.239136980846524">
        <ele>2219.3400000000001</ele>
        <time>2019-01-15T10:27:24Z</time>
      </trkpt>
      <trkpt lat="46.299219131469727" lon="8.239160450175405">
        <ele>2220.3000000000002</ele>
        <time>2019-01-15T10:27:27Z</time>
      </trkpt>
      <trkpt lat="46.29919683560729" lon="8.239246867597103">
        <ele>2219.3400000000001</ele>
        <time>2019-01-15T10:27:38Z</time>
      </trkpt>
      <trkpt lat="46.299175461754203" lon="8.239313503727317">
        <ele>2220.3000000000002</ele>
        <time>2019-01-15T10:27:49Z</time>
      </trkpt>
      <trkpt lat="46.299141934141517" lon="8.239380139857531">
        <ele>2222.71</ele>
        <time>2019-01-15T10:27:59Z</time>
      </trkpt>
      <trkpt lat="46.299112429842353" lon="8.239426743239164">
        <ele>2223.1900000000001</ele>
        <time>2019-01-15T10:28:04Z</time>
      </trkpt>
      <trkpt lat="46.299069263041019" lon="8.239510813727975">
        <ele>2222.2199999999998</ele>
        <time>2019-01-15T10:28:15Z</time>
      </trkpt>
      <trkpt lat="46.299051325768232" lon="8.23955699801445">
        <ele>2224.6300000000001</ele>
        <time>2019-01-15T10:28:24Z</time>
      </trkpt>
      <trkpt lat="46.299021821469069" lon="8.239629585295916">
        <ele>2225.5900000000001</ele>
        <time>2019-01-15T10:28:34Z</time>
      </trkpt>
      <trkpt lat="46.298977229744196" lon="8.239713152870536">
        <ele>2226.0700000000002</ele>
        <time>2019-01-15T10:28:45Z</time>
      </trkpt>
      <trkpt lat="46.298922495916486" lon="8.239751290529966">
        <ele>2227.9899999999998</ele>
        <time>2019-01-15T10:28:54Z</time>
      </trkpt>
      <trkpt lat="46.298870611935854" lon="8.239764785394073">
        <ele>2227.9899999999998</ele>
        <time>2019-01-15T10:29:01Z</time>
      </trkpt>
      <trkpt lat="46.298782015219331" lon="8.239789763465524">
        <ele>2227.5100000000002</ele>
        <time>2019-01-15T10:29:12Z</time>
      </trkpt>
      <trkpt lat="46.298781093209982" lon="8.239788254722953">
        <ele>2228.9499999999998</ele>
        <time>2019-01-15T10:29:20Z</time>
      </trkpt>
      <trkpt lat="46.298793582245708" lon="8.23977685533464">
        <ele>2228.4699999999998</ele>
        <time>2019-01-15T10:29:29Z</time>
      </trkpt>
      <trkpt lat="46.298813950270414" lon="8.239790350198746">
        <ele>2231.3600000000001</ele>
        <time>2019-01-15T10:29:54Z</time>
      </trkpt>
      <trkpt lat="46.298820404335856" lon="8.239787835627794">
        <ele>2232.3200000000002</ele>
        <time>2019-01-15T10:30:22Z</time>
      </trkpt>
      <trkpt lat="46.298806238919497" lon="8.239792278036475">
        <ele>2232.8000000000002</ele>
        <time>2019-01-15T10:30:50Z</time>
      </trkpt>
      <trkpt lat="46.298812441527843" lon="8.239784901961684">
        <ele>2234.7199999999998</ele>
        <time>2019-01-15T10:31:21Z</time>
      </trkpt>
      <trkpt lat="46.298813614994287" lon="8.239779537543654">
        <ele>2234.7199999999998</ele>
        <time>2019-01-15T10:32:06Z</time>
      </trkpt>
      <trkpt lat="46.29880640655756" lon="8.239784818142653">
        <ele>2232.3200000000002</ele>
        <time>2019-01-15T10:32:40Z</time>
      </trkpt>
      <trkpt lat="46.298804143443704" lon="8.239780040457845">
        <ele>2231.3600000000001</ele>
        <time>2019-01-15T10:33:18Z</time>
      </trkpt>
      <trkpt lat="46.298801125958562" lon="8.239781465381384">
        <ele>2231.8400000000001</ele>
        <time>2019-01-15T10:33:57Z</time>
      </trkpt>
      <trkpt lat="46.298801964148879" lon="8.239784147590399">
        <ele>2231.3600000000001</ele>
        <time>2019-01-15T10:34:38Z</time>
      </trkpt>
      <trkpt lat="46.298799868673086" lon="8.239777693524957">
        <ele>2232.8000000000002</ele>
        <time>2019-01-15T10:34:49Z</time>
      </trkpt>
      <trkpt lat="46.298803305253386" lon="8.23980082757771">
        <ele>2233.7600000000002</ele>
        <time>2019-01-15T10:35:00Z</time>
      </trkpt>
      <trkpt lat="46.298774555325508" lon="8.239785572513938">
        <ele>2232.3200000000002</ele>
        <time>2019-01-15T10:35:15Z</time>
      </trkpt>
      <trkpt lat="46.298770699650049" lon="8.239791356027126">
        <ele>2230.8800000000001</ele>
        <time>2019-01-15T10:35:28Z</time>
      </trkpt>
      <trkpt lat="46.298800203949213" lon="8.239815412089229">
        <ele>2230.4000000000001</ele>
        <time>2019-01-15T10:35:39Z</time>
      </trkpt>
      <trkpt lat="46.298798779025674" lon="8.239809963852167">
        <ele>2230.8800000000001</ele>
        <time>2019-01-15T10:35:52Z</time>
      </trkpt>
      <trkpt lat="46.298804311081767" lon="8.239820022135973">
        <ele>2230.4000000000001</ele>
        <time>2019-01-15T10:36:10Z</time>
      </trkpt>
      <trkpt lat="46.298776734620333" lon="8.239866709336639">
        <ele>2231.3600000000001</ele>
        <time>2019-01-15T10:36:22Z</time>
      </trkpt>
      <trkpt lat="46.298784781247377" lon="8.239860674366355">
        <ele>2230.4000000000001</ele>
        <time>2019-01-15T10:36:34Z</time>
      </trkpt>
      <trkpt lat="46.298728538677096" lon="8.239855729043484">
        <ele>2229.9200000000001</ele>
        <time>2019-01-15T10:36:44Z</time>
      </trkpt>
      <trkpt lat="46.298655951395631" lon="8.239793116226792">
        <ele>2230.4000000000001</ele>
        <time>2019-01-15T10:36:55Z</time>
      </trkpt>
      <trkpt lat="46.298613706603646" lon="8.239800659939647">
        <ele>2231.8400000000001</ele>
        <time>2019-01-15T10:37:08Z</time>
      </trkpt>
      <trkpt lat="46.298598954454064" lon="8.239808287471533">
        <ele>2230.8800000000001</ele>
        <time>2019-01-15T10:37:18Z</time>
      </trkpt>
      <trkpt lat="46.298538018018007" lon="8.239816250279546">
        <ele>2232.3200000000002</ele>
        <time>2019-01-15T10:37:28Z</time>
      </trkpt>
      <trkpt lat="46.298490073531866" lon="8.239831253886223">
        <ele>2234.2399999999998</ele>
        <time>2019-01-15T10:37:38Z</time>
      </trkpt>
      <trkpt lat="46.298449924215674" lon="8.239844581112266">
        <ele>2236.6399999999999</ele>
        <time>2019-01-15T10:37:47Z</time>
      </trkpt>
      <trkpt lat="46.298431232571602" lon="8.239846173673868">
        <ele>2238.5700000000002</ele>
        <time>2019-01-15T10:37:55Z</time>
      </trkpt>
      <trkpt lat="46.298406422138214" lon="8.239892106503248">
        <ele>2238.5700000000002</ele>
        <time>2019-01-15T10:38:03Z</time>
      </trkpt>
      <trkpt lat="46.298370882868767" lon="8.239932423457503">
        <ele>2241.9299999999998</ele>
        <time>2019-01-15T10:38:12Z</time>
      </trkpt>
      <trkpt lat="46.298339031636715" lon="8.239966202527285">
        <ele>2243.3699999999999</ele>
        <time>2019-01-15T10:38:18Z</time>
      </trkpt>
      <trkpt lat="46.298286560922861" lon="8.240030072629452">
        <ele>2243.8499999999999</ele>
        <time>2019-01-15T10:38:28Z</time>
      </trkpt>
      <trkpt lat="46.298240460455418" lon="8.240072904154658">
        <ele>2245.3000000000002</ele>
        <time>2019-01-15T10:38:37Z</time>
      </trkpt>
      <trkpt lat="46.298204669728875" lon="8.240104503929615">
        <ele>2245.3000000000002</ele>
        <time>2019-01-15T10:38:45Z</time>
      </trkpt>
      <trkpt lat="46.298207519575953" lon="8.240056056529284">
        <ele>2245.3000000000002</ele>
        <time>2019-01-15T10:38:48Z</time>
      </trkpt>
      <trkpt lat="46.29820492118597" lon="8.239941392093897">
        <ele>2246.7399999999998</ele>
        <time>2019-01-15T10:39:00Z</time>
      </trkpt>
      <trkpt lat="46.298180362209678" lon="8.240011045709252">
        <ele>2249.1399999999999</ele>
        <time>2019-01-15T10:39:09Z</time>
      </trkpt>
      <trkpt lat="46.298163346946239" lon="8.240049183368683">
        <ele>2248.6599999999999</ele>
        <time>2019-01-15T10:39:13Z</time>
      </trkpt>
      <trkpt lat="46.298144487664104" lon="8.24006125330925">
        <ele>2248.6599999999999</ele>
        <time>2019-01-15T10:39:15Z</time>
      </trkpt>
      <trkpt lat="46.298131076619029" lon="8.240082878619432">
        <ele>2248.6599999999999</ele>
        <time>2019-01-15T10:39:17Z</time>
      </trkpt>
      <trkpt lat="46.298115570098162" lon="8.240097966045141">
        <ele>2248.6599999999999</ele>
        <time>2019-01-15T10:39:19Z</time>
      </trkpt>
      <trkpt lat="46.298059662804008" lon="8.240151191130281">
        <ele>2247.6999999999998</ele>
        <time>2019-01-15T10:39:29Z</time>
      </trkpt>
      <trkpt lat="46.298054130747914" lon="8.240155298262835">
        <ele>2247.6999999999998</ele>
        <time>2019-01-15T10:39:30Z</time>
      </trkpt>
      <trkpt lat="46.298019178211689" lon="8.240174828097224">
        <ele>2248.6599999999999</ele>
        <time>2019-01-15T10:39:36Z</time>
      </trkpt>
      <trkpt lat="46.297957319766283" lon="8.240236602723599">
        <ele>2250.0999999999999</ele>
        <time>2019-01-15T10:39:43Z</time>
      </trkpt>
      <trkpt lat="46.297936784103513" lon="8.240246577188373">
        <ele>2253.9499999999998</ele>
        <time>2019-01-15T10:39:52Z</time>
      </trkpt>
      <trkpt lat="46.297893952578306" lon="8.240283289924264">
        <ele>2253.4699999999998</ele>
        <time>2019-01-15T10:40:01Z</time>
      </trkpt>
      <trkpt lat="46.297891018912196" lon="8.240280356258154">
        <ele>2252.9899999999998</ele>
        <time>2019-01-15T10:40:02Z</time>
      </trkpt>
      <trkpt lat="46.297849025577307" lon="8.240264095366001">
        <ele>2254.4299999999998</ele>
        <time>2019-01-15T10:40:10Z</time>
      </trkpt>
      <trkpt lat="46.297836536541581" lon="8.24026795104146">
        <ele>2254.9099999999999</ele>
        <time>2019-01-15T10:40:12Z</time>
      </trkpt>
      <trkpt lat="46.297773839905858" lon="8.240292174741626">
        <ele>2256.3499999999999</ele>
        <time>2019-01-15T10:40:20Z</time>
      </trkpt>
      <trkpt lat="46.297719860449433" lon="8.240288151428103">
        <ele>2258.27</ele>
        <time>2019-01-15T10:40:29Z</time>
      </trkpt>
      <trkpt lat="46.297693038359284" lon="8.240283876657486">
        <ele>2260.1999999999998</ele>
        <time>2019-01-15T10:40:39Z</time>
      </trkpt>
      <trkpt lat="46.297693457454443" lon="8.240290665999055">
        <ele>2260.1999999999998</ele>
        <time>2019-01-15T10:40:44Z</time>
      </trkpt>
      <trkpt lat="46.297640316188335" lon="8.240309190005064">
        <ele>2260.1999999999998</ele>
        <time>2019-01-15T10:40:53Z</time>
      </trkpt>
      <trkpt lat="46.297608967870474" lon="8.240310531109572">
        <ele>2263.0799999999999</ele>
        <time>2019-01-15T10:41:01Z</time>
      </trkpt>
      <trkpt lat="46.297573177143931" lon="8.240320421755314">
        <ele>2266.4499999999998</ele>
        <time>2019-01-15T10:41:09Z</time>
      </trkpt>
      <trkpt lat="46.29753009416163" lon="8.240342382341623">
        <ele>2267.8899999999999</ele>
        <time>2019-01-15T10:41:18Z</time>
      </trkpt>
      <trkpt lat="46.297506960108876" lon="8.240335509181023">
        <ele>2267.8899999999999</ele>
        <time>2019-01-15T10:41:22Z</time>
      </trkpt>
      <trkpt lat="46.297431942075491" lon="8.240344226360321">
        <ele>2270.29</ele>
        <time>2019-01-15T10:41:34Z</time>
      </trkpt>
      <trkpt lat="46.297354409471154" lon="8.240377334877849">
        <ele>2270.29</ele>
        <time>2019-01-15T10:41:46Z</time>
      </trkpt>
      <trkpt lat="46.297290707007051" lon="8.240355290472508">
        <ele>2270.77</ele>
        <time>2019-01-15T10:41:56Z</time>
      </trkpt>
      <trkpt lat="46.29724963568151" lon="8.240347830578685">
        <ele>2273.1700000000001</ele>
        <time>2019-01-15T10:42:05Z</time>
      </trkpt>
      <trkpt lat="46.297208396717906" lon="8.240342885255814">
        <ele>2275.0999999999999</ele>
        <time>2019-01-15T10:42:15Z</time>
      </trkpt>
      <trkpt lat="46.297160536050797" lon="8.240309776738286">
        <ele>2277.02</ele>
        <time>2019-01-15T10:42:26Z</time>
      </trkpt>
      <trkpt lat="46.297135138884187" lon="8.240265268832445">
        <ele>2277.98</ele>
        <time>2019-01-15T10:42:38Z</time>
      </trkpt>
      <trkpt lat="46.297105215489864" lon="8.240220174193382">
        <ele>2278.46</ele>
        <time>2019-01-15T10:42:50Z</time>
      </trkpt>
      <trkpt lat="46.297097001224756" lon="8.240127805620432">
        <ele>2277.98</ele>
        <time>2019-01-15T10:43:00Z</time>
      </trkpt>
      <trkpt lat="46.297095492482185" lon="8.24005932547152">
        <ele>2278.9400000000001</ele>
        <time>2019-01-15T10:43:07Z</time>
      </trkpt>
      <trkpt lat="46.29708543419838" lon="8.23998648673296">
        <ele>2278.9400000000001</ele>
        <time>2019-01-15T10:43:18Z</time>
      </trkpt>
      <trkpt lat="46.297072106972337" lon="8.23990685865283">
        <ele>2280.3800000000001</ele>
        <time>2019-01-15T10:43:27Z</time>
      </trkpt>
      <trkpt lat="46.297048889100552" lon="8.239810299128294">
        <ele>2280.8699999999999</ele>
        <time>2019-01-15T10:43:40Z</time>
      </trkpt>
      <trkpt lat="46.29702826961875" lon="8.239707536995411">
        <ele>2280.8699999999999</ele>
        <time>2019-01-15T10:43:52Z</time>
      </trkpt>
      <trkpt lat="46.297009326517582" lon="8.239617347717285">
        <ele>2283.27</ele>
        <time>2019-01-15T10:44:05Z</time>
      </trkpt>
      <trkpt lat="46.296993065625429" lon="8.239553729072213">
        <ele>2285.6700000000001</ele>
        <time>2019-01-15T10:44:15Z</time>
      </trkpt>
      <trkpt lat="46.296951491385698" lon="8.239476615563035">
        <ele>2287.1100000000001</ele>
        <time>2019-01-15T10:44:28Z</time>
      </trkpt>
      <trkpt lat="46.29693103954196" lon="8.23941869661212">
        <ele>2290.48</ele>
        <time>2019-01-15T10:44:38Z</time>
      </trkpt>
      <trkpt lat="46.29686800763011" lon="8.239360861480236">
        <ele>2291.9200000000001</ele>
        <time>2019-01-15T10:44:52Z</time>
      </trkpt>
      <trkpt lat="46.296831211075187" lon="8.239317024126649">
        <ele>2293.8400000000001</ele>
        <time>2019-01-15T10:45:03Z</time>
      </trkpt>
      <trkpt lat="46.296773375943303" lon="8.239264972507954">
        <ele>2293.8400000000001</ele>
        <time>2019-01-15T10:45:17Z</time>
      </trkpt>
      <trkpt lat="46.296747727319598" lon="8.239218452945352">
        <ele>2296.73</ele>
        <time>2019-01-15T10:45:27Z</time>
      </trkpt>
      <trkpt lat="46.296690814197063" lon="8.239183332771063">
        <ele>2298.1700000000001</ele>
        <time>2019-01-15T10:45:37Z</time>
      </trkpt>
      <trkpt lat="46.296629877761006" lon="8.239165395498276">
        <ele>2301.0500000000002</ele>
        <time>2019-01-15T10:45:51Z</time>
      </trkpt>
      <trkpt lat="46.296585788950324" lon="8.239127676934004">
        <ele>2304.4200000000001</ele>
        <time>2019-01-15T10:45:59Z</time>
      </trkpt>
      <trkpt lat="46.296541951596737" lon="8.239085013046861">
        <ele>2306.8200000000002</ele>
        <time>2019-01-15T10:46:07Z</time>
      </trkpt>
      <trkpt lat="46.296486128121614" lon="8.23904444463551">
        <ele>2306.8200000000002</ele>
        <time>2019-01-15T10:46:16Z</time>
      </trkpt>
      <trkpt lat="46.29645905457437" lon="8.239021394401789">
        <ele>2307.3000000000002</ele>
        <time>2019-01-15T10:46:20Z</time>
      </trkpt>
      <trkpt lat="46.29639744758606" lon="8.238960541784763">
        <ele>2308.7399999999998</ele>
        <time>2019-01-15T10:46:31Z</time>
      </trkpt>
      <trkpt lat="46.296327458694577" lon="8.238888373598456">
        <ele>2309.6999999999998</ele>
        <time>2019-01-15T10:46:43Z</time>
      </trkpt>
      <trkpt lat="46.296283788979053" lon="8.23888803832233">
        <ele>2310.1900000000001</ele>
        <time>2019-01-15T10:46:51Z</time>
      </trkpt>
      <trkpt lat="46.296274149790406" lon="8.238892229273915">
        <ele>2310.1900000000001</ele>
        <time>2019-01-15T10:46:52Z</time>
      </trkpt>
      <trkpt lat="46.296193348243833" lon="8.238868340849876">
        <ele>2313.0700000000002</ele>
        <time>2019-01-15T10:47:04Z</time>
      </trkpt>
      <trkpt lat="46.296106679365039" lon="8.238853337243199">
        <ele>2313.5500000000002</ele>
        <time>2019-01-15T10:47:14Z</time>
      </trkpt>
      <trkpt lat="46.296037444844842" lon="8.238811595365405">
        <ele>2314.5100000000002</ele>
        <time>2019-01-15T10:47:24Z</time>
      </trkpt>
      <trkpt lat="46.295997798442841" lon="8.238741019740701">
        <ele>2315.4699999999998</ele>
        <time>2019-01-15T10:47:32Z</time>
      </trkpt>
      <trkpt lat="46.295921355485916" lon="8.238672120496631">
        <ele>2315.9499999999998</ele>
        <time>2019-01-15T10:47:43Z</time>
      </trkpt>
      <trkpt lat="46.295852120965719" lon="8.238614872097969">
        <ele>2317.4000000000001</ele>
        <time>2019-01-15T10:47:54Z</time>
      </trkpt>
      <trkpt lat="46.29581113345921" lon="8.238572543486953">
        <ele>2318.3600000000001</ele>
        <time>2019-01-15T10:48:01Z</time>
      </trkpt>
      <trkpt lat="46.295764110982418" lon="8.238543123006821">
        <ele>2320.2800000000002</ele>
        <time>2019-01-15T10:48:07Z</time>
      </trkpt>
      <trkpt lat="46.295747347176075" lon="8.238531891256571">
        <ele>2319.8000000000002</ele>
        <time>2019-01-15T10:48:10Z</time>
      </trkpt>
      <trkpt lat="46.295681884512305" lon="8.238442037254572">
        <ele>2322.1999999999998</ele>
        <time>2019-01-15T10:48:22Z</time>
      </trkpt>
      <trkpt lat="46.295640980824828" lon="8.238359056413174">
        <ele>2324.1199999999999</ele>
        <time>2019-01-15T10:48:32Z</time>
      </trkpt>
      <trkpt lat="46.295584570616484" lon="8.238268448039889">
        <ele>2324.1199999999999</ele>
        <time>2019-01-15T10:48:43Z</time>
      </trkpt>
      <trkpt lat="46.29553503356874" lon="8.238226873800159">
        <ele>2325.5700000000002</ele>
        <time>2019-01-15T10:48:52Z</time>
      </trkpt>
      <trkpt lat="46.295486502349377" lon="8.238147664815188">
        <ele>2327.0100000000002</ele>
        <time>2019-01-15T10:49:02Z</time>
      </trkpt>
      <trkpt lat="46.295468313619494" lon="8.238084800541401">
        <ele>2327.0100000000002</ele>
        <time>2019-01-15T10:49:08Z</time>
      </trkpt>
      <trkpt lat="46.295445011928678" lon="8.237964604049921">
        <ele>2327.9699999999998</ele>
        <time>2019-01-15T10:49:19Z</time>
      </trkpt>
      <trkpt lat="46.29539136774838" lon="8.237873911857605">
        <ele>2327.4899999999998</ele>
        <time>2019-01-15T10:49:29Z</time>
      </trkpt>
      <trkpt lat="46.295334370806813" lon="8.237787410616875">
        <ele>2328.4499999999998</ele>
        <time>2019-01-15T10:49:39Z</time>
      </trkpt>
      <trkpt lat="46.295278631150723" lon="8.237698143348098">
        <ele>2330.3699999999999</ele>
        <time>2019-01-15T10:49:50Z</time>
      </trkpt>
      <trkpt lat="46.295219622552395" lon="8.237600410357118">
        <ele>2331.3299999999999</ele>
        <time>2019-01-15T10:50:01Z</time>
      </trkpt>
      <trkpt lat="46.295156590640545" lon="8.23750477284193">
        <ele>2332.3000000000002</ele>
        <time>2019-01-15T10:50:12Z</time>
      </trkpt>
      <trkpt lat="46.295104958117008" lon="8.23741877451539">
        <ele>2333.2600000000002</ele>
        <time>2019-01-15T10:50:22Z</time>
      </trkpt>
      <trkpt lat="46.295104036107659" lon="8.237387677654624">
        <ele>2333.7399999999998</ele>
        <time>2019-01-15T10:50:30Z</time>
      </trkpt>
      <trkpt lat="46.295109903439879" lon="8.237409219145775">
        <ele>2334.6999999999998</ele>
        <time>2019-01-15T10:50:38Z</time>
      </trkpt>
      <trkpt lat="46.295115519315004" lon="8.237393796443939">
        <ele>2333.7399999999998</ele>
        <time>2019-01-15T10:50:52Z</time>
      </trkpt>
      <trkpt lat="46.295108813792467" lon="8.237365717068315">
        <ele>2333.7399999999998</ele>
        <time>2019-01-15T10:51:01Z</time>
      </trkpt>
      <trkpt lat="46.295102695003152" lon="8.237385665997863">
        <ele>2334.2199999999998</ele>
        <time>2019-01-15T10:51:11Z</time>
      </trkpt>
      <trkpt lat="46.295104706659913" lon="8.23739723302424">
        <ele>2334.6999999999998</ele>
        <time>2019-01-15T10:51:28Z</time>
      </trkpt>
      <trkpt lat="46.295117363333702" lon="8.237393377348781">
        <ele>2333.2600000000002</ele>
        <time>2019-01-15T10:51:44Z</time>
      </trkpt>
      <trkpt lat="46.295116608962417" lon="8.237384157255292">
        <ele>2333.7399999999998</ele>
        <time>2019-01-15T10:51:58Z</time>
      </trkpt>
      <trkpt lat="46.295120967552066" lon="8.2373958081007">
        <ele>2332.7800000000002</ele>
        <time>2019-01-15T10:52:10Z</time>
      </trkpt>
      <trkpt lat="46.295100515708327" lon="8.237383821979165">
        <ele>2332.7800000000002</ele>
        <time>2019-01-15T10:52:13Z</time>
      </trkpt>
      <trkpt lat="46.295048883184791" lon="8.237385917454958">
        <ele>2332.7800000000002</ele>
        <time>2019-01-15T10:52:18Z</time>
      </trkpt>
      <trkpt lat="46.295032119378448" lon="8.237377954646945">
        <ele>2332.7800000000002</ele>
        <time>2019-01-15T10:52:27Z</time>
      </trkpt>
      <trkpt lat="46.295033125206828" lon="8.237386588007212">
        <ele>2331.8099999999999</ele>
        <time>2019-01-15T10:52:37Z</time>
      </trkpt>
      <trkpt lat="46.29503857344389" lon="8.237376362085342">
        <ele>2330.8499999999999</ele>
        <time>2019-01-15T10:52:53Z</time>
      </trkpt>
      <trkpt lat="46.295057432726026" lon="8.237373931333423">
        <ele>2331.8099999999999</ele>
        <time>2019-01-15T10:52:58Z</time>
      </trkpt>
      <trkpt lat="46.29507863894105" lon="8.237392287701368">
        <ele>2332.3000000000002</ele>
        <time>2019-01-15T10:53:06Z</time>
      </trkpt>
      <trkpt lat="46.295078974217176" lon="8.237396562471986">
        <ele>2332.3000000000002</ele>
        <time>2019-01-15T10:53:07Z</time>
      </trkpt>
      <trkpt lat="46.295077884569764" lon="8.237415421754122">
        <ele>2332.7800000000002</ele>
        <time>2019-01-15T10:53:16Z</time>
      </trkpt>
      <trkpt lat="46.295078471302986" lon="8.237396897748113">
        <ele>2331.8099999999999</ele>
        <time>2019-01-15T10:53:25Z</time>
      </trkpt>
      <trkpt lat="46.295087775215507" lon="8.237377116456628">
        <ele>2333.2600000000002</ele>
        <time>2019-01-15T10:53:32Z</time>
      </trkpt>
      <trkpt lat="46.295087523758411" lon="8.237367058172822">
        <ele>2334.2199999999998</ele>
        <time>2019-01-15T10:53:41Z</time>
      </trkpt>
      <trkpt lat="46.295077046379447" lon="8.237381055951119">
        <ele>2332.3000000000002</ele>
        <time>2019-01-15T10:53:54Z</time>
      </trkpt>
      <trkpt lat="46.295079393312335" lon="8.237384324893355">
        <ele>2330.3699999999999</ele>
        <time>2019-01-15T10:53:57Z</time>
      </trkpt>
      <trkpt lat="46.295080063864589" lon="8.237395556643605">
        <ele>2332.3000000000002</ele>
        <time>2019-01-15T10:54:16Z</time>
      </trkpt>
      <trkpt lat="46.295069754123688" lon="8.237395137548447">
        <ele>2331.8099999999999</ele>
        <time>2019-01-15T10:54:57Z</time>
      </trkpt>
      <trkpt lat="46.295060869306326" lon="8.23739530518651">
        <ele>2332.7800000000002</ele>
        <time>2019-01-15T10:55:33Z</time>
      </trkpt>
      <trkpt lat="46.295069921761751" lon="8.237398322671652">
        <ele>2332.3000000000002</ele>
        <time>2019-01-15T10:56:07Z</time>
      </trkpt>
      <trkpt lat="46.295065395534039" lon="8.237399663776159">
        <ele>2332.7800000000002</ele>
        <time>2019-01-15T10:56:42Z</time>
      </trkpt>
      <trkpt lat="46.295068748295307" lon="8.237395137548447">
        <ele>2332.7800000000002</ele>
        <time>2019-01-15T10:57:21Z</time>
      </trkpt>
      <trkpt lat="46.295069754123688" lon="8.237400082871318">
        <ele>2332.7800000000002</ele>
        <time>2019-01-15T10:57:55Z</time>
      </trkpt>
      <trkpt lat="46.295073106884956" lon="8.237393964082003">
        <ele>2332.3000000000002</ele>
        <time>2019-01-15T10:58:33Z</time>
      </trkpt>
      <trkpt lat="46.29506547935307" lon="8.237401340156794">
        <ele>2332.7800000000002</ele>
        <time>2019-01-15T10:59:10Z</time>
      </trkpt>
      <trkpt lat="46.295063886791468" lon="8.237397819757462">
        <ele>2334.2199999999998</ele>
        <time>2019-01-15T10:59:40Z</time>
      </trkpt>
      <trkpt lat="46.295061875134706" lon="8.237398657947779">
        <ele>2332.7800000000002</ele>
        <time>2019-01-15T11:00:18Z</time>
      </trkpt>
      <trkpt lat="46.295067742466927" lon="8.23739429935813">
        <ele>2332.3000000000002</ele>
        <time>2019-01-15T11:01:03Z</time>
      </trkpt>
      <trkpt lat="46.29506204277277" lon="8.237394215539098">
        <ele>2332.3000000000002</ele>
        <time>2019-01-15T11:01:38Z</time>
      </trkpt>
      <trkpt lat="46.295068329200149" lon="8.237395891919732">
        <ele>2332.7800000000002</ele>
        <time>2019-01-15T11:02:22Z</time>
      </trkpt>
      <trkpt lat="46.295069502666593" lon="8.237399496138096">
        <ele>2332.3000000000002</ele>
        <time>2019-01-15T11:02:26Z</time>
      </trkpt>
      <trkpt lat="46.295087104663253" lon="8.237380888313055">
        <ele>2333.7399999999998</ele>
        <time>2019-01-15T11:02:37Z</time>
      </trkpt>
      <trkpt lat="46.295093391090631" lon="8.237393712624908">
        <ele>2332.7800000000002</ele>
        <time>2019-01-15T11:02:50Z</time>
      </trkpt>
      <trkpt lat="46.295093977823853" lon="8.237394383177161">
        <ele>2332.7800000000002</ele>
        <time>2019-01-15T11:03:10Z</time>
      </trkpt>
      <trkpt lat="46.295095821842551" lon="8.237386923283339">
        <ele>2333.2600000000002</ele>
        <time>2019-01-15T11:03:41Z</time>
      </trkpt>
      <trkpt lat="46.295092385262251" lon="8.237394550815225">
        <ele>2333.7399999999998</ele>
        <time>2019-01-15T11:04:17Z</time>
      </trkpt>
      <trkpt lat="46.295092971995473" lon="8.237395556643605">
        <ele>2332.3000000000002</ele>
        <time>2019-01-15T11:04:56Z</time>
      </trkpt>
      <trkpt lat="46.295024240389466" lon="8.237371249124408">
        <ele>2332.3000000000002</ele>
        <time>2019-01-15T11:05:07Z</time>
      </trkpt>
      <trkpt lat="46.29501661285758" lon="8.237373093143106">
        <ele>2332.7800000000002</ele>
        <time>2019-01-15T11:05:15Z</time>
      </trkpt>
      <trkpt lat="46.29501418210566" lon="8.237382564693689">
        <ele>2332.7800000000002</ele>
        <time>2019-01-15T11:05:47Z</time>
      </trkpt>
      <trkpt lat="46.295016026124358" lon="8.237385665997863">
        <ele>2331.8099999999999</ele>
        <time>2019-01-15T11:06:06Z</time>
      </trkpt>
      <trkpt lat="46.295024994760752" lon="8.237375188618898">
        <ele>2331.3299999999999</ele>
        <time>2019-01-15T11:06:41Z</time>
      </trkpt>
      <trkpt lat="46.295022228732705" lon="8.237377787008882">
        <ele>2330.8499999999999</ele>
        <time>2019-01-15T11:07:10Z</time>
      </trkpt>
      <trkpt lat="46.295015104115009" lon="8.237382480874658">
        <ele>2331.8099999999999</ele>
        <time>2019-01-15T11:07:37Z</time>
      </trkpt>
      <trkpt lat="46.295016445219517" lon="8.237372674047947">
        <ele>2331.8099999999999</ele>
        <time>2019-01-15T11:08:13Z</time>
      </trkpt>
      <trkpt lat="46.295024324208498" lon="8.237376864999533">
        <ele>2330.8499999999999</ele>
        <time>2019-01-15T11:08:43Z</time>
      </trkpt>
      <trkpt lat="46.295025078579783" lon="8.237370746210218">
        <ele>2330.8499999999999</ele>
        <time>2019-01-15T11:09:03Z</time>
      </trkpt>
      <trkpt lat="46.295019714161754" lon="8.237361023202539">
        <ele>2331.3299999999999</ele>
        <time>2019-01-15T11:09:22Z</time>
      </trkpt>
      <trkpt lat="46.295015187934041" lon="8.237368399277329">
        <ele>2332.7800000000002</ele>
        <time>2019-01-15T11:09:47Z</time>
      </trkpt>
      <trkpt lat="46.295004040002823" lon="8.23736596852541">
        <ele>2334.2199999999998</ele>
        <time>2019-01-15T11:10:21Z</time>
      </trkpt>
      <trkpt lat="46.29500244744122" lon="8.237362951040268">
        <ele>2335.1799999999998</ele>
        <time>2019-01-15T11:10:42Z</time>
      </trkpt>
      <trkpt lat="46.294995406642556" lon="8.237351132556796">
        <ele>2337.0999999999999</ele>
        <time>2019-01-15T11:11:13Z</time>
      </trkpt>
      <trkpt lat="46.295004123821855" lon="8.237341409549117">
        <ele>2334.2199999999998</ele>
        <time>2019-01-15T11:11:50Z</time>
      </trkpt>
      <trkpt lat="46.295011583715677" lon="8.237354652956128">
        <ele>2334.6999999999998</ele>
        <time>2019-01-15T11:12:30Z</time>
      </trkpt>
      <trkpt lat="46.295017534866929" lon="8.237362112849951">
        <ele>2333.7399999999998</ele>
        <time>2019-01-15T11:13:10Z</time>
      </trkpt>
      <trkpt lat="46.29501367919147" lon="8.237360855564475">
        <ele>2334.6999999999998</ele>
        <time>2019-01-15T11:13:19Z</time>
      </trkpt>
      <trkpt lat="46.295017534866929" lon="8.23732690885663">
        <ele>2336.6199999999999</ele>
        <time>2019-01-15T11:13:30Z</time>
      </trkpt>
      <trkpt lat="46.295014936476946" lon="8.237311653792858">
        <ele>2337.0999999999999</ele>
        <time>2019-01-15T11:13:43Z</time>
      </trkpt>
      <trkpt lat="46.295013595372438" lon="8.237338308244944">
        <ele>2337.0999999999999</ele>
        <time>2019-01-15T11:14:01Z</time>
      </trkpt>
      <trkpt lat="46.295015942305326" lon="8.237324813380837">
        <ele>2337.0999999999999</ele>
        <time>2019-01-15T11:14:16Z</time>
      </trkpt>
      <trkpt lat="46.29501124843955" lon="8.23733470402658">
        <ele>2337.0999999999999</ele>
        <time>2019-01-15T11:14:24Z</time>
      </trkpt>
      <trkpt lat="46.295009488239884" lon="8.237335793673992">
        <ele>2337.0999999999999</ele>
        <time>2019-01-15T11:14:39Z</time>
      </trkpt>
      <trkpt lat="46.295026503503323" lon="8.237353814765811">
        <ele>2337.5799999999999</ele>
        <time>2019-01-15T11:14:55Z</time>
      </trkpt>
      <trkpt lat="46.295038405805826" lon="8.237375104799867">
        <ele>2337.5799999999999</ele>
        <time>2019-01-15T11:14:57Z</time>
      </trkpt>
      <trkpt lat="46.295096660032868" lon="8.237450961023569">
        <ele>2337.0999999999999</ele>
        <time>2019-01-15T11:15:08Z</time>
      </trkpt>
      <trkpt lat="46.295088529586792" lon="8.237419780343771">
        <ele>2336.6199999999999</ele>
        <time>2019-01-15T11:15:20Z</time>
      </trkpt>
      <trkpt lat="46.295055504888296" lon="8.237343253567815">
        <ele>2336.6199999999999</ele>
        <time>2019-01-15T11:15:30Z</time>
      </trkpt>
      <trkpt lat="46.295056510716677" lon="8.237322801724076">
        <ele>2337.0999999999999</ele>
        <time>2019-01-15T11:15:38Z</time>
      </trkpt>
      <trkpt lat="46.295056007802486" lon="8.237326657399535">
        <ele>2338.54</ele>
        <time>2019-01-15T11:15:50Z</time>
      </trkpt>
      <trkpt lat="46.295073023065925" lon="8.237303774803877">
        <ele>2338.54</ele>
        <time>2019-01-15T11:16:03Z</time>
      </trkpt>
      <trkpt lat="46.295130187645555" lon="8.237272091209889">
        <ele>2338.54</ele>
        <time>2019-01-15T11:16:14Z</time>
      </trkpt>
      <trkpt lat="46.295119794085622" lon="8.237296734005213">
        <ele>2338.54</ele>
        <time>2019-01-15T11:16:32Z</time>
      </trkpt>
      <trkpt lat="46.295121554285288" lon="8.237312994897366">
        <ele>2339.5100000000002</ele>
        <time>2019-01-15T11:16:53Z</time>
      </trkpt>
      <trkpt lat="46.295114262029529" lon="8.237313581630588">
        <ele>2339.02</ele>
        <time>2019-01-15T11:17:02Z</time>
      </trkpt>
      <trkpt lat="46.295065982267261" lon="8.237350964918733">
        <ele>2338.54</ele>
        <time>2019-01-15T11:17:08Z</time>
      </trkpt>
      <trkpt lat="46.295072771608829" lon="8.237413829192519">
        <ele>2338.54</ele>
        <time>2019-01-15T11:17:18Z</time>
      </trkpt>
      <trkpt lat="46.295086517930031" lon="8.237424055114389">
        <ele>2338.54</ele>
        <time>2019-01-15T11:17:20Z</time>
      </trkpt>
      <trkpt lat="46.295154495164752" lon="8.237527823075652">
        <ele>2337.5799999999999</ele>
        <time>2019-01-15T11:17:31Z</time>
      </trkpt>
      <trkpt lat="46.295231943950057" lon="8.237648438662291">
        <ele>2336.1399999999999</ele>
        <time>2019-01-15T11:17:41Z</time>
      </trkpt>
      <trkpt lat="46.29534057341516" lon="8.23775832541287">
        <ele>2334.6999999999998</ele>
        <time>2019-01-15T11:17:52Z</time>
      </trkpt>
      <trkpt lat="46.295415926724672" lon="8.237878102809191">
        <ele>2333.2600000000002</ele>
        <time>2019-01-15T11:18:02Z</time>
      </trkpt>
      <trkpt lat="46.295455321669579" lon="8.237923197448254">
        <ele>2332.7800000000002</ele>
        <time>2019-01-15T11:18:06Z</time>
      </trkpt>
      <trkpt lat="46.295514414086938" lon="8.237956641241908">
        <ele>2332.3000000000002</ele>
        <time>2019-01-15T11:18:12Z</time>
      </trkpt>
      <trkpt lat="46.295620948076248" lon="8.237998047843576">
        <ele>2330.3699999999999</ele>
        <time>2019-01-15T11:18:21Z</time>
      </trkpt>
      <trkpt lat="46.29567576572299" lon="8.238036353141069">
        <ele>2328.9299999999998</ele>
        <time>2019-01-15T11:18:26Z</time>
      </trkpt>
      <trkpt lat="46.295794956386089" lon="8.238076837733388">
        <ele>2326.5300000000002</ele>
        <time>2019-01-15T11:18:35Z</time>
      </trkpt>
      <trkpt lat="46.295893862843513" lon="8.238159734755755">
        <ele>2324.1199999999999</ele>
        <time>2019-01-15T11:18:43Z</time>
      </trkpt>
      <trkpt lat="46.296004503965378" lon="8.238279260694981">
        <ele>2321.2399999999998</ele>
        <time>2019-01-15T11:18:54Z</time>
      </trkpt>
      <trkpt lat="46.296053538098931" lon="8.238368192687631">
        <ele>2319.8000000000002</ele>
        <time>2019-01-15T11:19:00Z</time>
      </trkpt>
      <trkpt lat="46.296172980219126" lon="8.238563910126686">
        <ele>2316.9099999999999</ele>
        <time>2019-01-15T11:19:13Z</time>
      </trkpt>
      <trkpt lat="46.296236263588071" lon="8.238688297569752">
        <ele>2315.4699999999998</ele>
        <time>2019-01-15T11:19:22Z</time>
      </trkpt>
      <trkpt lat="46.296324608847499" lon="8.238785695284605">
        <ele>2313.5500000000002</ele>
        <time>2019-01-15T11:19:31Z</time>
      </trkpt>
      <trkpt lat="46.296374648809433" lon="8.238876722753048">
        <ele>2312.5900000000001</ele>
        <time>2019-01-15T11:19:37Z</time>
      </trkpt>
      <trkpt lat="46.296488475054502" lon="8.239029860123992">
        <ele>2309.2199999999998</ele>
        <time>2019-01-15T11:19:49Z</time>
      </trkpt>
      <trkpt lat="46.296664495021105" lon="8.239114349707961">
        <ele>2306.3400000000001</ele>
        <time>2019-01-15T11:20:04Z</time>
      </trkpt>
      <trkpt lat="46.296753343194723" lon="8.239101190119982">
        <ele>2302.98</ele>
        <time>2019-01-15T11:20:12Z</time>
      </trkpt>
      <trkpt lat="46.296835066750646" lon="8.239026172086597">
        <ele>2300.0900000000001</ele>
        <time>2019-01-15T11:20:21Z</time>
      </trkpt>
      <trkpt lat="46.296860715374351" lon="8.238999182358384">
        <ele>2299.1300000000001</ele>
        <time>2019-01-15T11:20:24Z</time>
      </trkpt>
      <trkpt lat="46.296923495829105" lon="8.238944783806801">
        <ele>2297.21</ele>
        <time>2019-01-15T11:20:32Z</time>
      </trkpt>
      <trkpt lat="46.296958113089204" lon="8.23898577131331">
        <ele>2295.2800000000002</ele>
        <time>2019-01-15T11:20:35Z</time>
      </trkpt>
      <trkpt lat="46.297042686492205" lon="8.239061962813139">
        <ele>2291.9200000000001</ele>
        <time>2019-01-15T11:20:44Z</time>
      </trkpt>
      <trkpt lat="46.297112423926592" lon="8.239184422418475">
        <ele>2289.52</ele>
        <time>2019-01-15T11:20:54Z</time>
      </trkpt>
      <trkpt lat="46.297137066721916" lon="8.239219039678574">
        <ele>2288.0799999999999</ele>
        <time>2019-01-15T11:20:57Z</time>
      </trkpt>
      <trkpt lat="46.297192303463817" lon="8.239267906174064">
        <ele>2286.6300000000001</ele>
        <time>2019-01-15T11:21:03Z</time>
      </trkpt>
      <trkpt lat="46.29726673476398" lon="8.239331273362041">
        <ele>2283.27</ele>
        <time>2019-01-15T11:21:10Z</time>
      </trkpt>
      <trkpt lat="46.297308728098869" lon="8.239429173991084">
        <ele>2281.3499999999999</ele>
        <time>2019-01-15T11:21:16Z</time>
      </trkpt>
      <trkpt lat="46.297371173277497" lon="8.239563871175051">
        <ele>2277.98</ele>
        <time>2019-01-15T11:21:27Z</time>
      </trkpt>
      <trkpt lat="46.297391373664141" lon="8.239565128460527">
        <ele>2277.02</ele>
        <time>2019-01-15T11:21:29Z</time>
      </trkpt>
      <trkpt lat="46.297450885176659" lon="8.239615755155683">
        <ele>2275.0999999999999</ele>
        <time>2019-01-15T11:21:35Z</time>
      </trkpt>
      <trkpt lat="46.297528250142932" lon="8.239723462611437">
        <ele>2272.21</ele>
        <time>2019-01-15T11:21:44Z</time>
      </trkpt>
      <trkpt lat="46.297556245699525" lon="8.239800073206425">
        <ele>2270.77</ele>
        <time>2019-01-15T11:21:49Z</time>
      </trkpt>
      <trkpt lat="46.297625564038754" lon="8.239901158958674">
        <ele>2268.8499999999999</ele>
        <time>2019-01-15T11:21:59Z</time>
      </trkpt>
      <trkpt lat="46.297662360593677" lon="8.239918174222112">
        <ele>2266.9299999999998</ele>
        <time>2019-01-15T11:22:03Z</time>
      </trkpt>
      <trkpt lat="46.297695888206363" lon="8.239970477297902">
        <ele>2265.96</ele>
        <time>2019-01-15T11:22:07Z</time>
      </trkpt>
      <trkpt lat="46.297732014209032" lon="8.240007944405079">
        <ele>2264.04</ele>
        <time>2019-01-15T11:22:11Z</time>
      </trkpt>
      <trkpt lat="46.297762608155608" lon="8.240030407905579">
        <ele>2262.5999999999999</ele>
        <time>2019-01-15T11:22:14Z</time>
      </trkpt>
      <trkpt lat="46.297783395275474" lon="8.240054212510586">
        <ele>2261.6399999999999</ele>
        <time>2019-01-15T11:22:16Z</time>
      </trkpt>
      <trkpt lat="46.297843912616372" lon="8.240085728466511">
        <ele>2259.7199999999998</ele>
        <time>2019-01-15T11:22:22Z</time>
      </trkpt>
      <trkpt lat="46.297865621745586" lon="8.24009545147419">
        <ele>2258.75</ele>
        <time>2019-01-15T11:22:24Z</time>
      </trkpt>
      <trkpt lat="46.297930749133229" lon="8.240091428160667">
        <ele>2256.3499999999999</ele>
        <time>2019-01-15T11:22:30Z</time>
      </trkpt>
      <trkpt lat="46.298046503216028" lon="8.240077933296561">
        <ele>2253.4699999999998</ele>
        <time>2019-01-15T11:22:40Z</time>
      </trkpt>
      <trkpt lat="46.298137446865439" lon="8.240086399018765">
        <ele>2250.0999999999999</ele>
        <time>2019-01-15T11:22:50Z</time>
      </trkpt>
      <trkpt lat="46.298198802396655" lon="8.240043064579368">
        <ele>2248.1799999999998</ele>
        <time>2019-01-15T11:23:00Z</time>
      </trkpt>
      <trkpt lat="46.298208273947239" lon="8.240041304379702">
        <ele>2247.2199999999998</ele>
        <time>2019-01-15T11:23:03Z</time>
      </trkpt>
      <trkpt lat="46.298214141279459" lon="8.240040298551321">
        <ele>2246.7399999999998</ele>
        <time>2019-01-15T11:23:04Z</time>
      </trkpt>
      <trkpt lat="46.298321932554245" lon="8.239966034889221">
        <ele>2245.3000000000002</ele>
        <time>2019-01-15T11:23:16Z</time>
      </trkpt>
      <trkpt lat="46.298399213701487" lon="8.239836618304253">
        <ele>2243.3699999999999</ele>
        <time>2019-01-15T11:23:27Z</time>
      </trkpt>
      <trkpt lat="46.29842578433454" lon="8.239787332713604">
        <ele>2241.9299999999998</ele>
        <time>2019-01-15T11:23:32Z</time>
      </trkpt>
      <trkpt lat="46.298490157350898" lon="8.239746261388063">
        <ele>2240.0100000000002</ele>
        <time>2019-01-15T11:23:40Z</time>
      </trkpt>
      <trkpt lat="46.298515638336539" lon="8.239727150648832">
        <ele>2239.0500000000002</ele>
        <time>2019-01-15T11:23:43Z</time>
      </trkpt>
      <trkpt lat="46.298569953069091" lon="8.239741735160351">
        <ele>2236.1599999999999</ele>
        <time>2019-01-15T11:23:48Z</time>
      </trkpt>
      <trkpt lat="46.298684868961573" lon="8.239759085699916">
        <ele>2233.2800000000002</ele>
        <time>2019-01-15T11:23:59Z</time>
      </trkpt>
      <trkpt lat="46.298780255019665" lon="8.239806024357677">
        <ele>2231.3600000000001</ele>
        <time>2019-01-15T11:24:08Z</time>
      </trkpt>
      <trkpt lat="46.298777237534523" lon="8.239831086248159">
        <ele>2230.8800000000001</ele>
        <time>2019-01-15T11:24:16Z</time>
      </trkpt>
      <trkpt lat="46.298779165372252" lon="8.239862518385053">
        <ele>2231.8400000000001</ele>
        <time>2019-01-15T11:24:29Z</time>
      </trkpt>
      <trkpt lat="46.298779500648379" lon="8.239867966622114">
        <ele>2231.3600000000001</ele>
        <time>2019-01-15T11:24:30Z</time>
      </trkpt>
      <trkpt lat="46.298796935006976" lon="8.239913061261177">
        <ele>2230.8800000000001</ele>
        <time>2019-01-15T11:24:34Z</time>
      </trkpt>
      <trkpt lat="46.298824762925506" lon="8.239990761503577">
        <ele>2230.4000000000001</ele>
        <time>2019-01-15T11:24:41Z</time>
      </trkpt>
      <trkpt lat="46.298878910019994" lon="8.240146832540631">
        <ele>2229.9200000000001</ele>
        <time>2019-01-15T11:24:54Z</time>
      </trkpt>
      <trkpt lat="46.298927022144198" lon="8.240273147821426">
        <ele>2230.4000000000001</ele>
        <time>2019-01-15T11:25:04Z</time>
      </trkpt>
      <trkpt lat="46.298964573070407" lon="8.24040767736733">
        <ele>2229.9200000000001</ele>
        <time>2019-01-15T11:25:14Z</time>
      </trkpt>
      <trkpt lat="46.298982426524162" lon="8.240468529984355">
        <ele>2229.9200000000001</ele>
        <time>2019-01-15T11:25:19Z</time>
      </trkpt>
      <trkpt lat="46.298982677981257" lon="8.240515887737274">
        <ele>2230.4000000000001</ele>
        <time>2019-01-15T11:25:30Z</time>
      </trkpt>
      <trkpt lat="46.299013774842024" lon="8.240581769496203">
        <ele>2230.4000000000001</ele>
        <time>2019-01-15T11:25:39Z</time>
      </trkpt>
      <trkpt lat="46.299055684357882" lon="8.240704564377666">
        <ele>2229.9200000000001</ele>
        <time>2019-01-15T11:25:49Z</time>
      </trkpt>
      <trkpt lat="46.29909373819828" lon="8.240825850516558">
        <ele>2230.4000000000001</ele>
        <time>2019-01-15T11:26:00Z</time>
      </trkpt>
      <trkpt lat="46.299119554460049" lon="8.240938000380993">
        <ele>2231.3600000000001</ele>
        <time>2019-01-15T11:26:10Z</time>
      </trkpt>
      <trkpt lat="46.299123745411634" lon="8.240951914340258">
        <ele>2231.3600000000001</ele>
        <time>2019-01-15T11:26:11Z</time>
      </trkpt>
      <trkpt lat="46.299151070415974" lon="8.241054257377982">
        <ele>2229.9200000000001</ele>
        <time>2019-01-15T11:26:21Z</time>
      </trkpt>
      <trkpt lat="46.299163978546858" lon="8.24117872864008">
        <ele>2230.4000000000001</ele>
        <time>2019-01-15T11:26:31Z</time>
      </trkpt>
      <trkpt lat="46.299193985760212" lon="8.241278976202011">
        <ele>2230.4000000000001</ele>
        <time>2019-01-15T11:26:38Z</time>
      </trkpt>
      <trkpt lat="46.299246707931161" lon="8.241430521011353">
        <ele>2230.4000000000001</ele>
        <time>2019-01-15T11:26:50Z</time>
      </trkpt>
      <trkpt lat="46.29925743676722" lon="8.241483997553587">
        <ele>2229.9200000000001</ele>
        <time>2019-01-15T11:26:54Z</time>
      </trkpt>
      <trkpt lat="46.299278056249022" lon="8.241552896797657">
        <ele>2229.4299999999998</ele>
        <time>2019-01-15T11:26:59Z</time>
      </trkpt>
      <trkpt lat="46.299300938844681" lon="8.241689773276448">
        <ele>2227.5100000000002</ele>
        <time>2019-01-15T11:27:09Z</time>
      </trkpt>
      <trkpt lat="46.29932046867907" lon="8.241803431883454">
        <ele>2226.0700000000002</ele>
        <time>2019-01-15T11:27:18Z</time>
      </trkpt>
      <trkpt lat="46.299338238313794" lon="8.241871576756239">
        <ele>2225.5900000000001</ele>
        <time>2019-01-15T11:27:23Z</time>
      </trkpt>
      <trkpt lat="46.29938249476254" lon="8.242022199556232">
        <ele>2223.6700000000001</ele>
        <time>2019-01-15T11:27:35Z</time>
      </trkpt>
      <trkpt lat="46.299386015161872" lon="8.242038041353226">
        <ele>2223.6700000000001</ele>
        <time>2019-01-15T11:27:36Z</time>
      </trkpt>
      <trkpt lat="46.299412082880735" lon="8.242112556472421">
        <ele>2221.2600000000002</ele>
        <time>2019-01-15T11:27:47Z</time>
      </trkpt>
      <trkpt lat="46.299437647685409" lon="8.242168799042702">
        <ele>2220.7800000000002</ele>
        <time>2019-01-15T11:27:57Z</time>
      </trkpt>
      <trkpt lat="46.299489783123136" lon="8.242308273911476">
        <ele>2219.3400000000001</ele>
        <time>2019-01-15T11:28:08Z</time>
      </trkpt>
      <trkpt lat="46.299529513344169" lon="8.24238907545805">
        <ele>2218.3800000000001</ele>
        <time>2019-01-15T11:28:15Z</time>
      </trkpt>
      <trkpt lat="46.299596400931478" lon="8.242500722408295">
        <ele>2216.46</ele>
        <time>2019-01-15T11:28:25Z</time>
      </trkpt>
      <trkpt lat="46.299653146415949" lon="8.242537770420313">
        <ele>2215.5</ele>
        <time>2019-01-15T11:28:33Z</time>
      </trkpt>
      <trkpt lat="46.299789436161518" lon="8.242589151486754">
        <ele>2213.5700000000002</ele>
        <time>2019-01-15T11:28:45Z</time>
      </trkpt>
      <trkpt lat="46.299924636259675" lon="8.242659056559205">
        <ele>2210.6900000000001</ele>
        <time>2019-01-15T11:28:57Z</time>
      </trkpt>
      <trkpt lat="46.300048185512424" lon="8.242728039622307">
        <ele>2208.29</ele>
        <time>2019-01-15T11:29:07Z</time>
      </trkpt>
      <trkpt lat="46.300158658996224" lon="8.242808841168881">
        <ele>2204.9200000000001</ele>
        <time>2019-01-15T11:29:17Z</time>
      </trkpt>
      <trkpt lat="46.300261085852981" lon="8.242884026840329">
        <ele>2202.04</ele>
        <time>2019-01-15T11:29:26Z</time>
      </trkpt>
      <trkpt lat="46.300375582650304" lon="8.242965247482061">
        <ele>2198.6700000000001</ele>
        <time>2019-01-15T11:29:36Z</time>
      </trkpt>
      <trkpt lat="46.300387904047966" lon="8.242974048480392">
        <ele>2198.6700000000001</ele>
        <time>2019-01-15T11:29:37Z</time>
      </trkpt>
      <trkpt lat="46.300477255135775" lon="8.243046803399921">
        <ele>2197.23</ele>
        <time>2019-01-15T11:29:46Z</time>
      </trkpt>
      <trkpt lat="46.300577167421579" lon="8.243123162537813">
        <ele>2195.79</ele>
        <time>2019-01-15T11:29:56Z</time>
      </trkpt>
      <trkpt lat="46.300673810765147" lon="8.243229780346155">
        <ele>2193.8699999999999</ele>
        <time>2019-01-15T11:30:07Z</time>
      </trkpt>
      <trkpt lat="46.300716809928417" lon="8.243291722610593">
        <ele>2192.4200000000001</ele>
        <time>2019-01-15T11:30:12Z</time>
      </trkpt>
      <trkpt lat="46.300803311169147" lon="8.243392976000905">
        <ele>2190.98</ele>
        <time>2019-01-15T11:30:23Z</time>
      </trkpt>
      <trkpt lat="46.300836922600865" lon="8.243399681523442">
        <ele>2190.98</ele>
        <time>2019-01-15T11:30:26Z</time>
      </trkpt>
      <trkpt lat="46.30093926563859" lon="8.24337269179523">
        <ele>2189.54</ele>
        <time>2019-01-15T11:30:37Z</time>
      </trkpt>
      <trkpt lat="46.300938259810209" lon="8.243366908282042">
        <ele>2190.02</ele>
        <time>2019-01-15T11:30:48Z</time>
      </trkpt>
      <trkpt lat="46.301020151004195" lon="8.243351988494396">
        <ele>2189.0599999999999</ele>
        <time>2019-01-15T11:31:00Z</time>
      </trkpt>
      <trkpt lat="46.301108077168465" lon="8.243326088413596">
        <ele>2186.6599999999999</ele>
        <time>2019-01-15T11:31:10Z</time>
      </trkpt>
      <trkpt lat="46.301226010546088" lon="8.243290549144149">
        <ele>2184.25</ele>
        <time>2019-01-15T11:31:23Z</time>
      </trkpt>
      <trkpt lat="46.301282923668623" lon="8.243266828358173">
        <ele>2181.8499999999999</ele>
        <time>2019-01-15T11:31:30Z</time>
      </trkpt>
      <trkpt lat="46.301368419080973" lon="8.243218967691064">
        <ele>2179.4499999999998</ele>
        <time>2019-01-15T11:31:40Z</time>
      </trkpt>
      <trkpt lat="46.301439749076962" lon="8.243148559704423">
        <ele>2178.48</ele>
        <time>2019-01-15T11:31:50Z</time>
      </trkpt>
      <trkpt lat="46.30151778459549" lon="8.243071949109435">
        <ele>2177.52</ele>
        <time>2019-01-15T11:32:01Z</time>
      </trkpt>
      <trkpt lat="46.301585091277957" lon="8.24301352724433">
        <ele>2175.5999999999999</ele>
        <time>2019-01-15T11:32:11Z</time>
      </trkpt>
      <trkpt lat="46.301660025492311" lon="8.242957200855017">
        <ele>2173.6799999999998</ele>
        <time>2019-01-15T11:32:22Z</time>
      </trkpt>
      <trkpt lat="46.30171031691134" lon="8.242948316037655">
        <ele>2172.2399999999998</ele>
        <time>2019-01-15T11:32:28Z</time>
      </trkpt>
      <trkpt lat="46.301791034638882" lon="8.242959380149841">
        <ele>2170.79</ele>
        <time>2019-01-15T11:32:37Z</time>
      </trkpt>
      <trkpt lat="46.30184761248529" lon="8.242978826165199">
        <ele>2169.8299999999999</ele>
        <time>2019-01-15T11:32:45Z</time>
      </trkpt>
      <trkpt lat="46.301884828135371" lon="8.243025094270706">
        <ele>2166.9499999999998</ele>
        <time>2019-01-15T11:32:53Z</time>
      </trkpt>
      <trkpt lat="46.301900586113334" lon="8.243018807843328">
        <ele>2165.9899999999998</ele>
        <time>2019-01-15T11:33:08Z</time>
      </trkpt>
      <trkpt lat="46.301937885582447" lon="8.243004558607936">
        <ele>2166.4699999999998</ele>
        <time>2019-01-15T11:33:17Z</time>
      </trkpt>
      <trkpt lat="46.301965210586786" lon="8.243023585528135">
        <ele>2166.4699999999998</ele>
        <time>2019-01-15T11:33:27Z</time>
      </trkpt>
      <trkpt lat="46.302009802311659" lon="8.243009839206934">
        <ele>2165.9899999999998</ele>
        <time>2019-01-15T11:33:34Z</time>
      </trkpt>
      <trkpt lat="46.302128406241536" lon="8.242999697104096">
        <ele>2163.5799999999999</ele>
        <time>2019-01-15T11:33:45Z</time>
      </trkpt>
      <trkpt lat="46.302201244980097" lon="8.24298620223999">
        <ele>2162.6199999999999</ele>
        <time>2019-01-15T11:33:53Z</time>
      </trkpt>
      <trkpt lat="46.302301995456219" lon="8.242966420948505">
        <ele>2160.2199999999998</ele>
        <time>2019-01-15T11:34:03Z</time>
      </trkpt>
      <trkpt lat="46.302356896921992" lon="8.242959799245">
        <ele>2158.3000000000002</ele>
        <time>2019-01-15T11:34:09Z</time>
      </trkpt>
      <trkpt lat="46.302453959360719" lon="8.242938844487071">
        <ele>2155.8899999999999</ele>
        <time>2019-01-15T11:34:18Z</time>
      </trkpt>
      <trkpt lat="46.302551189437509" lon="8.242912776768208">
        <ele>2153.4899999999998</ele>
        <time>2019-01-15T11:34:27Z</time>
      </trkpt>
      <trkpt lat="46.302662920206785" lon="8.242861228063703">
        <ele>2151.5700000000002</ele>
        <time>2019-01-15T11:34:38Z</time>
      </trkpt>
      <trkpt lat="46.302763167768717" lon="8.242825102061033">
        <ele>2149.6500000000001</ele>
        <time>2019-01-15T11:34:47Z</time>
      </trkpt>
      <trkpt lat="46.302770711481571" lon="8.242820408195257">
        <ele>2149.1599999999999</ele>
        <time>2019-01-15T11:34:48Z</time>
      </trkpt>
      <trkpt lat="46.30286836065352" lon="8.242783779278398">
        <ele>2147.7199999999998</ele>
        <time>2019-01-15T11:35:00Z</time>
      </trkpt>
      <trkpt lat="46.302925022318959" lon="8.242762489244342">
        <ele>2148.6799999999998</ele>
        <time>2019-01-15T11:35:10Z</time>
      </trkpt>
      <trkpt lat="46.302966931834817" lon="8.242757795378566">
        <ele>2147.2399999999998</ele>
        <time>2019-01-15T11:35:18Z</time>
      </trkpt>
      <trkpt lat="46.303047733381391" lon="8.242719825357199">
        <ele>2146.7600000000002</ele>
        <time>2019-01-15T11:35:25Z</time>
      </trkpt>
      <trkpt lat="46.303056869655848" lon="8.242713622748852">
        <ele>2146.7600000000002</ele>
        <time>2019-01-15T11:35:26Z</time>
      </trkpt>
      <trkpt lat="46.303087128326297" lon="8.242693925276399">
        <ele>2146.2800000000002</ele>
        <time>2019-01-15T11:35:30Z</time>
      </trkpt>
      <trkpt lat="46.303201792761683" lon="8.242646232247353">
        <ele>2145.8000000000002</ele>
        <time>2019-01-15T11:35:42Z</time>
      </trkpt>
      <trkpt lat="46.303293239325285" lon="8.24260507710278">
        <ele>2144.8400000000001</ele>
        <time>2019-01-15T11:35:52Z</time>
      </trkpt>
      <trkpt lat="46.303374459967017" lon="8.242559311911464">
        <ele>2143.4000000000001</ele>
        <time>2019-01-15T11:36:03Z</time>
      </trkpt>
      <trkpt lat="46.303425086662173" lon="8.242584792897105">
        <ele>2140.5100000000002</ele>
        <time>2019-01-15T11:36:13Z</time>
      </trkpt>
      <trkpt lat="46.303420141339302" lon="8.242632485926151">
        <ele>2137.6300000000001</ele>
        <time>2019-01-15T11:36:16Z</time>
      </trkpt>
      <trkpt lat="46.303442185744643" lon="8.24271353892982">
        <ele>2136.1900000000001</ele>
        <time>2019-01-15T11:36:24Z</time>
      </trkpt>
      <trkpt lat="46.303500356152654" lon="8.242726614698768">
        <ele>2133.7800000000002</ele>
        <time>2019-01-15T11:36:34Z</time>
      </trkpt>
      <trkpt lat="46.303569003939629" lon="8.242711443454027">
        <ele>2133.3000000000002</ele>
        <time>2019-01-15T11:36:45Z</time>
      </trkpt>
      <trkpt lat="46.303611667826772" lon="8.242713119834662">
        <ele>2132.3400000000001</ele>
        <time>2019-01-15T11:36:52Z</time>
      </trkpt>
      <trkpt lat="46.303710239008069" lon="8.242762489244342">
        <ele>2128.98</ele>
        <time>2019-01-15T11:37:01Z</time>
      </trkpt>
      <trkpt lat="46.303729517385364" lon="8.242775313556194">
        <ele>2128.02</ele>
        <time>2019-01-15T11:37:03Z</time>
      </trkpt>
      <trkpt lat="46.303858766332269" lon="8.242826694622636">
        <ele>2124.6500000000001</ele>
        <time>2019-01-15T11:37:13Z</time>
      </trkpt>
      <trkpt lat="46.303946357220411" lon="8.242881931364536">
        <ele>2121.29</ele>
        <time>2019-01-15T11:37:21Z</time>
      </trkpt>
      <trkpt lat="46.303987512364984" lon="8.242899533361197">
        <ele>2119.8400000000001</ele>
        <time>2019-01-15T11:37:24Z</time>
      </trkpt>
      <trkpt lat="46.304073175415397" lon="8.242894420400262">
        <ele>2117.4400000000001</ele>
        <time>2019-01-15T11:37:30Z</time>
      </trkpt>
      <trkpt lat="46.304188007488847" lon="8.24289190582931">
        <ele>2114.0799999999999</ele>
        <time>2019-01-15T11:37:39Z</time>
      </trkpt>
      <trkpt lat="46.30428490228951" lon="8.242903305217624">
        <ele>2110.23</ele>
        <time>2019-01-15T11:37:47Z</time>
      </trkpt>
      <trkpt lat="46.304316585883498" lon="8.242915710434318">
        <ele>2108.79</ele>
        <time>2019-01-15T11:37:50Z</time>
      </trkpt>
      <trkpt lat="46.304335528984666" lon="8.242916129529476">
        <ele>2107.8299999999999</ele>
        <time>2019-01-15T11:37:52Z</time>
      </trkpt>
      <trkpt lat="46.304379114881158" lon="8.242926942184568">
        <ele>2107.3499999999999</ele>
        <time>2019-01-15T11:37:56Z</time>
      </trkpt>
      <trkpt lat="46.304473159834743" lon="8.242984442040324">
        <ele>2103.98</ele>
        <time>2019-01-15T11:38:05Z</time>
      </trkpt>
      <trkpt lat="46.304567707702518" lon="8.243058454245329">
        <ele>2101.0999999999999</ele>
        <time>2019-01-15T11:38:14Z</time>
      </trkpt>
      <trkpt lat="46.304575838148594" lon="8.243066249415278">
        <ele>2100.6199999999999</ele>
        <time>2019-01-15T11:38:15Z</time>
      </trkpt>
      <trkpt lat="46.304628057405353" lon="8.24310882948339">
        <ele>2099.1799999999998</ele>
        <time>2019-01-15T11:38:20Z</time>
      </trkpt>
      <trkpt lat="46.304665859788656" lon="8.24312299489975">
        <ele>2097.73</ele>
        <time>2019-01-15T11:38:24Z</time>
      </trkpt>
      <trkpt lat="46.304683713242412" lon="8.243157025426626">
        <ele>2097.25</ele>
        <time>2019-01-15T11:38:33Z</time>
      </trkpt>
      <trkpt lat="46.304700477048755" lon="8.243164485320449">
        <ele>2097.25</ele>
        <time>2019-01-15T11:38:41Z</time>
      </trkpt>
      <trkpt lat="46.304703997448087" lon="8.243179405108094">
        <ele>2095.8099999999999</ele>
        <time>2019-01-15T11:38:53Z</time>
      </trkpt>
      <trkpt lat="46.304708607494831" lon="8.243176806718111">
        <ele>2095.3299999999999</ele>
        <time>2019-01-15T11:39:05Z</time>
      </trkpt>
      <trkpt lat="46.304699135944247" lon="8.243193402886391">
        <ele>2096.29</ele>
        <time>2019-01-15T11:39:19Z</time>
      </trkpt>
      <trkpt lat="46.304713468998671" lon="8.243190385401249">
        <ele>2095.8099999999999</ele>
        <time>2019-01-15T11:39:32Z</time>
      </trkpt>
      <trkpt lat="46.304716486483812" lon="8.243177393451333">
        <ele>2093.8899999999999</ele>
        <time>2019-01-15T11:39:49Z</time>
      </trkpt>
      <trkpt lat="46.304714139550924" lon="8.243186278268695">
        <ele>2095.3299999999999</ele>
        <time>2019-01-15T11:40:06Z</time>
      </trkpt>
      <trkpt lat="46.30471003241837" lon="8.243193905800581">
        <ele>2095.8099999999999</ele>
        <time>2019-01-15T11:40:15Z</time>
      </trkpt>
      <trkpt lat="46.304707601666451" lon="8.243204802274704">
        <ele>2096.29</ele>
        <time>2019-01-15T11:40:27Z</time>
      </trkpt>
      <trkpt lat="46.304719420149922" lon="8.243193319067359">
        <ele>2096.29</ele>
        <time>2019-01-15T11:40:39Z</time>
      </trkpt>
      <trkpt lat="46.304720174521208" lon="8.243181249126792">
        <ele>2095.8099999999999</ele>
        <time>2019-01-15T11:40:51Z</time>
      </trkpt>
      <trkpt lat="46.304723359644413" lon="8.243156354874373">
        <ele>2095.3299999999999</ele>
        <time>2019-01-15T11:41:03Z</time>
      </trkpt>
      <trkpt lat="46.304725622758269" lon="8.243156857788563">
        <ele>2094.8499999999999</ele>
        <time>2019-01-15T11:41:05Z</time>
      </trkpt>
      <trkpt lat="46.304757725447416" lon="8.243173118680716">
        <ele>2093.8899999999999</ele>
        <time>2019-01-15T11:41:09Z</time>
      </trkpt>
      <trkpt lat="46.304783457890153" lon="8.243181752040982">
        <ele>2093.4099999999999</ele>
        <time>2019-01-15T11:41:11Z</time>
      </trkpt>
      <trkpt lat="46.304905330762267" lon="8.24321729131043">
        <ele>2089.5599999999999</ele>
        <time>2019-01-15T11:41:18Z</time>
      </trkpt>
      <trkpt lat="46.304997196421027" lon="8.243266073986888">
        <ele>2086.1999999999998</ele>
        <time>2019-01-15T11:41:26Z</time>
      </trkpt>
      <trkpt lat="46.305006919428706" lon="8.243267582729459">
        <ele>2085.7199999999998</ele>
        <time>2019-01-15T11:41:27Z</time>
      </trkpt>
      <trkpt lat="46.305044470354915" lon="8.243247214704752">
        <ele>2084.7600000000002</ele>
        <time>2019-01-15T11:41:31Z</time>
      </trkpt>
      <trkpt lat="46.305137928575277" lon="8.243199773132801">
        <ele>2082.3499999999999</ele>
        <time>2019-01-15T11:41:40Z</time>
      </trkpt>
      <trkpt lat="46.305238008499146" lon="8.243173705413938">
        <ele>2079.4699999999998</ele>
        <time>2019-01-15T11:41:49Z</time>
      </trkpt>
      <trkpt lat="46.305270530283451" lon="8.243181249126792">
        <ele>2078.5100000000002</ele>
        <time>2019-01-15T11:41:52Z</time>
      </trkpt>
      <trkpt lat="46.305371196940541" lon="8.243174375966191">
        <ele>2075.6199999999999</ele>
        <time>2019-01-15T11:42:00Z</time>
      </trkpt>
      <trkpt lat="46.305470773950219" lon="8.243170855566859">
        <ele>2072.2600000000002</ele>
        <time>2019-01-15T11:42:09Z</time>
      </trkpt>
      <trkpt lat="46.305541517212987" lon="8.243184769526124">
        <ele>2069.8600000000001</ele>
        <time>2019-01-15T11:42:17Z</time>
      </trkpt>
      <trkpt lat="46.305581498891115" lon="8.243184937164187">
        <ele>2068.4099999999999</ele>
        <time>2019-01-15T11:42:20Z</time>
      </trkpt>
      <trkpt lat="46.305600274354219" lon="8.243191726505756">
        <ele>2067.4499999999998</ele>
        <time>2019-01-15T11:42:22Z</time>
      </trkpt>
      <trkpt lat="46.305661546066403" lon="8.243178818374872">
        <ele>2066.0100000000002</ele>
        <time>2019-01-15T11:42:29Z</time>
      </trkpt>
      <trkpt lat="46.305681578814983" lon="8.243166329339147">
        <ele>2066.0100000000002</ele>
        <time>2019-01-15T11:42:31Z</time>
      </trkpt>
      <trkpt lat="46.305721225216985" lon="8.243161803111434">
        <ele>2065.0500000000002</ele>
        <time>2019-01-15T11:42:34Z</time>
      </trkpt>
      <trkpt lat="46.305800769478083" lon="8.243140345439315">
        <ele>2063.6100000000001</ele>
        <time>2019-01-15T11:42:44Z</time>
      </trkpt>
      <trkpt lat="46.305836979299784" lon="8.243125844746828">
        <ele>2063.1300000000001</ele>
        <time>2019-01-15T11:42:49Z</time>
      </trkpt>
      <trkpt lat="46.305904034525156" lon="8.243099525570869">
        <ele>2060.7199999999998</ele>
        <time>2019-01-15T11:42:59Z</time>
      </trkpt>
      <trkpt lat="46.305927252396941" lon="8.243099944666028">
        <ele>2060.2399999999998</ele>
        <time>2019-01-15T11:43:02Z</time>
      </trkpt>
      <trkpt lat="46.305975867435336" lon="8.243092652410269">
        <ele>2058.3200000000002</ele>
        <time>2019-01-15T11:43:12Z</time>
      </trkpt>
      <trkpt lat="46.30597461014986" lon="8.243098855018616">
        <ele>2056.8800000000001</ele>
        <time>2019-01-15T11:43:25Z</time>
      </trkpt>
      <trkpt lat="46.305975532159209" lon="8.243093239143491">
        <ele>2056.8800000000001</ele>
        <time>2019-01-15T11:43:26Z</time>
      </trkpt>
      <trkpt lat="46.305964300408959" lon="8.243096591904759">
        <ele>2058.3200000000002</ele>
        <time>2019-01-15T11:43:34Z</time>
      </trkpt>
      <trkpt lat="46.305977795273066" lon="8.243094077333808">
        <ele>2057.3600000000001</ele>
        <time>2019-01-15T11:43:39Z</time>
      </trkpt>
      <trkpt lat="46.306006042286754" lon="8.243087874725461">
        <ele>2056.4000000000001</ele>
        <time>2019-01-15T11:43:42Z</time>
      </trkpt>
      <trkpt lat="46.306076282635331" lon="8.243076475337148">
        <ele>2054.96</ele>
        <time>2019-01-15T11:43:50Z</time>
      </trkpt>
      <trkpt lat="46.306141493842006" lon="8.243134059011936">
        <ele>2051.5900000000001</ele>
        <time>2019-01-15T11:43:57Z</time>
      </trkpt>
      <trkpt lat="46.306151887401938" lon="8.243139674887061">
        <ele>2051.1100000000001</ele>
        <time>2019-01-15T11:43:58Z</time>
      </trkpt>
      <trkpt lat="46.306190695613623" lon="8.243202036246657">
        <ele>2047.75</ele>
        <time>2019-01-15T11:44:03Z</time>
      </trkpt>
      <trkpt lat="46.306220283731818" lon="8.243247633799911">
        <ele>2045.8199999999999</ele>
        <time>2019-01-15T11:44:07Z</time>
      </trkpt>
      <trkpt lat="46.306277364492416" lon="8.243308402597904">
        <ele>2042.9400000000001</ele>
        <time>2019-01-15T11:44:13Z</time>
      </trkpt>
      <trkpt lat="46.306324135512114" lon="8.243373110890389">
        <ele>2039.0899999999999</ele>
        <time>2019-01-15T11:44:20Z</time>
      </trkpt>
      <trkpt lat="46.306399069726467" lon="8.243380151689053">
        <ele>2035.73</ele>
        <time>2019-01-15T11:44:27Z</time>
      </trkpt>
      <trkpt lat="46.306458245962858" lon="8.243390209972858">
        <ele>2033.3299999999999</ele>
        <time>2019-01-15T11:44:34Z</time>
      </trkpt>
      <trkpt lat="46.306556984782219" lon="8.243397083133459">
        <ele>2029.48</ele>
        <time>2019-01-15T11:44:43Z</time>
      </trkpt>
      <trkpt lat="46.306609874591231" lon="8.243409572169185">
        <ele>2027.5599999999999</ele>
        <time>2019-01-15T11:44:49Z</time>
      </trkpt>
      <trkpt lat="46.306717833504081" lon="8.243418708443642">
        <ele>2027.0799999999999</ele>
        <time>2019-01-15T11:44:57Z</time>
      </trkpt>
      <trkpt lat="46.306756725534797" lon="8.243437903001905">
        <ele>2025.6400000000001</ele>
        <time>2019-01-15T11:45:03Z</time>
      </trkpt>
      <trkpt lat="46.306815817952156" lon="8.243469586595893">
        <ele>2024.1900000000001</ele>
        <time>2019-01-15T11:45:09Z</time>
      </trkpt>
      <trkpt lat="46.306852782145143" lon="8.243490373715758">
        <ele>2021.79</ele>
        <time>2019-01-15T11:45:13Z</time>
      </trkpt>
      <trkpt lat="46.306934840977192" lon="8.243533372879028">
        <ele>2018.9100000000001</ele>
        <time>2019-01-15T11:45:23Z</time>
      </trkpt>
      <trkpt lat="46.307002315297723" lon="8.243522141128779">
        <ele>2015.54</ele>
        <time>2019-01-15T11:45:31Z</time>
      </trkpt>
      <trkpt lat="46.307010194286704" lon="8.243517698720098">
        <ele>2015.0599999999999</ele>
        <time>2019-01-15T11:45:33Z</time>
      </trkpt>
      <trkpt lat="46.307048248127103" lon="8.243517866358161">
        <ele>2013.1400000000001</ele>
        <time>2019-01-15T11:45:40Z</time>
      </trkpt>
      <trkpt lat="46.307093510404229" lon="8.243537899106741">
        <ele>2011.7</ele>
        <time>2019-01-15T11:45:45Z</time>
      </trkpt>
      <trkpt lat="46.307173557579517" lon="8.243583748117089">
        <ele>2008.3299999999999</ele>
        <time>2019-01-15T11:45:55Z</time>
      </trkpt>
      <trkpt lat="46.307178838178515" lon="8.243583664298058">
        <ele>2007.8499999999999</ele>
        <time>2019-01-15T11:45:56Z</time>
      </trkpt>
      <trkpt lat="46.307247318327427" lon="8.243595482781529">
        <ele>2005.9300000000001</ele>
        <time>2019-01-15T11:46:05Z</time>
      </trkpt>
      <trkpt lat="46.307299705222249" lon="8.243623059242964">
        <ele>2003.04</ele>
        <time>2019-01-15T11:46:12Z</time>
      </trkpt>
      <trkpt lat="46.30736374296248" lon="8.2435710914433">
        <ele>2002.5599999999999</ele>
        <time>2019-01-15T11:46:20Z</time>
      </trkpt>
      <trkpt lat="46.307370532304049" lon="8.243559105321765">
        <ele>2002.0799999999999</ele>
        <time>2019-01-15T11:46:21Z</time>
      </trkpt>
      <trkpt lat="46.307412190362811" lon="8.243440249934793">
        <ele>2000.6400000000001</ele>
        <time>2019-01-15T11:46:31Z</time>
      </trkpt>
      <trkpt lat="46.307441694661975" lon="8.243350898846984">
        <ele>2000.1600000000001</ele>
        <time>2019-01-15T11:46:38Z</time>
      </trkpt>
      <trkpt lat="46.307487459853292" lon="8.243314856663346">
        <ele>1998.72</ele>
        <time>2019-01-15T11:46:44Z</time>
      </trkpt>
      <trkpt lat="46.307506486773491" lon="8.243300020694733">
        <ele>1998.72</ele>
        <time>2019-01-15T11:46:46Z</time>
      </trkpt>
      <trkpt lat="46.307515455409884" lon="8.243291219696403">
        <ele>1998.72</ele>
        <time>2019-01-15T11:46:47Z</time>
      </trkpt>
      <trkpt lat="46.307524591684341" lon="8.24328375980258">
        <ele>1998.72</ele>
        <time>2019-01-15T11:46:48Z</time>
      </trkpt>
      <trkpt lat="46.307535404339433" lon="8.243275126442313">
        <ele>1998.72</ele>
        <time>2019-01-15T11:46:49Z</time>
      </trkpt>
      <trkpt lat="46.307569183409214" lon="8.24326179921627">
        <ele>1997.28</ele>
        <time>2019-01-15T11:46:53Z</time>
      </trkpt>
      <trkpt lat="46.307596089318395" lon="8.243249645456672">
        <ele>1995.8299999999999</ele>
        <time>2019-01-15T11:46:56Z</time>
      </trkpt>
      <trkpt lat="46.307648476213217" lon="8.243201365694404">
        <ele>1993.4300000000001</ele>
        <time>2019-01-15T11:47:02Z</time>
      </trkpt>
      <trkpt lat="46.307756351307034" lon="8.243138669058681">
        <ele>1992.95</ele>
        <time>2019-01-15T11:47:11Z</time>
      </trkpt>
      <trkpt lat="46.307791555300355" lon="8.243142524734139">
        <ele>1992.47</ele>
        <time>2019-01-15T11:47:15Z</time>
      </trkpt>
      <trkpt lat="46.307862550020218" lon="8.243113774806261">
        <ele>1991.99</ele>
        <time>2019-01-15T11:47:20Z</time>
      </trkpt>
      <trkpt lat="46.307977885007858" lon="8.24302576482296">
        <ele>1993.4300000000001</ele>
        <time>2019-01-15T11:47:30Z</time>
      </trkpt>
      <trkpt lat="46.308076540008187" lon="8.24300866574049">
        <ele>1994.3900000000001</ele>
        <time>2019-01-15T11:47:37Z</time>
      </trkpt>
      <trkpt lat="46.308156419545412" lon="8.242995422333479">
        <ele>1993.9100000000001</ele>
        <time>2019-01-15T11:47:44Z</time>
      </trkpt>
      <trkpt lat="46.308171926066279" lon="8.242995338514447">
        <ele>1994.3900000000001</ele>
        <time>2019-01-15T11:47:45Z</time>
      </trkpt>
      <trkpt lat="46.308185337111354" lon="8.242995087057352">
        <ele>1994.3900000000001</ele>
        <time>2019-01-15T11:47:46Z</time>
      </trkpt>
      <trkpt lat="46.308201681822538" lon="8.242995254695416">
        <ele>1994.3900000000001</ele>
        <time>2019-01-15T11:47:47Z</time>
      </trkpt>
      <trkpt lat="46.308217691257596" lon="8.242993243038654">
        <ele>1994.8699999999999</ele>
        <time>2019-01-15T11:47:48Z</time>
      </trkpt>
      <trkpt lat="46.308271670714021" lon="8.242972623556852">
        <ele>1994.8699999999999</ele>
        <time>2019-01-15T11:47:55Z</time>
      </trkpt>
      <trkpt lat="46.30830142647028" lon="8.242943957448006">
        <ele>1995.8299999999999</ele>
        <time>2019-01-15T11:48:02Z</time>
      </trkpt>
      <trkpt lat="46.30831902846694" lon="8.242935659363866">
        <ele>1995.8299999999999</ele>
        <time>2019-01-15T11:48:03Z</time>
      </trkpt>
      <trkpt lat="46.308339480310678" lon="8.242926858365536">
        <ele>1995.8299999999999</ele>
        <time>2019-01-15T11:48:04Z</time>
      </trkpt>
      <trkpt lat="46.308358171954751" lon="8.242913614958525">
        <ele>1995.8299999999999</ele>
        <time>2019-01-15T11:48:05Z</time>
      </trkpt>
      <trkpt lat="46.308449534699321" lon="8.242872795090079">
        <ele>1996.8</ele>
        <time>2019-01-15T11:48:12Z</time>
      </trkpt>
      <trkpt lat="46.308552045375109" lon="8.242856618016958">
        <ele>1997.28</ele>
        <time>2019-01-15T11:48:20Z</time>
      </trkpt>
      <trkpt lat="46.308644330129027" lon="8.242818480357528">
        <ele>1997.76</ele>
        <time>2019-01-15T11:48:28Z</time>
      </trkpt>
      <trkpt lat="46.308661932125688" lon="8.2428112719208">
        <ele>1997.76</ele>
        <time>2019-01-15T11:48:29Z</time>
      </trkpt>
      <trkpt lat="46.308672158047557" lon="8.242806494235992">
        <ele>1998.24</ele>
        <time>2019-01-15T11:48:30Z</time>
      </trkpt>
      <trkpt lat="46.308753378689289" lon="8.24280004017055">
        <ele>1998.72</ele>
        <time>2019-01-15T11:48:38Z</time>
      </trkpt>
      <trkpt lat="46.308856811374426" lon="8.242817725986242">
        <ele>1999.6800000000001</ele>
        <time>2019-01-15T11:48:48Z</time>
      </trkpt>
      <trkpt lat="46.308879107236862" lon="8.242813786491752">
        <ele>1999.6800000000001</ele>
        <time>2019-01-15T11:48:50Z</time>
      </trkpt>
      <trkpt lat="46.308895200490952" lon="8.242814037948847">
        <ele>2000.1600000000001</ele>
        <time>2019-01-15T11:48:51Z</time>
      </trkpt>
      <trkpt lat="46.308910707011819" lon="8.242810098454356">
        <ele>2000.1600000000001</ele>
        <time>2019-01-15T11:48:52Z</time>
      </trkpt>
      <trkpt lat="46.308924956247211" lon="8.242808422073722">
        <ele>2000.1600000000001</ele>
        <time>2019-01-15T11:48:53Z</time>
      </trkpt>
      <trkpt lat="46.309022186324" lon="8.242791322991252">
        <ele>2000.6400000000001</ele>
        <time>2019-01-15T11:49:02Z</time>
      </trkpt>
      <trkpt lat="46.309032831341028" lon="8.24278780259192">
        <ele>2000.6400000000001</ele>
        <time>2019-01-15T11:49:03Z</time>
      </trkpt>
      <trkpt lat="46.30905244499445" lon="8.242783863097429">
        <ele>2000.6400000000001</ele>
        <time>2019-01-15T11:49:04Z</time>
      </trkpt>
      <trkpt lat="46.309069292619824" lon="8.242782102897763">
        <ele>2001.1199999999999</ele>
        <time>2019-01-15T11:49:05Z</time>
      </trkpt>
      <trkpt lat="46.309145819395781" lon="8.242798699066043">
        <ele>2001.1199999999999</ele>
        <time>2019-01-15T11:49:13Z</time>
      </trkpt>
      <trkpt lat="46.309164427220821" lon="8.242799369618297">
        <ele>2001.1199999999999</ele>
        <time>2019-01-15T11:49:14Z</time>
      </trkpt>
      <trkpt lat="46.309182364493608" lon="8.242797944694758">
        <ele>2001.5999999999999</ele>
        <time>2019-01-15T11:49:15Z</time>
      </trkpt>
      <trkpt lat="46.309249587357044" lon="8.242794089019299">
        <ele>2001.5999999999999</ele>
        <time>2019-01-15T11:49:21Z</time>
      </trkpt>
      <trkpt lat="46.30926157347858" lon="8.242795346304774">
        <ele>2001.5999999999999</ele>
        <time>2019-01-15T11:49:22Z</time>
      </trkpt>
      <trkpt lat="46.309352768585086" lon="8.242760142311454">
        <ele>2001.5999999999999</ele>
        <time>2019-01-15T11:49:32Z</time>
      </trkpt>
      <trkpt lat="46.309479335322976" lon="8.242760226130486">
        <ele>2002.0799999999999</ele>
        <time>2019-01-15T11:49:41Z</time>
      </trkpt>
      <trkpt lat="46.309591736644506" lon="8.242785036563873">
        <ele>2002.5599999999999</ele>
        <time>2019-01-15T11:49:51Z</time>
      </trkpt>
      <trkpt lat="46.309631215408444" lon="8.242779839783907">
        <ele>2003.04</ele>
        <time>2019-01-15T11:50:00Z</time>
      </trkpt>
      <trkpt lat="46.309643872082233" lon="8.242779588326812">
        <ele>2003.52</ele>
        <time>2019-01-15T11:50:09Z</time>
      </trkpt>
      <trkpt lat="46.309647643938661" lon="8.242787215858698">
        <ele>2004.01</ele>
        <time>2019-01-15T11:50:22Z</time>
      </trkpt>
      <trkpt lat="46.309634232893586" lon="8.242795011028647">
        <ele>2004.49</ele>
        <time>2019-01-15T11:50:30Z</time>
      </trkpt>
      <trkpt lat="46.30966373719275" lon="8.242788137868047">
        <ele>2004.97</ele>
        <time>2019-01-15T11:50:43Z</time>
      </trkpt>
      <trkpt lat="46.309682847931981" lon="8.242809846997261">
        <ele>2005.45</ele>
        <time>2019-01-15T11:50:57Z</time>
      </trkpt>
      <trkpt lat="46.309658037498593" lon="8.242780175060034">
        <ele>2006.4100000000001</ele>
        <time>2019-01-15T11:51:09Z</time>
      </trkpt>
      <trkpt lat="46.30962610244751" lon="8.24275653809309">
        <ele>2006.8900000000001</ele>
        <time>2019-01-15T11:51:20Z</time>
      </trkpt>
      <trkpt lat="46.309641776606441" lon="8.242765003815293">
        <ele>2006.8900000000001</ele>
        <time>2019-01-15T11:51:33Z</time>
      </trkpt>
      <trkpt lat="46.309647224843502" lon="8.242761064320803">
        <ele>2007.8499999999999</ele>
        <time>2019-01-15T11:51:47Z</time>
      </trkpt>
      <trkpt lat="46.309642698615789" lon="8.242761651054025">
        <ele>2008.8099999999999</ele>
        <time>2019-01-15T11:51:59Z</time>
      </trkpt>
      <trkpt lat="46.309637166559696" lon="8.242732398211956">
        <ele>2008.8099999999999</ele>
        <time>2019-01-15T11:52:11Z</time>
      </trkpt>
      <trkpt lat="46.309641106054187" lon="8.242723178118467">
        <ele>1958.3399999999999</ele>
        <time>2019-01-15T11:52:18Z</time>
      </trkpt>
      <trkpt lat="46.30906468257308" lon="8.242935072630644">
        <ele>1947.29</ele>
        <time>2019-01-15T11:52:19Z</time>
      </trkpt>
      <trkpt lat="46.309065017849207" lon="8.242942783981562">
        <ele>1942.96</ele>
        <time>2019-01-15T11:52:20Z</time>
      </trkpt>
      <trkpt lat="46.309066107496619" lon="8.242959966883063">
        <ele>1938.6400000000001</ele>
        <time>2019-01-15T11:52:22Z</time>
      </trkpt>
      <trkpt lat="46.309087313711643" lon="8.242964074015617">
        <ele>1935.75</ele>
        <time>2019-01-15T11:52:24Z</time>
      </trkpt>
      <trkpt lat="46.309054289013147" lon="8.242945047095418">
        <ele>1939.1199999999999</ele>
        <time>2019-01-15T11:52:33Z</time>
      </trkpt>
      <trkpt lat="46.309024365618825" lon="8.242911268025637">
        <ele>1942.48</ele>
        <time>2019-01-15T11:52:48Z</time>
      </trkpt>
      <trkpt lat="46.309026041999459" lon="8.242915710434318">
        <ele>1942.48</ele>
        <time>2019-01-15T11:52:49Z</time>
      </trkpt>
      <trkpt lat="46.309033669531345" lon="8.242935743182898">
        <ele>1944.8800000000001</ele>
        <time>2019-01-15T11:52:53Z</time>
      </trkpt>
      <trkpt lat="46.309065688401461" lon="8.242953596636653">
        <ele>1946.8099999999999</ele>
        <time>2019-01-15T11:53:04Z</time>
      </trkpt>
      <trkpt lat="46.309037022292614" lon="8.24294513091445">
        <ele>1945.8499999999999</ele>
        <time>2019-01-15T11:53:21Z</time>
      </trkpt>
      <trkpt lat="46.309064095839858" lon="8.24297103099525">
        <ele>1949.21</ele>
        <time>2019-01-15T11:53:25Z</time>
      </trkpt>
      <trkpt lat="46.309066275134683" lon="8.2429563626647">
        <ele>1945.8499999999999</ele>
        <time>2019-01-15T11:53:31Z</time>
      </trkpt>
      <trkpt lat="46.309041129425168" lon="8.242921745404601">
        <ele>1945.8499999999999</ele>
        <time>2019-01-15T11:53:51Z</time>
      </trkpt>
      <trkpt lat="46.309050098061562" lon="8.242924259975553">
        <ele>1948.73</ele>
        <time>2019-01-15T11:53:59Z</time>
      </trkpt>
      <trkpt lat="46.309026041999459" lon="8.242913279682398">
        <ele>1950.1700000000001</ele>
        <time>2019-01-15T11:54:19Z</time>
      </trkpt>
      <trkpt lat="46.309072645381093" lon="8.24293632991612">
        <ele>1949.21</ele>
        <time>2019-01-15T11:54:35Z</time>
      </trkpt>
      <trkpt lat="46.309159314259887" lon="8.242995254695416">
        <ele>1946.8099999999999</ele>
        <time>2019-01-15T11:54:42Z</time>
      </trkpt>
      <trkpt lat="46.309174401685596" lon="8.242999780923128">
        <ele>1946.8099999999999</ele>
        <time>2019-01-15T11:54:43Z</time>
      </trkpt>
      <trkpt lat="46.309190494939685" lon="8.243005396798253">
        <ele>1946.8099999999999</ele>
        <time>2019-01-15T11:54:44Z</time>
      </trkpt>
      <trkpt lat="46.309248581528664" lon="8.24303800240159">
        <ele>1945.8499999999999</ele>
        <time>2019-01-15T11:54:48Z</time>
      </trkpt>
      <trkpt lat="46.309342877939343" lon="8.243027776479721">
        <ele>1945.3599999999999</ele>
        <time>2019-01-15T11:54:56Z</time>
      </trkpt>
      <trkpt lat="46.309403227642179" lon="8.243023585528135">
        <ele>1942</ele>
        <time>2019-01-15T11:55:03Z</time>
      </trkpt>
      <trkpt lat="46.309449076652527" lon="8.243044121190906">
        <ele>1940.5599999999999</ele>
        <time>2019-01-15T11:55:08Z</time>
      </trkpt>
      <trkpt lat="46.30946827121079" lon="8.243065243586898">
        <ele>1939.1199999999999</ele>
        <time>2019-01-15T11:55:10Z</time>
      </trkpt>
      <trkpt lat="46.30952694453299" lon="8.2430668361485">
        <ele>1935.75</ele>
        <time>2019-01-15T11:55:16Z</time>
      </trkpt>
      <trkpt lat="46.309535829350352" lon="8.243072954937816">
        <ele>1934.79</ele>
        <time>2019-01-15T11:55:17Z</time>
      </trkpt>
      <trkpt lat="46.309568351134658" lon="8.243086198344827">
        <ele>1931.4300000000001</ele>
        <time>2019-01-15T11:55:21Z</time>
      </trkpt>
      <trkpt lat="46.309576900675893" lon="8.243085108697414">
        <ele>1930.46</ele>
        <time>2019-01-15T11:55:22Z</time>
      </trkpt>
      <trkpt lat="46.309628365561366" lon="8.243091898038983">
        <ele>1927.5799999999999</ele>
        <time>2019-01-15T11:55:27Z</time>
      </trkpt>
      <trkpt lat="46.309670610353351" lon="8.243087874725461">
        <ele>1924.7</ele>
        <time>2019-01-15T11:55:32Z</time>
      </trkpt>
      <trkpt lat="46.309712352231145" lon="8.243101788684726">
        <ele>1922.29</ele>
        <time>2019-01-15T11:55:38Z</time>
      </trkpt>
      <trkpt lat="46.309741772711277" lon="8.243089886382222">
        <ele>1920.8499999999999</ele>
        <time>2019-01-15T11:55:42Z</time>
      </trkpt>
      <trkpt lat="46.309756608679891" lon="8.243089048191905">
        <ele>1920.3699999999999</ele>
        <time>2019-01-15T11:55:43Z</time>
      </trkpt>
      <trkpt lat="46.309821233153343" lon="8.243103800341487">
        <ele>1918.9300000000001</ele>
        <time>2019-01-15T11:55:50Z</time>
      </trkpt>
      <trkpt lat="46.309833051636815" lon="8.243113858625293">
        <ele>1918.45</ele>
        <time>2019-01-15T11:55:51Z</time>
      </trkpt>
      <trkpt lat="46.309876134619117" lon="8.243214525282383">
        <ele>1915.5599999999999</ele>
        <time>2019-01-15T11:56:00Z</time>
      </trkpt>
      <trkpt lat="46.30992810241878" lon="8.24332382529974">
        <ele>1913.6400000000001</ele>
        <time>2019-01-15T11:56:10Z</time>
      </trkpt>
      <trkpt lat="46.309972945600748" lon="8.243374032899737">
        <ele>1913.1600000000001</ele>
        <time>2019-01-15T11:56:16Z</time>
      </trkpt>
      <trkpt lat="46.310017621144652" lon="8.243385180830956">
        <ele>1914.1199999999999</ele>
        <time>2019-01-15T11:56:23Z</time>
      </trkpt>
      <trkpt lat="46.310009825974703" lon="8.24339909479022">
        <ele>1913.1600000000001</ele>
        <time>2019-01-15T11:56:31Z</time>
      </trkpt>
      <trkpt lat="46.310035809874535" lon="8.243412338197231">
        <ele>1917.01</ele>
        <time>2019-01-15T11:56:46Z</time>
      </trkpt>
      <trkpt lat="46.310045700520277" lon="8.243402447551489">
        <ele>1919.8900000000001</ele>
        <time>2019-01-15T11:57:10Z</time>
      </trkpt>
      <trkpt lat="46.310018794611096" lon="8.243432957679033">
        <ele>1918.9300000000001</ele>
        <time>2019-01-15T11:57:25Z</time>
      </trkpt>
      <trkpt lat="46.309993984177709" lon="8.243378642946482">
        <ele>1917.01</ele>
        <time>2019-01-15T11:57:35Z</time>
      </trkpt>
      <trkpt lat="46.310006305575371" lon="8.243371434509754">
        <ele>1917.49</ele>
        <time>2019-01-15T11:57:46Z</time>
      </trkpt>
      <trkpt lat="46.309994570910931" lon="8.243412422016263">
        <ele>1916.04</ele>
        <time>2019-01-15T11:58:00Z</time>
      </trkpt>
      <trkpt lat="46.309995409101248" lon="8.243404040113092">
        <ele>1916.04</ele>
        <time>2019-01-15T11:58:08Z</time>
      </trkpt>
      <trkpt lat="46.3100013602525" lon="8.243378223851323">
        <ele>1918.9300000000001</ele>
        <time>2019-01-15T11:58:23Z</time>
      </trkpt>
      <trkpt lat="46.310001444071531" lon="8.243365818634629">
        <ele>1919.8900000000001</ele>
        <time>2019-01-15T11:58:36Z</time>
      </trkpt>
      <trkpt lat="46.310006724670529" lon="8.243368668481708">
        <ele>1920.3699999999999</ele>
        <time>2019-01-15T11:58:46Z</time>
      </trkpt>
      <trkpt lat="46.310022231191397" lon="8.24336925521493">
        <ele>1921.3299999999999</ele>
        <time>2019-01-15T11:58:59Z</time>
      </trkpt>
      <trkpt lat="46.310003958642483" lon="8.243400938808918">
        <ele>1920.3699999999999</ele>
        <time>2019-01-15T11:59:13Z</time>
      </trkpt>
      <trkpt lat="46.309996414929628" lon="8.243380067870021">
        <ele>1922.29</ele>
        <time>2019-01-15T11:59:17Z</time>
      </trkpt>
      <trkpt lat="46.309996163472533" lon="8.243392389267683">
        <ele>1921.3299999999999</ele>
        <time>2019-01-15T11:59:30Z</time>
      </trkpt>
      <trkpt lat="46.309989877045155" lon="8.243373446166515">
        <ele>1919.4100000000001</ele>
        <time>2019-01-15T11:59:45Z</time>
      </trkpt>
      <trkpt lat="46.310048215091228" lon="8.243426503613591">
        <ele>1916.04</ele>
        <time>2019-01-15T11:59:57Z</time>
      </trkpt>
      <trkpt lat="46.310063721612096" lon="8.243468496948481">
        <ele>1914.5999999999999</ele>
        <time>2019-01-15T12:00:00Z</time>
      </trkpt>
      <trkpt lat="46.310099847614765" lon="8.243578048422933">
        <ele>1914.5999999999999</ele>
        <time>2019-01-15T12:00:10Z</time>
      </trkpt>
      <trkpt lat="46.3101308606565" lon="8.243699753656983">
        <ele>1914.5999999999999</ele>
        <time>2019-01-15T12:00:24Z</time>
      </trkpt>
      <trkpt lat="46.310126082971692" lon="8.243680223822594">
        <ele>1915.0799999999999</ele>
        <time>2019-01-15T12:00:35Z</time>
      </trkpt>
      <trkpt lat="46.310138907283545" lon="8.243644768372178">
        <ele>1916.04</ele>
        <time>2019-01-15T12:00:47Z</time>
      </trkpt>
      <trkpt lat="46.310144104063511" lon="8.243634961545467">
        <ele>1916.04</ele>
        <time>2019-01-15T12:00:56Z</time>
      </trkpt>
      <trkpt lat="46.310130441561341" lon="8.24368441477418">
        <ele>1913.6400000000001</ele>
        <time>2019-01-15T12:01:04Z</time>
      </trkpt>
      <trkpt lat="46.310138823464513" lon="8.243665974587202">
        <ele>1913.6400000000001</ele>
        <time>2019-01-15T12:01:13Z</time>
      </trkpt>
      <trkpt lat="46.310150139033794" lon="8.243639068678021">
        <ele>1913.6400000000001</ele>
        <time>2019-01-15T12:01:19Z</time>
      </trkpt>
      <trkpt lat="46.310129184275866" lon="8.243623143061996">
        <ele>1915.0799999999999</ele>
        <time>2019-01-15T12:01:26Z</time>
      </trkpt>
      <trkpt lat="46.310116527602077" lon="8.243611408397555">
        <ele>1917.97</ele>
        <time>2019-01-15T12:01:37Z</time>
      </trkpt>
      <trkpt lat="46.310149049386382" lon="8.243606630712748">
        <ele>1918.45</ele>
        <time>2019-01-15T12:01:53Z</time>
      </trkpt>
      <trkpt lat="46.310132704675198" lon="8.243600595742464">
        <ele>1920.3699999999999</ele>
        <time>2019-01-15T12:02:04Z</time>
      </trkpt>
      <trkpt lat="46.31011669524014" lon="8.243616437539458">
        <ele>1918.9300000000001</ele>
        <time>2019-01-15T12:02:07Z</time>
      </trkpt>
      <trkpt lat="46.310087274760008" lon="8.243560111150146">
        <ele>1918.45</ele>
        <time>2019-01-15T12:02:14Z</time>
      </trkpt>
      <trkpt lat="46.310047544538975" lon="8.24342449195683">
        <ele>1916.04</ele>
        <time>2019-01-15T12:02:26Z</time>
      </trkpt>
      <trkpt lat="46.31002432666719" lon="8.243339834734798">
        <ele>1916.04</ele>
        <time>2019-01-15T12:02:35Z</time>
      </trkpt>
      <trkpt lat="46.310034217312932" lon="8.243255009874702">
        <ele>1914.5999999999999</ele>
        <time>2019-01-15T12:02:42Z</time>
      </trkpt>
      <trkpt lat="46.310037737712264" lon="8.243259284645319">
        <ele>1916.04</ele>
        <time>2019-01-15T12:02:50Z</time>
      </trkpt>
      <trkpt lat="46.310049556195736" lon="8.243337320163846">
        <ele>1914.5999999999999</ele>
        <time>2019-01-15T12:03:02Z</time>
      </trkpt>
      <trkpt lat="46.310036228969693" lon="8.24334628880024">
        <ele>1913.6400000000001</ele>
        <time>2019-01-15T12:03:10Z</time>
      </trkpt>
      <trkpt lat="46.310026589781046" lon="8.243316197767854">
        <ele>1913.6400000000001</ele>
        <time>2019-01-15T12:03:22Z</time>
      </trkpt>
      <trkpt lat="46.310021979734302" lon="8.243329441174865">
        <ele>1912.2</ele>
        <time>2019-01-15T12:03:36Z</time>
      </trkpt>
      <trkpt lat="46.310019884258509" lon="8.243407476693392">
        <ele>1911.24</ele>
        <time>2019-01-15T12:03:44Z</time>
      </trkpt>
      <trkpt lat="46.310020219534636" lon="8.24340202845633">
        <ele>1911.72</ele>
        <time>2019-01-15T12:03:56Z</time>
      </trkpt>
      <trkpt lat="46.310036648064852" lon="8.243417451158166">
        <ele>1911.72</ele>
        <time>2019-01-15T12:04:13Z</time>
      </trkpt>
      <trkpt lat="46.310029942542315" lon="8.243420217186213">
        <ele>1911.72</ele>
        <time>2019-01-15T12:04:31Z</time>
      </trkpt>
      <trkpt lat="46.310043353587389" lon="8.243385097011924">
        <ele>1912.2</ele>
        <time>2019-01-15T12:04:53Z</time>
      </trkpt>
      <trkpt lat="46.310040419921279" lon="8.243392640724778">
        <ele>1913.6400000000001</ele>
        <time>2019-01-15T12:05:06Z</time>
      </trkpt>
      <trkpt lat="46.310029439628124" lon="8.243389958515763">
        <ele>1913.6400000000001</ele>
        <time>2019-01-15T12:05:20Z</time>
      </trkpt>
      <trkpt lat="46.310009993612766" lon="8.243381828069687">
        <ele>1911.72</ele>
        <time>2019-01-15T12:05:30Z</time>
      </trkpt>
      <trkpt lat="46.310018710792065" lon="8.243398172780871">
        <ele>1911.72</ele>
        <time>2019-01-15T12:05:41Z</time>
      </trkpt>
      <trkpt lat="46.310032876208425" lon="8.243397166952491">
        <ele>1914.5999999999999</ele>
        <time>2019-01-15T12:05:50Z</time>
      </trkpt>
      <trkpt lat="46.31002482958138" lon="8.243401860818267">
        <ele>1915.0799999999999</ele>
        <time>2019-01-15T12:06:11Z</time>
      </trkpt>
      <trkpt lat="46.310025248676538" lon="8.243422564119101">
        <ele>1915.5599999999999</ele>
        <time>2019-01-15T12:06:24Z</time>
      </trkpt>
      <trkpt lat="46.310025667771697" lon="8.243420971557498">
        <ele>1915.0799999999999</ele>
        <time>2019-01-15T12:06:43Z</time>
      </trkpt>
      <trkpt lat="46.310034971684217" lon="8.243425916880369">
        <ele>1913.6400000000001</ele>
        <time>2019-01-15T12:06:55Z</time>
      </trkpt>
      <trkpt lat="46.310037821531296" lon="8.243433376774192">
        <ele>1913.6400000000001</ele>
        <time>2019-01-15T12:07:12Z</time>
      </trkpt>
      <trkpt lat="46.310107056051493" lon="8.243417283520103">
        <ele>1913.1600000000001</ele>
        <time>2019-01-15T12:07:21Z</time>
      </trkpt>
      <trkpt lat="46.310158688575029" lon="8.243441339582205">
        <ele>1913.1600000000001</ele>
        <time>2019-01-15T12:07:27Z</time>
      </trkpt>
      <trkpt lat="46.310191797092557" lon="8.243477130308747">
        <ele>1912.2</ele>
        <time>2019-01-15T12:07:31Z</time>
      </trkpt>
      <trkpt lat="46.310273939743638" lon="8.243549466133118">
        <ele>1909.3199999999999</ele>
        <time>2019-01-15T12:07:40Z</time>
      </trkpt>
      <trkpt lat="46.310345185920596" lon="8.243638314306736">
        <ele>1907.3900000000001</ele>
        <time>2019-01-15T12:07:49Z</time>
      </trkpt>
      <trkpt lat="46.310423891991377" lon="8.243706962093711">
        <ele>1904.99</ele>
        <time>2019-01-15T12:07:58Z</time>
      </trkpt>
      <trkpt lat="46.310475943610072" lon="8.24375624768436">
        <ele>1904.03</ele>
        <time>2019-01-15T12:08:08Z</time>
      </trkpt>
      <trkpt lat="46.310507711023092" lon="8.243759516626597">
        <ele>1903.0699999999999</ele>
        <time>2019-01-15T12:08:16Z</time>
      </trkpt>
      <trkpt lat="46.310545345768332" lon="8.243786925449967">
        <ele>1904.51</ele>
        <time>2019-01-15T12:08:24Z</time>
      </trkpt>
      <trkpt lat="46.310552386566997" lon="8.24383495375514">
        <ele>1903.0699999999999</ele>
        <time>2019-01-15T12:08:34Z</time>
      </trkpt>
      <trkpt lat="46.310572419315577" lon="8.243890106678009">
        <ele>1902.5899999999999</ele>
        <time>2019-01-15T12:08:44Z</time>
      </trkpt>
      <trkpt lat="46.310593374073505" lon="8.243940314278007">
        <ele>1901.1400000000001</ele>
        <time>2019-01-15T12:08:54Z</time>
      </trkpt>
      <trkpt lat="46.310629919171333" lon="8.243988761678338">
        <ele>1899.7</ele>
        <time>2019-01-15T12:09:02Z</time>
      </trkpt>
      <trkpt lat="46.31064098328352" lon="8.243995802477002">
        <ele>1900.1800000000001</ele>
        <time>2019-01-15T12:09:04Z</time>
      </trkpt>
      <trkpt lat="46.310651460662484" lon="8.244002424180508">
        <ele>1900.1800000000001</ele>
        <time>2019-01-15T12:09:05Z</time>
      </trkpt>
      <trkpt lat="46.310696806758642" lon="8.244054643437266">
        <ele>1897.78</ele>
        <time>2019-01-15T12:09:13Z</time>
      </trkpt>
      <trkpt lat="46.310702841728926" lon="8.244066294282675">
        <ele>1897.78</ele>
        <time>2019-01-15T12:09:14Z</time>
      </trkpt>
      <trkpt lat="46.310788169503212" lon="8.244140893220902">
        <ele>1896.3399999999999</ele>
        <time>2019-01-15T12:09:24Z</time>
      </trkpt>
      <trkpt lat="46.310819769278169" lon="8.244176348671317">
        <ele>1896.3399999999999</ele>
        <time>2019-01-15T12:09:28Z</time>
      </trkpt>
      <trkpt lat="46.310829911381006" lon="8.244184227660298">
        <ele>1896.3399999999999</ele>
        <time>2019-01-15T12:09:29Z</time>
      </trkpt>
      <trkpt lat="46.310839634388685" lon="8.244194453582168">
        <ele>1895.8599999999999</ele>
        <time>2019-01-15T12:09:30Z</time>
      </trkpt>
      <trkpt lat="46.310848100110888" lon="8.244205014780164">
        <ele>1895.3800000000001</ele>
        <time>2019-01-15T12:09:31Z</time>
      </trkpt>
      <trkpt lat="46.31085941568017" lon="8.244217755272985">
        <ele>1895.3800000000001</ele>
        <time>2019-01-15T12:09:32Z</time>
      </trkpt>
      <trkpt lat="46.310870479792356" lon="8.24422630481422">
        <ele>1895.3800000000001</ele>
        <time>2019-01-15T12:09:33Z</time>
      </trkpt>
      <trkpt lat="46.310881376266479" lon="8.244236279278994">
        <ele>1895.3800000000001</ele>
        <time>2019-01-15T12:09:34Z</time>
      </trkpt>
      <trkpt lat="46.310887914150953" lon="8.244252791628242">
        <ele>1895.3800000000001</ele>
        <time>2019-01-15T12:09:35Z</time>
      </trkpt>
      <trkpt lat="46.310893949121237" lon="8.244268130511046">
        <ele>1894.9000000000001</ele>
        <time>2019-01-15T12:09:36Z</time>
      </trkpt>
      <trkpt lat="46.310961423441768" lon="8.244398217648268">
        <ele>1892.97</ele>
        <time>2019-01-15T12:09:46Z</time>
      </trkpt>
      <trkpt lat="46.311007523909211" lon="8.244490250945091">
        <ele>1892.97</ele>
        <time>2019-01-15T12:09:53Z</time>
      </trkpt>
      <trkpt lat="46.311035938560963" lon="8.244558479636908">
        <ele>1890.5699999999999</ele>
        <time>2019-01-15T12:09:58Z</time>
      </trkpt>
      <trkpt lat="46.31108664907515" lon="8.244661577045918">
        <ele>1887.21</ele>
        <time>2019-01-15T12:10:06Z</time>
      </trkpt>
      <trkpt lat="46.311140628531575" lon="8.24476869776845">
        <ele>1885.76</ele>
        <time>2019-01-15T12:10:16Z</time>
      </trkpt>
      <trkpt lat="46.311140963807702" lon="8.244760315865278">
        <ele>1883.3599999999999</ele>
        <time>2019-01-15T12:10:21Z</time>
      </trkpt>
      <trkpt lat="46.311144232749939" lon="8.244765847921372">
        <ele>1880</ele>
        <time>2019-01-15T12:10:27Z</time>
      </trkpt>
      <trkpt lat="46.311146495863795" lon="8.244754783809185">
        <ele>1879.51</ele>
        <time>2019-01-15T12:10:29Z</time>
      </trkpt>
      <trkpt lat="46.31116091273725" lon="8.244793927296996">
        <ele>1880.96</ele>
        <time>2019-01-15T12:10:39Z</time>
      </trkpt>
      <trkpt lat="46.311140796169639" lon="8.244772218167782">
        <ele>1884.3199999999999</ele>
        <time>2019-01-15T12:10:51Z</time>
      </trkpt>
      <trkpt lat="46.311140293255448" lon="8.244766434654594">
        <ele>1885.28</ele>
        <time>2019-01-15T12:10:53Z</time>
      </trkpt>
      <trkpt lat="46.311138281598687" lon="8.244743216782808">
        <ele>1888.1700000000001</ele>
        <time>2019-01-15T12:11:07Z</time>
      </trkpt>
      <trkpt lat="46.311133839190006" lon="8.244722597301006">
        <ele>1892.01</ele>
        <time>2019-01-15T12:11:19Z</time>
      </trkpt>
      <trkpt lat="46.311179101467133" lon="8.244810104370117">
        <ele>1891.53</ele>
        <time>2019-01-15T12:11:32Z</time>
      </trkpt>
      <trkpt lat="46.311187483370304" lon="8.244823850691319">
        <ele>1891.05</ele>
        <time>2019-01-15T12:11:33Z</time>
      </trkpt>
      <trkpt lat="46.311230733990669" lon="8.244880344718695">
        <ele>1890.5699999999999</ele>
        <time>2019-01-15T12:11:38Z</time>
      </trkpt>
      <trkpt lat="46.311241630464792" lon="8.244894174858928">
        <ele>1890.0899999999999</ele>
        <time>2019-01-15T12:11:39Z</time>
      </trkpt>
      <trkpt lat="46.311298375949264" lon="8.244958464056253">
        <ele>1888.1700000000001</ele>
        <time>2019-01-15T12:11:45Z</time>
      </trkpt>
      <trkpt lat="46.311311535537243" lon="8.244984112679958">
        <ele>1887.21</ele>
        <time>2019-01-15T12:11:47Z</time>
      </trkpt>
      <trkpt lat="46.311320587992668" lon="8.244996685534716">
        <ele>1886.72</ele>
        <time>2019-01-15T12:11:48Z</time>
      </trkpt>
      <trkpt lat="46.311338357627392" lon="8.245011186227202">
        <ele>1886.72</ele>
        <time>2019-01-15T12:11:50Z</time>
      </trkpt>
      <trkpt lat="46.311379009857774" lon="8.245034404098988">
        <ele>1885.28</ele>
        <time>2019-01-15T12:11:56Z</time>
      </trkpt>
      <trkpt lat="46.311397282406688" lon="8.245058795437217">
        <ele>1884.8</ele>
        <time>2019-01-15T12:11:58Z</time>
      </trkpt>
      <trkpt lat="46.311410693451762" lon="8.245091065764427">
        <ele>1884.3199999999999</ele>
        <time>2019-01-15T12:12:00Z</time>
      </trkpt>
      <trkpt lat="46.311417398974299" lon="8.245108332484961">
        <ele>1884.3199999999999</ele>
        <time>2019-01-15T12:12:01Z</time>
      </trkpt>
      <trkpt lat="46.311425780877471" lon="8.245124593377113">
        <ele>1883.3599999999999</ele>
        <time>2019-01-15T12:12:02Z</time>
      </trkpt>
      <trkpt lat="46.311480682343245" lon="8.245213776826859">
        <ele>1881.4400000000001</ele>
        <time>2019-01-15T12:12:09Z</time>
      </trkpt>
      <trkpt lat="46.311534577980638" lon="8.245339505374432">
        <ele>1878.55</ele>
        <time>2019-01-15T12:12:19Z</time>
      </trkpt>
      <trkpt lat="46.311541115865111" lon="8.245354173704982">
        <ele>1878.0699999999999</ele>
        <time>2019-01-15T12:12:20Z</time>
      </trkpt>
      <trkpt lat="46.311557125300169" lon="8.245385438203812">
        <ele>1878.0699999999999</ele>
        <time>2019-01-15T12:12:22Z</time>
      </trkpt>
      <trkpt lat="46.311572045087814" lon="8.245409494265914">
        <ele>1877.1099999999999</ele>
        <time>2019-01-15T12:12:24Z</time>
      </trkpt>
      <trkpt lat="46.311580510810018" lon="8.245418043807149">
        <ele>1877.1099999999999</ele>
        <time>2019-01-15T12:12:25Z</time>
      </trkpt>
      <trkpt lat="46.311644297093153" lon="8.2455397490412">
        <ele>1874.71</ele>
        <time>2019-01-15T12:12:34Z</time>
      </trkpt>
      <trkpt lat="46.311703557148576" lon="8.245609570294619">
        <ele>1872.3</ele>
        <time>2019-01-15T12:12:41Z</time>
      </trkpt>
      <trkpt lat="46.311794500797987" lon="8.245663717389107">
        <ele>1869.9000000000001</ele>
        <time>2019-01-15T12:12:49Z</time>
      </trkpt>
      <trkpt lat="46.31183473393321" lon="8.245683079585433">
        <ele>1866.54</ele>
        <time>2019-01-15T12:12:54Z</time>
      </trkpt>
      <trkpt lat="46.311845881864429" lon="8.24568341486156">
        <ele>1865.0899999999999</ele>
        <time>2019-01-15T12:12:56Z</time>
      </trkpt>
      <trkpt lat="46.311857113614678" lon="8.245685258880258">
        <ele>1864.6099999999999</ele>
        <time>2019-01-15T12:12:57Z</time>
      </trkpt>
      <trkpt lat="46.311901705339551" lon="8.245697747915983">
        <ele>1861.25</ele>
        <time>2019-01-15T12:13:04Z</time>
      </trkpt>
      <trkpt lat="46.311928946524858" lon="8.245686767622829">
        <ele>1857.4000000000001</ele>
        <time>2019-01-15T12:13:10Z</time>
      </trkpt>
      <trkpt lat="46.311993738636374" lon="8.245725240558386">
        <ele>1854.52</ele>
        <time>2019-01-15T12:13:19Z</time>
      </trkpt>
      <trkpt lat="46.312039336189628" lon="8.245755583047867">
        <ele>1854.04</ele>
        <time>2019-01-15T12:13:23Z</time>
      </trkpt>
      <trkpt lat="46.312051992863417" lon="8.245768574997783">
        <ele>1853.5599999999999</ele>
        <time>2019-01-15T12:13:24Z</time>
      </trkpt>
      <trkpt lat="46.312063978984952" lon="8.245783243328333">
        <ele>1853.0799999999999</ele>
        <time>2019-01-15T12:13:25Z</time>
      </trkpt>
      <trkpt lat="46.312119215726852" lon="8.245825991034508">
        <ele>1850.6800000000001</ele>
        <time>2019-01-15T12:13:30Z</time>
      </trkpt>
      <trkpt lat="46.312190210446715" lon="8.24589354917407">
        <ele>1847.3099999999999</ele>
        <time>2019-01-15T12:13:38Z</time>
      </trkpt>
      <trkpt lat="46.312212506309152" lon="8.245912827551365">
        <ele>1846.8299999999999</ele>
        <time>2019-01-15T12:13:44Z</time>
      </trkpt>
      <trkpt lat="46.312213931232691" lon="8.245919784530997">
        <ele>1846.3499999999999</ele>
        <time>2019-01-15T12:13:45Z</time>
      </trkpt>
      <trkpt lat="46.312249973416328" lon="8.245977871119976">
        <ele>1846.8299999999999</ele>
        <time>2019-01-15T12:13:52Z</time>
      </trkpt>
      <trkpt lat="46.312305210158229" lon="8.246027659624815">
        <ele>1845.8699999999999</ele>
        <time>2019-01-15T12:14:00Z</time>
      </trkpt>
      <trkpt lat="46.312369080260396" lon="8.246034029871225">
        <ele>1846.8299999999999</ele>
        <time>2019-01-15T12:14:08Z</time>
      </trkpt>
      <trkpt lat="46.312394561246037" lon="8.246031431481242">
        <ele>1846.8299999999999</ele>
        <time>2019-01-15T12:14:11Z</time>
      </trkpt>
      <trkpt lat="46.312469663098454" lon="8.246053475886583">
        <ele>1845.8699999999999</ele>
        <time>2019-01-15T12:14:21Z</time>
      </trkpt>
      <trkpt lat="46.312508890405297" lon="8.246049704030156">
        <ele>1843.47</ele>
        <time>2019-01-15T12:14:27Z</time>
      </trkpt>
      <trkpt lat="46.312520122155547" lon="8.246043836697936">
        <ele>1842.5</ele>
        <time>2019-01-15T12:14:29Z</time>
      </trkpt>
      <trkpt lat="46.312535041943192" lon="8.246045177802444">
        <ele>1842.02</ele>
        <time>2019-01-15T12:14:30Z</time>
      </trkpt>
      <trkpt lat="46.312606874853373" lon="8.246117094531655">
        <ele>1839.6199999999999</ele>
        <time>2019-01-15T12:14:38Z</time>
      </trkpt>
      <trkpt lat="46.312656747177243" lon="8.246176270768046">
        <ele>1838.1800000000001</ele>
        <time>2019-01-15T12:14:45Z</time>
      </trkpt>
      <trkpt lat="46.312676863744855" lon="8.246215498074889">
        <ele>1837.22</ele>
        <time>2019-01-15T12:14:49Z</time>
      </trkpt>
      <trkpt lat="46.312685664743185" lon="8.24622823856771">
        <ele>1836.74</ele>
        <time>2019-01-15T12:14:50Z</time>
      </trkpt>
      <trkpt lat="46.312739728018641" lon="8.24631423689425">
        <ele>1833.8499999999999</ele>
        <time>2019-01-15T12:14:58Z</time>
      </trkpt>
      <trkpt lat="46.312775770202279" lon="8.246372239664197">
        <ele>1831.9300000000001</ele>
        <time>2019-01-15T12:15:05Z</time>
      </trkpt>
      <trkpt lat="46.312804184854031" lon="8.246404761448503">
        <ele>1831.45</ele>
        <time>2019-01-15T12:15:09Z</time>
      </trkpt>
      <trkpt lat="46.31286378018558" lon="8.24644323438406">
        <ele>1830.49</ele>
        <time>2019-01-15T12:15:16Z</time>
      </trkpt>
      <trkpt lat="46.312906863167882" lon="8.24653803370893">
        <ele>1830.01</ele>
        <time>2019-01-15T12:15:25Z</time>
      </trkpt>
      <trkpt lat="46.31296000443399" lon="8.246608441695571">
        <ele>1830.49</ele>
        <time>2019-01-15T12:15:33Z</time>
      </trkpt>
      <trkpt lat="46.313042566180229" lon="8.246656386181712">
        <ele>1829.53</ele>
        <time>2019-01-15T12:15:41Z</time>
      </trkpt>
      <trkpt lat="46.313053881749511" lon="8.246665690094233">
        <ele>1829.05</ele>
        <time>2019-01-15T12:15:42Z</time>
      </trkpt>
      <trkpt lat="46.31308464333415" lon="8.246691087260842">
        <ele>1827.5999999999999</ele>
        <time>2019-01-15T12:15:45Z</time>
      </trkpt>
      <trkpt lat="46.313137365505099" lon="8.246762584894896">
        <ele>1826.1600000000001</ele>
        <time>2019-01-15T12:15:53Z</time>
      </trkpt>
      <trkpt lat="46.31315253674984" lon="8.246784964576364">
        <ele>1825.2</ele>
        <time>2019-01-15T12:15:55Z</time>
      </trkpt>
      <trkpt lat="46.313167959451675" lon="8.246804662048817">
        <ele>1825.2</ele>
        <time>2019-01-15T12:15:57Z</time>
      </trkpt>
      <trkpt lat="46.31321020424366" lon="8.246877668425441">
        <ele>1823.28</ele>
        <time>2019-01-15T12:16:04Z</time>
      </trkpt>
      <trkpt lat="46.31321799941361" lon="8.246892588213086">
        <ele>1822.8</ele>
        <time>2019-01-15T12:16:05Z</time>
      </trkpt>
      <trkpt lat="46.313268709927797" lon="8.246975066140294">
        <ele>1821.3499999999999</ele>
        <time>2019-01-15T12:16:12Z</time>
      </trkpt>
      <trkpt lat="46.313291843980551" lon="8.247004738077521">
        <ele>1820.8699999999999</ele>
        <time>2019-01-15T12:16:15Z</time>
      </trkpt>
      <trkpt lat="46.313297208398581" lon="8.247020998969674">
        <ele>1820.3900000000001</ele>
        <time>2019-01-15T12:16:16Z</time>
      </trkpt>
      <trkpt lat="46.313360575586557" lon="8.247106829658151">
        <ele>1818.95</ele>
        <time>2019-01-15T12:16:25Z</time>
      </trkpt>
      <trkpt lat="46.313384547829628" lon="8.247105907648802">
        <ele>1817.99</ele>
        <time>2019-01-15T12:16:27Z</time>
      </trkpt>
      <trkpt lat="46.313450848683715" lon="8.247120995074511">
        <ele>1817.99</ele>
        <time>2019-01-15T12:16:34Z</time>
      </trkpt>
      <trkpt lat="46.313496781513095" lon="8.247131053358316">
        <ele>1816.55</ele>
        <time>2019-01-15T12:16:40Z</time>
      </trkpt>
      <trkpt lat="46.313561238348484" lon="8.24716592207551">
        <ele>1815.1099999999999</ele>
        <time>2019-01-15T12:16:49Z</time>
      </trkpt>
      <trkpt lat="46.313645141199231" lon="8.247193582355976">
        <ele>1813.1800000000001</ele>
        <time>2019-01-15T12:16:59Z</time>
      </trkpt>
      <trkpt lat="46.313709933310747" lon="8.247186541557312">
        <ele>1812.22</ele>
        <time>2019-01-15T12:17:07Z</time>
      </trkpt>
      <trkpt lat="46.313770953565836" lon="8.247196432203054">
        <ele>1810.3</ele>
        <time>2019-01-15T12:17:16Z</time>
      </trkpt>
      <trkpt lat="46.313788471743464" lon="8.247210513800383">
        <ele>1809.8199999999999</ele>
        <time>2019-01-15T12:17:18Z</time>
      </trkpt>
      <trkpt lat="46.313835075125098" lon="8.247228702530265">
        <ele>1806.9400000000001</ele>
        <time>2019-01-15T12:17:26Z</time>
      </trkpt>
      <trkpt lat="46.313887713477015" lon="8.247253680601716">
        <ele>1804.53</ele>
        <time>2019-01-15T12:17:32Z</time>
      </trkpt>
      <trkpt lat="46.313898274675012" lon="8.247250160202384">
        <ele>1804.53</ele>
        <time>2019-01-15T12:17:33Z</time>
      </trkpt>
      <trkpt lat="46.313961641862988" lon="8.24726365506649">
        <ele>1802.1300000000001</ele>
        <time>2019-01-15T12:17:40Z</time>
      </trkpt>
      <trkpt lat="46.313982428982854" lon="8.247267929837108">
        <ele>1800.6900000000001</ele>
        <time>2019-01-15T12:17:43Z</time>
      </trkpt>
      <trkpt lat="46.3140266854316" lon="8.247271198779345">
        <ele>1798.76</ele>
        <time>2019-01-15T12:17:50Z</time>
      </trkpt>
      <trkpt lat="46.314100949093699" lon="8.24730958789587">
        <ele>1795.4000000000001</ele>
        <time>2019-01-15T12:17:58Z</time>
      </trkpt>
      <trkpt lat="46.314124837517738" lon="8.247347977012396">
        <ele>1793.96</ele>
        <time>2019-01-15T12:18:03Z</time>
      </trkpt>
      <trkpt lat="46.314142858609557" lon="8.247343031689525">
        <ele>1791.55</ele>
        <time>2019-01-15T12:18:06Z</time>
      </trkpt>
      <trkpt lat="46.314214607700706" lon="8.247328950092197">
        <ele>1789.6300000000001</ele>
        <time>2019-01-15T12:18:15Z</time>
      </trkpt>
      <trkpt lat="46.314241345971823" lon="8.247321909293532">
        <ele>1788.6700000000001</ele>
        <time>2019-01-15T12:18:22Z</time>
      </trkpt>
      <trkpt lat="46.314265318214893" lon="8.247309252619743">
        <ele>1787.23</ele>
        <time>2019-01-15T12:18:28Z</time>
      </trkpt>
      <trkpt lat="46.314278142526746" lon="8.247305480763316">
        <ele>1786.75</ele>
        <time>2019-01-15T12:18:30Z</time>
      </trkpt>
      <trkpt lat="46.314329523593187" lon="8.247381588444114">
        <ele>1784.8199999999999</ele>
        <time>2019-01-15T12:18:40Z</time>
      </trkpt>
      <trkpt lat="46.314386017620564" lon="8.247509999200702">
        <ele>1783.8599999999999</ele>
        <time>2019-01-15T12:18:52Z</time>
      </trkpt>
      <trkpt lat="46.3144342135638" lon="8.247550399973989">
        <ele>1780.5</ele>
        <time>2019-01-15T12:18:59Z</time>
      </trkpt>
      <trkpt lat="46.314484588801861" lon="8.247572109103203">
        <ele>1778.5799999999999</ele>
        <time>2019-01-15T12:19:07Z</time>
      </trkpt>
      <trkpt lat="46.314499424770474" lon="8.247592560946941">
        <ele>1776.6500000000001</ele>
        <time>2019-01-15T12:19:14Z</time>
      </trkpt>
      <trkpt lat="46.314548710361123" lon="8.247596248984337">
        <ele>1776.1700000000001</ele>
        <time>2019-01-15T12:19:22Z</time>
      </trkpt>
      <trkpt lat="46.314553068950772" lon="8.247585352510214">
        <ele>1775.6900000000001</ele>
        <time>2019-01-15T12:19:24Z</time>
      </trkpt>
      <trkpt lat="46.314560612663627" lon="8.247578646987677">
        <ele>1775.21</ele>
        <time>2019-01-15T12:19:25Z</time>
      </trkpt>
      <trkpt lat="46.314570503309369" lon="8.247571773827076">
        <ele>1774.73</ele>
        <time>2019-01-15T12:19:26Z</time>
      </trkpt>
      <trkpt lat="46.314659435302019" lon="8.247587364166975">
        <ele>1771.8499999999999</ele>
        <time>2019-01-15T12:19:35Z</time>
      </trkpt>
      <trkpt lat="46.314666727557778" lon="8.247599601745606">
        <ele>1771.3699999999999</ele>
        <time>2019-01-15T12:19:36Z</time>
      </trkpt>
      <trkpt lat="46.314691035076976" lon="8.24763941578567">
        <ele>1769.4400000000001</ele>
        <time>2019-01-15T12:19:40Z</time>
      </trkpt>
      <trkpt lat="46.314738811925054" lon="8.247664729133248">
        <ele>1768.48</ele>
        <time>2019-01-15T12:19:46Z</time>
      </trkpt>
      <trkpt lat="46.314768232405186" lon="8.247686438262463">
        <ele>1768.48</ele>
        <time>2019-01-15T12:19:49Z</time>
      </trkpt>
      <trkpt lat="46.314754653722048" lon="8.247720384970307">
        <ele>1766.5599999999999</ele>
        <time>2019-01-15T12:19:57Z</time>
      </trkpt>
      <trkpt lat="46.314761526882648" lon="8.247696748003364">
        <ele>1766.5599999999999</ele>
        <time>2019-01-15T12:20:06Z</time>
      </trkpt>
      <trkpt lat="46.314809136092663" lon="8.247726336121559">
        <ele>1767.04</ele>
        <time>2019-01-15T12:20:13Z</time>
      </trkpt>
      <trkpt lat="46.314857164397836" lon="8.247777046635747">
        <ele>1765.5999999999999</ele>
        <time>2019-01-15T12:20:22Z</time>
      </trkpt>
      <trkpt lat="46.314822295680642" lon="8.247779812663794">
        <ele>1766.5599999999999</ele>
        <time>2019-01-15T12:20:32Z</time>
      </trkpt>
      <trkpt lat="46.314810980111361" lon="8.247754834592342">
        <ele>1768</ele>
        <time>2019-01-15T12:20:43Z</time>
      </trkpt>
      <trkpt lat="46.31484123878181" lon="8.247795151546598">
        <ele>1766.5599999999999</ele>
        <time>2019-01-15T12:20:53Z</time>
      </trkpt>
      <trkpt lat="46.314819026738405" lon="8.247801270335913">
        <ele>1765.5999999999999</ele>
        <time>2019-01-15T12:21:08Z</time>
      </trkpt>
      <trkpt lat="46.314805280417204" lon="8.247801270335913">
        <ele>1768</ele>
        <time>2019-01-15T12:21:18Z</time>
      </trkpt>
      <trkpt lat="46.314800335094333" lon="8.247794564813376">
        <ele>1768.96</ele>
        <time>2019-01-15T12:21:34Z</time>
      </trkpt>
      <trkpt lat="46.314766723662615" lon="8.247814513742924">
        <ele>1771.3699999999999</ele>
        <time>2019-01-15T12:21:53Z</time>
      </trkpt>
      <trkpt lat="46.314802346751094" lon="8.247848208993673">
        <ele>1769.9200000000001</ele>
        <time>2019-01-15T12:22:07Z</time>
      </trkpt>
      <trkpt lat="46.314810812473297" lon="8.247853070497513">
        <ele>1773.29</ele>
        <time>2019-01-15T12:22:18Z</time>
      </trkpt>
      <trkpt lat="46.31482070311904" lon="8.247834546491504">
        <ele>1774.73</ele>
        <time>2019-01-15T12:22:33Z</time>
      </trkpt>
      <trkpt lat="46.314833024516702" lon="8.247853573411703">
        <ele>1775.21</ele>
        <time>2019-01-15T12:22:46Z</time>
      </trkpt>
      <trkpt lat="46.314834700897336" lon="8.247873354703188">
        <ele>1775.21</ele>
        <time>2019-01-15T12:23:05Z</time>
      </trkpt>
      <trkpt lat="46.314859678968787" lon="8.247886011376977">
        <ele>1771.3699999999999</ele>
        <time>2019-01-15T12:23:10Z</time>
      </trkpt>
      <trkpt lat="46.314870323985815" lon="8.24788760393858">
        <ele>1769.9200000000001</ele>
        <time>2019-01-15T12:23:12Z</time>
      </trkpt>
      <trkpt lat="46.314913490787148" lon="8.247883664444089">
        <ele>1768</ele>
        <time>2019-01-15T12:23:17Z</time>
      </trkpt>
      <trkpt lat="46.314949784427881" lon="8.247892130166292">
        <ele>1765.5999999999999</ele>
        <time>2019-01-15T12:23:21Z</time>
      </trkpt>
      <trkpt lat="46.315007116645575" lon="8.247976871207357">
        <ele>1764.1600000000001</ele>
        <time>2019-01-15T12:23:30Z</time>
      </trkpt>
      <trkpt lat="46.315046511590481" lon="8.24804593808949">
        <ele>1763.6800000000001</ele>
        <time>2019-01-15T12:23:38Z</time>
      </trkpt>
      <trkpt lat="46.315071070566773" lon="8.248077370226383">
        <ele>1764.1600000000001</ele>
        <time>2019-01-15T12:23:41Z</time>
      </trkpt>
      <trkpt lat="46.315083811059594" lon="8.24808600358665">
        <ele>1763.6800000000001</ele>
        <time>2019-01-15T12:23:42Z</time>
      </trkpt>
      <trkpt lat="46.315114069730043" lon="8.248107293620706">
        <ele>1760.3099999999999</ele>
        <time>2019-01-15T12:23:45Z</time>
      </trkpt>
      <trkpt lat="46.315125804394484" lon="8.248122213408351">
        <ele>1759.8299999999999</ele>
        <time>2019-01-15T12:23:47Z</time>
      </trkpt>
      <trkpt lat="46.315184561535716" lon="8.24820620007813">
        <ele>1758.8699999999999</ele>
        <time>2019-01-15T12:23:55Z</time>
      </trkpt>
      <trkpt lat="46.31521943025291" lon="8.248247355222702">
        <ele>1757.9100000000001</ele>
        <time>2019-01-15T12:23:59Z</time>
      </trkpt>
      <trkpt lat="46.315262513235211" lon="8.248318936675787">
        <ele>1756.95</ele>
        <time>2019-01-15T12:24:07Z</time>
      </trkpt>
      <trkpt lat="46.315366365015507" lon="8.248401749879122">
        <ele>1755.99</ele>
        <time>2019-01-15T12:24:18Z</time>
      </trkpt>
      <trkpt lat="46.315398635342717" lon="8.248454304412007">
        <ele>1755.02</ele>
        <time>2019-01-15T12:24:23Z</time>
      </trkpt>
      <trkpt lat="46.315481783822179" lon="8.248530412092805">
        <ele>1753.5799999999999</ele>
        <time>2019-01-15T12:24:32Z</time>
      </trkpt>
      <trkpt lat="46.315545653924346" lon="8.24859319254756">
        <ele>1751.6600000000001</ele>
        <time>2019-01-15T12:24:40Z</time>
      </trkpt>
      <trkpt lat="46.315598543733358" lon="8.24864306487143">
        <ele>1750.22</ele>
        <time>2019-01-15T12:24:47Z</time>
      </trkpt>
      <trkpt lat="46.315616900101304" lon="8.24864599853754">
        <ele>1748.78</ele>
        <time>2019-01-15T12:24:49Z</time>
      </trkpt>
      <trkpt lat="46.315649505704641" lon="8.248673994094133">
        <ele>1747.8099999999999</ele>
        <time>2019-01-15T12:24:53Z</time>
      </trkpt>
      <trkpt lat="46.315700216218829" lon="8.24874565936625">
        <ele>1745.4100000000001</ele>
        <time>2019-01-15T12:25:00Z</time>
      </trkpt>
      <trkpt lat="46.315748998895288" lon="8.248817827552557">
        <ele>1742.05</ele>
        <time>2019-01-15T12:25:09Z</time>
      </trkpt>
      <trkpt lat="46.315807420760393" lon="8.248838111758232">
        <ele>1740.5999999999999</ele>
        <time>2019-01-15T12:25:18Z</time>
      </trkpt>
      <trkpt lat="46.315875900909305" lon="8.248883206397295">
        <ele>1737.72</ele>
        <time>2019-01-15T12:25:26Z</time>
      </trkpt>
      <trkpt lat="46.31597438827157" lon="8.248977670446038">
        <ele>1738.2</ele>
        <time>2019-01-15T12:25:37Z</time>
      </trkpt>
      <trkpt lat="46.316020069643855" lon="8.249027039855719">
        <ele>1737.72</ele>
        <time>2019-01-15T12:25:45Z</time>
      </trkpt>
      <trkpt lat="46.316026691347361" lon="8.249032739549875">
        <ele>1737.72</ele>
        <time>2019-01-15T12:25:46Z</time>
      </trkpt>
      <trkpt lat="46.316081760451198" lon="8.249038858339191">
        <ele>1737.72</ele>
        <time>2019-01-15T12:25:55Z</time>
      </trkpt>
      <trkpt lat="46.316142613068223" lon="8.249043887481093">
        <ele>1734.3599999999999</ele>
        <time>2019-01-15T12:26:06Z</time>
      </trkpt>
      <trkpt lat="46.316139763221145" lon="8.24905495159328">
        <ele>1731.95</ele>
        <time>2019-01-15T12:26:10Z</time>
      </trkpt>
      <trkpt lat="46.31614395417273" lon="8.249051263555884">
        <ele>1728.1099999999999</ele>
        <time>2019-01-15T12:26:15Z</time>
      </trkpt>
      <trkpt lat="46.316169770434499" lon="8.248981693759561">
        <ele>1727.1500000000001</ele>
        <time>2019-01-15T12:26:27Z</time>
      </trkpt>
      <trkpt lat="46.316201621666551" lon="8.248986806720495">
        <ele>1727.1500000000001</ele>
        <time>2019-01-15T12:26:32Z</time>
      </trkpt>
      <trkpt lat="46.316209752112627" lon="8.24900365434587">
        <ele>1727.1500000000001</ele>
        <time>2019-01-15T12:26:33Z</time>
      </trkpt>
      <trkpt lat="46.31621478125453" lon="8.249094011262059">
        <ele>1723.78</ele>
        <time>2019-01-15T12:26:41Z</time>
      </trkpt>
      <trkpt lat="46.316220732405782" lon="8.249123515561223">
        <ele>1722.8199999999999</ele>
        <time>2019-01-15T12:26:43Z</time>
      </trkpt>
      <trkpt lat="46.31622601300478" lon="8.249202640727162">
        <ele>1720.9000000000001</ele>
        <time>2019-01-15T12:26:49Z</time>
      </trkpt>
      <trkpt lat="46.316179661080241" lon="8.249242873862386">
        <ele>1719.46</ele>
        <time>2019-01-15T12:26:55Z</time>
      </trkpt>
      <trkpt lat="46.316085029393435" lon="8.249320909380913">
        <ele>1718.01</ele>
        <time>2019-01-15T12:27:06Z</time>
      </trkpt>
      <trkpt lat="46.316079078242183" lon="8.249331805855036">
        <ele>1718.49</ele>
        <time>2019-01-15T12:27:07Z</time>
      </trkpt>
      <trkpt lat="46.316067092120647" lon="8.24933934956789">
        <ele>1718.49</ele>
        <time>2019-01-15T12:27:08Z</time>
      </trkpt>
      <trkpt lat="46.316054183989763" lon="8.249342283234">
        <ele>1717.53</ele>
        <time>2019-01-15T12:27:09Z</time>
      </trkpt>
      <trkpt lat="46.316022081300616" lon="8.249413529410958">
        <ele>1714.1700000000001</ele>
        <time>2019-01-15T12:27:16Z</time>
      </trkpt>
      <trkpt lat="46.315979920327663" lon="8.249490056186914">
        <ele>1710.8</ele>
        <time>2019-01-15T12:27:24Z</time>
      </trkpt>
      <trkpt lat="46.315957875922322" lon="8.249571276828647">
        <ele>1708.4000000000001</ele>
        <time>2019-01-15T12:27:31Z</time>
      </trkpt>
      <trkpt lat="46.315950332209468" lon="8.249586950987577">
        <ele>1707.9200000000001</ele>
        <time>2019-01-15T12:27:32Z</time>
      </trkpt>
      <trkpt lat="46.315902974456549" lon="8.249631794169545">
        <ele>1705.04</ele>
        <time>2019-01-15T12:27:38Z</time>
      </trkpt>
      <trkpt lat="46.315888641402125" lon="8.24964914470911">
        <ele>1705.52</ele>
        <time>2019-01-15T12:27:40Z</time>
      </trkpt>
      <trkpt lat="46.315876822918653" lon="8.249670015648007">
        <ele>1704.55</ele>
        <time>2019-01-15T12:27:42Z</time>
      </trkpt>
      <trkpt lat="46.315816137939692" lon="8.249771436676383">
        <ele>1704.0699999999999</ele>
        <time>2019-01-15T12:27:51Z</time>
      </trkpt>
      <trkpt lat="46.315781939774752" lon="8.24986606836319">
        <ele>1702.1500000000001</ele>
        <time>2019-01-15T12:28:01Z</time>
      </trkpt>
      <trkpt lat="46.31579996086657" lon="8.249868247658014">
        <ele>1700.71</ele>
        <time>2019-01-15T12:28:04Z</time>
      </trkpt>
      <trkpt lat="46.315839188173413" lon="8.249834552407265">
        <ele>1699.75</ele>
        <time>2019-01-15T12:28:10Z</time>
      </trkpt>
      <trkpt lat="46.315888054668903" lon="8.249863050878048">
        <ele>1698.79</ele>
        <time>2019-01-15T12:28:16Z</time>
      </trkpt>
      <trkpt lat="46.315882606431842" lon="8.249879982322455">
        <ele>1698.3099999999999</ele>
        <time>2019-01-15T12:28:17Z</time>
      </trkpt>
      <trkpt lat="46.315867099910975" lon="8.249919125810266">
        <ele>1696.8599999999999</ele>
        <time>2019-01-15T12:28:20Z</time>
      </trkpt>
      <trkpt lat="46.315858634188771" lon="8.249927423894405">
        <ele>1696.8599999999999</ele>
        <time>2019-01-15T12:28:21Z</time>
      </trkpt>
      <trkpt lat="46.315832147374749" lon="8.249948713928461">
        <ele>1696.3800000000001</ele>
        <time>2019-01-15T12:28:25Z</time>
      </trkpt>
      <trkpt lat="46.31582141853869" lon="8.249955754727125">
        <ele>1696.3800000000001</ele>
        <time>2019-01-15T12:28:26Z</time>
      </trkpt>
      <trkpt lat="46.315811779350042" lon="8.249965142458677">
        <ele>1695.9000000000001</ele>
        <time>2019-01-15T12:28:27Z</time>
      </trkpt>
      <trkpt lat="46.31571396254003" lon="8.250010153278709">
        <ele>1695.4200000000001</ele>
        <time>2019-01-15T12:28:37Z</time>
      </trkpt>
      <trkpt lat="46.315701557323337" lon="8.250017780810595">
        <ele>1694.9400000000001</ele>
        <time>2019-01-15T12:28:38Z</time>
      </trkpt>
      <trkpt lat="46.315603153780103" lon="8.250080309808254">
        <ele>1693.5</ele>
        <time>2019-01-15T12:28:47Z</time>
      </trkpt>
      <trkpt lat="46.315498882904649" lon="8.250119285658002">
        <ele>1693.5</ele>
        <time>2019-01-15T12:28:57Z</time>
      </trkpt>
      <trkpt lat="46.315488070249557" lon="8.250119872391224">
        <ele>1693.5</ele>
        <time>2019-01-15T12:28:58Z</time>
      </trkpt>
      <trkpt lat="46.315471809357405" lon="8.250126326456666">
        <ele>1693.02</ele>
        <time>2019-01-15T12:29:01Z</time>
      </trkpt>
      <trkpt lat="46.315469797700644" lon="8.250143174082041">
        <ele>1693.02</ele>
        <time>2019-01-15T12:29:02Z</time>
      </trkpt>
      <trkpt lat="46.315438700839877" lon="8.250292036682367">
        <ele>1693.5</ele>
        <time>2019-01-15T12:29:12Z</time>
      </trkpt>
      <trkpt lat="46.315426463261247" lon="8.250323720276356">
        <ele>1693.98</ele>
        <time>2019-01-15T12:29:14Z</time>
      </trkpt>
      <trkpt lat="46.315377596765757" lon="8.250394631177187">
        <ele>1693.98</ele>
        <time>2019-01-15T12:29:21Z</time>
      </trkpt>
      <trkpt lat="46.315305177122355" lon="8.250440480187535">
        <ele>1693.02</ele>
        <time>2019-01-15T12:29:29Z</time>
      </trkpt>
      <trkpt lat="46.315302327275276" lon="8.250456741079688">
        <ele>1693.02</ele>
        <time>2019-01-15T12:29:30Z</time>
      </trkpt>
      <trkpt lat="46.315262680873275" lon="8.250529495999217">
        <ele>1692.0599999999999</ele>
        <time>2019-01-15T12:29:36Z</time>
      </trkpt>
      <trkpt lat="46.315247258171439" lon="8.250583056360483">
        <ele>1691.0999999999999</ele>
        <time>2019-01-15T12:29:40Z</time>
      </trkpt>
      <trkpt lat="46.315230913460255" lon="8.250627480447292">
        <ele>1689.1700000000001</ele>
        <time>2019-01-15T12:29:44Z</time>
      </trkpt>
      <trkpt lat="46.315222699195147" lon="8.250636449083686">
        <ele>1688.6900000000001</ele>
        <time>2019-01-15T12:29:45Z</time>
      </trkpt>
      <trkpt lat="46.315147932618856" lon="8.250785311684012">
        <ele>1685.3299999999999</ele>
        <time>2019-01-15T12:29:57Z</time>
      </trkpt>
      <trkpt lat="46.315086577087641" lon="8.250883715227246">
        <ele>1684.3699999999999</ele>
        <time>2019-01-15T12:30:05Z</time>
      </trkpt>
      <trkpt lat="46.315035028383136" lon="8.250953536480665">
        <ele>1682.9300000000001</ele>
        <time>2019-01-15T12:30:11Z</time>
      </trkpt>
      <trkpt lat="46.315023377537727" lon="8.250959571450949">
        <ele>1682.9300000000001</ele>
        <time>2019-01-15T12:30:12Z</time>
      </trkpt>
      <trkpt lat="46.315011139959097" lon="8.250965941697359">
        <ele>1682.4400000000001</ele>
        <time>2019-01-15T12:30:13Z</time>
      </trkpt>
      <trkpt lat="46.31490427069366" lon="8.251016568392515">
        <ele>1681</ele>
        <time>2019-01-15T12:30:23Z</time>
      </trkpt>
      <trkpt lat="46.314886165782809" lon="8.251035930588841">
        <ele>1680.52</ele>
        <time>2019-01-15T12:30:25Z</time>
      </trkpt>
      <trkpt lat="46.314876358956099" lon="8.251046575605869">
        <ele>1680.52</ele>
        <time>2019-01-15T12:30:26Z</time>
      </trkpt>
      <trkpt lat="46.314804861322045" lon="8.251126958057284">
        <ele>1680.04</ele>
        <time>2019-01-15T12:30:35Z</time>
      </trkpt>
      <trkpt lat="46.314785750582814" lon="8.251156713813543">
        <ele>1679.0799999999999</ele>
        <time>2019-01-15T12:30:37Z</time>
      </trkpt>
      <trkpt lat="46.314767980948091" lon="8.251188397407532">
        <ele>1679.0799999999999</ele>
        <time>2019-01-15T12:30:39Z</time>
      </trkpt>
      <trkpt lat="46.314754486083984" lon="8.251203317195177">
        <ele>1679.0799999999999</ele>
        <time>2019-01-15T12:30:40Z</time>
      </trkpt>
      <trkpt lat="46.314728586003184" lon="8.251255368813872">
        <ele>1678.1199999999999</ele>
        <time>2019-01-15T12:30:48Z</time>
      </trkpt>
      <trkpt lat="46.314739314839244" lon="8.251288728788495">
        <ele>1677.6400000000001</ele>
        <time>2019-01-15T12:30:51Z</time>
      </trkpt>
      <trkpt lat="46.314730849117041" lon="8.251377996057272">
        <ele>1675.72</ele>
        <time>2019-01-15T12:30:57Z</time>
      </trkpt>
      <trkpt lat="46.314618615433574" lon="8.251484027132392">
        <ele>1672.3499999999999</ele>
        <time>2019-01-15T12:31:09Z</time>
      </trkpt>
      <trkpt lat="46.314613670110703" lon="8.251496432349086">
        <ele>1671.8699999999999</ele>
        <time>2019-01-15T12:31:10Z</time>
      </trkpt>
      <trkpt lat="46.314592966809869" lon="8.251639846712351">
        <ele>1668.99</ele>
        <time>2019-01-15T12:31:20Z</time>
      </trkpt>
      <trkpt lat="46.314582573249936" lon="8.251742776483297">
        <ele>1666.5799999999999</ele>
        <time>2019-01-15T12:31:27Z</time>
      </trkpt>
      <trkpt lat="46.314593721181154" lon="8.25188803486526">
        <ele>1663.7</ele>
        <time>2019-01-15T12:31:36Z</time>
      </trkpt>
      <trkpt lat="46.314603863283992" lon="8.251980403438211">
        <ele>1661.3</ele>
        <time>2019-01-15T12:31:43Z</time>
      </trkpt>
      <trkpt lat="46.314604952931404" lon="8.252095319330692">
        <ele>1658.8900000000001</ele>
        <time>2019-01-15T12:31:51Z</time>
      </trkpt>
      <trkpt lat="46.314623896032572" lon="8.252241751179099">
        <ele>1656.97</ele>
        <time>2019-01-15T12:32:01Z</time>
      </trkpt>
      <trkpt lat="46.314645269885659" lon="8.252344010397792">
        <ele>1655.53</ele>
        <time>2019-01-15T12:32:09Z</time>
      </trkpt>
      <trkpt lat="46.314652729779482" lon="8.252373766154051">
        <ele>1655.53</ele>
        <time>2019-01-15T12:32:11Z</time>
      </trkpt>
      <trkpt lat="46.314658345654607" lon="8.25238742865622">
        <ele>1655.53</ele>
        <time>2019-01-15T12:32:12Z</time>
      </trkpt>
      <trkpt lat="46.314704697579145" lon="8.252484574913979">
        <ele>1652.1600000000001</ele>
        <time>2019-01-15T12:32:20Z</time>
      </trkpt>
      <trkpt lat="46.314766556024551" lon="8.252558335661888">
        <ele>1651.2</ele>
        <time>2019-01-15T12:32:29Z</time>
      </trkpt>
      <trkpt lat="46.31480410695076" lon="8.252588845789433">
        <ele>1652.1600000000001</ele>
        <time>2019-01-15T12:32:33Z</time>
      </trkpt>
      <trkpt lat="46.314836209639907" lon="8.252614578232169">
        <ele>1652.6400000000001</ele>
        <time>2019-01-15T12:32:37Z</time>
      </trkpt>
      <trkpt lat="46.314844088628888" lon="8.252626229077578">
        <ele>1652.6400000000001</ele>
        <time>2019-01-15T12:32:38Z</time>
      </trkpt>
      <trkpt lat="46.314859762787819" lon="8.252655146643519">
        <ele>1653.1199999999999</ele>
        <time>2019-01-15T12:32:46Z</time>
      </trkpt>
      <trkpt lat="46.314868899062276" lon="8.252673083916307">
        <ele>1653.1199999999999</ele>
        <time>2019-01-15T12:32:54Z</time>
      </trkpt>
      <trkpt lat="46.314855152741075" lon="8.252729577943683">
        <ele>1653.1199999999999</ele>
        <time>2019-01-15T12:32:58Z</time>
      </trkpt>
      <trkpt lat="46.314858170226216" lon="8.252878692001104">
        <ele>1652.6400000000001</ele>
        <time>2019-01-15T12:33:10Z</time>
      </trkpt>
      <trkpt lat="46.314879124984145" lon="8.253074241802096">
        <ele>1651.6800000000001</ele>
        <time>2019-01-15T12:33:22Z</time>
      </trkpt>
      <trkpt lat="46.314897397533059" lon="8.253234503790736">
        <ele>1651.2</ele>
        <time>2019-01-15T12:33:32Z</time>
      </trkpt>
      <trkpt lat="46.314925393089652" lon="8.253374565392733">
        <ele>1651.2</ele>
        <time>2019-01-15T12:33:42Z</time>
      </trkpt>
      <trkpt lat="46.31493897177279" lon="8.253435250371695">
        <ele>1650.24</ele>
        <time>2019-01-15T12:33:46Z</time>
      </trkpt>
      <trkpt lat="46.314960261806846" lon="8.253488810732961">
        <ele>1648.8</ele>
        <time>2019-01-15T12:33:54Z</time>
      </trkpt>
      <trkpt lat="46.314990520477295" lon="8.253597691655159">
        <ele>1648.3199999999999</ele>
        <time>2019-01-15T12:34:03Z</time>
      </trkpt>
      <trkpt lat="46.315008290112019" lon="8.25366860255599">
        <ele>1647.8399999999999</ele>
        <time>2019-01-15T12:34:11Z</time>
      </trkpt>
      <trkpt lat="46.315041230991483" lon="8.253777315840125">
        <ele>1646.8800000000001</ele>
        <time>2019-01-15T12:34:21Z</time>
      </trkpt>
      <trkpt lat="46.315079452469945" lon="8.253902206197381">
        <ele>1646.4000000000001</ele>
        <time>2019-01-15T12:34:31Z</time>
      </trkpt>
      <trkpt lat="46.315123038366437" lon="8.254009913653135">
        <ele>1645.9100000000001</ele>
        <time>2019-01-15T12:34:41Z</time>
      </trkpt>
      <trkpt lat="46.315156817436218" lon="8.25412692502141">
        <ele>1645.9100000000001</ele>
        <time>2019-01-15T12:34:50Z</time>
      </trkpt>
      <trkpt lat="46.315178442746401" lon="8.254239493981004">
        <ele>1645.4300000000001</ele>
        <time>2019-01-15T12:34:59Z</time>
      </trkpt>
      <trkpt lat="46.315215658396482" lon="8.254347704350948">
        <ele>1645.9100000000001</ele>
        <time>2019-01-15T12:35:08Z</time>
      </trkpt>
      <trkpt lat="46.315239798277617" lon="8.254398247227073">
        <ele>1645.4300000000001</ele>
        <time>2019-01-15T12:35:13Z</time>
      </trkpt>
      <trkpt lat="46.315249940380454" lon="8.254463877528906">
        <ele>1645.4300000000001</ele>
        <time>2019-01-15T12:35:21Z</time>
      </trkpt>
      <trkpt lat="46.315271900966763" lon="8.254558928310871">
        <ele>1645.9100000000001</ele>
        <time>2019-01-15T12:35:31Z</time>
      </trkpt>
      <trkpt lat="46.315276091918349" lon="8.254592958837748">
        <ele>1645.9100000000001</ele>
        <time>2019-01-15T12:35:40Z</time>
      </trkpt>
      <trkpt lat="46.315268129110336" lon="8.2546541467309">
        <ele>1645.4300000000001</ele>
        <time>2019-01-15T12:35:55Z</time>
      </trkpt>
      <trkpt lat="46.315273074433208" lon="8.254744168370962">
        <ele>1645.4300000000001</ele>
        <time>2019-01-15T12:36:06Z</time>
      </trkpt>
      <trkpt lat="46.315286736935377" lon="8.25489604845643">
        <ele>1644.95</ele>
        <time>2019-01-15T12:36:17Z</time>
      </trkpt>
      <trkpt lat="46.31529176607728" lon="8.254936533048749">
        <ele>1644.95</ele>
        <time>2019-01-15T12:36:20Z</time>
      </trkpt>
      <trkpt lat="46.315295705571771" lon="8.25506460852921">
        <ele>1644.47</ele>
        <time>2019-01-15T12:36:29Z</time>
      </trkpt>
      <trkpt lat="46.315302243456244" lon="8.255195701494813">
        <ele>1643.51</ele>
        <time>2019-01-15T12:36:39Z</time>
      </trkpt>
      <trkpt lat="46.315306350588799" lon="8.25532210059464">
        <ele>1643.03</ele>
        <time>2019-01-15T12:36:49Z</time>
      </trkpt>
      <trkpt lat="46.315313559025526" lon="8.25535730458796">
        <ele>1643.51</ele>
        <time>2019-01-15T12:36:52Z</time>
      </trkpt>
      <trkpt lat="46.315338453277946" lon="8.255500132218003">
        <ele>1643.03</ele>
        <time>2019-01-15T12:37:02Z</time>
      </trkpt>
      <trkpt lat="46.315349852666259" lon="8.255610940977931">
        <ele>1643.51</ele>
        <time>2019-01-15T12:37:10Z</time>
      </trkpt>
      <trkpt lat="46.315348008647561" lon="8.25562552548945">
        <ele>1643.51</ele>
        <time>2019-01-15T12:37:11Z</time>
      </trkpt>
      <trkpt lat="46.315347673371434" lon="8.255691239610314">
        <ele>1643.99</ele>
        <time>2019-01-15T12:37:15Z</time>
      </trkpt>
      <trkpt lat="46.315353959798813" lon="8.255721163004637">
        <ele>1644.47</ele>
        <time>2019-01-15T12:37:17Z</time>
      </trkpt>
      <trkpt lat="46.315366365015507" lon="8.255762485787273">
        <ele>1643.99</ele>
        <time>2019-01-15T12:37:20Z</time>
      </trkpt>
      <trkpt lat="46.315368041396141" lon="8.255776986479759">
        <ele>1643.51</ele>
        <time>2019-01-15T12:37:21Z</time>
      </trkpt>
      <trkpt lat="46.315371813252568" lon="8.255794588476419">
        <ele>1643.51</ele>
        <time>2019-01-15T12:37:22Z</time>
      </trkpt>
      <trkpt lat="46.315381787717342" lon="8.25593238696456">
        <ele>1642.55</ele>
        <time>2019-01-15T12:37:32Z</time>
      </trkpt>
      <trkpt lat="46.315383296459913" lon="8.255980834364891">
        <ele>1642.55</ele>
        <time>2019-01-15T12:37:35Z</time>
      </trkpt>
      <trkpt lat="46.315387571230531" lon="8.256111172959209">
        <ele>1642.0699999999999</ele>
        <time>2019-01-15T12:37:45Z</time>
      </trkpt>
      <trkpt lat="46.315398467704654" lon="8.256234303116798">
        <ele>1642.55</ele>
        <time>2019-01-15T12:37:57Z</time>
      </trkpt>
      <trkpt lat="46.315412046387792" lon="8.256336646154523">
        <ele>1642.0699999999999</ele>
        <time>2019-01-15T12:38:06Z</time>
      </trkpt>
      <trkpt lat="46.315415147691965" lon="8.256364054977894">
        <ele>1641.5899999999999</ele>
        <time>2019-01-15T12:38:11Z</time>
      </trkpt>
      <trkpt lat="46.315418668091297" lon="8.256418369710445">
        <ele>1640.6300000000001</ele>
        <time>2019-01-15T12:38:16Z</time>
      </trkpt>
      <trkpt lat="46.315422188490629" lon="8.256431445479393">
        <ele>1641.1099999999999</ele>
        <time>2019-01-15T12:38:17Z</time>
      </trkpt>
      <trkpt lat="46.315434090793133" lon="8.256557676941156">
        <ele>1639.6700000000001</ele>
        <time>2019-01-15T12:38:27Z</time>
      </trkpt>
      <trkpt lat="46.315432582050562" lon="8.256669407710433">
        <ele>1640.1500000000001</ele>
        <time>2019-01-15T12:38:38Z</time>
      </trkpt>
      <trkpt lat="46.315451860427856" lon="8.256795052438974">
        <ele>1640.6300000000001</ele>
        <time>2019-01-15T12:38:48Z</time>
      </trkpt>
      <trkpt lat="46.315459739416838" lon="8.256937963888049">
        <ele>1640.1500000000001</ele>
        <time>2019-01-15T12:38:58Z</time>
      </trkpt>
      <trkpt lat="46.315462756901979" lon="8.257061429321766">
        <ele>1640.6300000000001</ele>
        <time>2019-01-15T12:39:07Z</time>
      </trkpt>
      <trkpt lat="46.315462589263916" lon="8.257168466225267">
        <ele>1640.6300000000001</ele>
        <time>2019-01-15T12:39:16Z</time>
      </trkpt>
      <trkpt lat="46.315466612577438" lon="8.257292853668332">
        <ele>1641.1099999999999</ele>
        <time>2019-01-15T12:39:25Z</time>
      </trkpt>
      <trkpt lat="46.315468037500978" lon="8.257431657984853">
        <ele>1641.1099999999999</ele>
        <time>2019-01-15T12:39:36Z</time>
      </trkpt>
      <trkpt lat="46.315464098006487" lon="8.257477506995201">
        <ele>1642.55</ele>
        <time>2019-01-15T12:39:47Z</time>
      </trkpt>
      <trkpt lat="46.315465103834867" lon="8.257474154233933">
        <ele>1643.51</ele>
        <time>2019-01-15T12:39:49Z</time>
      </trkpt>
      <trkpt lat="46.315464684739709" lon="8.257514135912061">
        <ele>1645.9100000000001</ele>
        <time>2019-01-15T12:40:01Z</time>
      </trkpt>
      <trkpt lat="46.315460745245218" lon="8.257644725963473">
        <ele>1644.95</ele>
        <time>2019-01-15T12:40:12Z</time>
      </trkpt>
      <trkpt lat="46.315442388877273" lon="8.257715636864305">
        <ele>1644.95</ele>
        <time>2019-01-15T12:40:17Z</time>
      </trkpt>
      <trkpt lat="46.315436940640211" lon="8.257733741775155">
        <ele>1644.95</ele>
        <time>2019-01-15T12:40:18Z</time>
      </trkpt>
      <trkpt lat="46.315431073307991" lon="8.257750673219562">
        <ele>1644.95</ele>
        <time>2019-01-15T12:40:19Z</time>
      </trkpt>
      <trkpt lat="46.315426798537374" lon="8.257767437025905">
        <ele>1644.95</ele>
        <time>2019-01-15T12:40:20Z</time>
      </trkpt>
      <trkpt lat="46.315422859042883" lon="8.257780764251947">
        <ele>1644.47</ele>
        <time>2019-01-15T12:40:21Z</time>
      </trkpt>
      <trkpt lat="46.315420428290963" lon="8.257797108963132">
        <ele>1644.47</ele>
        <time>2019-01-15T12:40:22Z</time>
      </trkpt>
      <trkpt lat="46.315417075529695" lon="8.257812447845936">
        <ele>1643.99</ele>
        <time>2019-01-15T12:40:23Z</time>
      </trkpt>
      <trkpt lat="46.315413219854236" lon="8.257826529443264">
        <ele>1643.99</ele>
        <time>2019-01-15T12:40:24Z</time>
      </trkpt>
      <trkpt lat="46.315398802980781" lon="8.257868271321058">
        <ele>1643.99</ele>
        <time>2019-01-15T12:40:27Z</time>
      </trkpt>
      <trkpt lat="46.315391594544053" lon="8.257904900237918">
        <ele>1643.99</ele>
        <time>2019-01-15T12:40:29Z</time>
      </trkpt>
      <trkpt lat="46.315341722220182" lon="8.258038926869631">
        <ele>1643.03</ele>
        <time>2019-01-15T12:40:38Z</time>
      </trkpt>
      <trkpt lat="46.315301824361086" lon="8.258143784478307">
        <ele>1643.03</ele>
        <time>2019-01-15T12:40:45Z</time>
      </trkpt>
      <trkpt lat="46.31523803807795" lon="8.258226094767451">
        <ele>1643.51</ele>
        <time>2019-01-15T12:40:54Z</time>
      </trkpt>
      <trkpt lat="46.315199313685298" lon="8.258258197456598">
        <ele>1642.55</ele>
        <time>2019-01-15T12:41:00Z</time>
      </trkpt>
      <trkpt lat="46.315180705860257" lon="8.258269764482975">
        <ele>1643.03</ele>
        <time>2019-01-15T12:41:02Z</time>
      </trkpt>
      <trkpt lat="46.315168971195817" lon="8.258274458348751">
        <ele>1643.03</ele>
        <time>2019-01-15T12:41:03Z</time>
      </trkpt>
      <trkpt lat="46.315135946497321" lon="8.258284013718367">
        <ele>1643.51</ele>
        <time>2019-01-15T12:41:06Z</time>
      </trkpt>
      <trkpt lat="46.315125552937388" lon="8.258288120850921">
        <ele>1643.03</ele>
        <time>2019-01-15T12:41:07Z</time>
      </trkpt>
      <trkpt lat="46.315114991739392" lon="8.258290300145745">
        <ele>1643.03</ele>
        <time>2019-01-15T12:41:08Z</time>
      </trkpt>
      <trkpt lat="46.315070232376456" lon="8.258326426148415">
        <ele>1643.51</ele>
        <time>2019-01-15T12:41:16Z</time>
      </trkpt>
      <trkpt lat="46.315069897100329" lon="8.258331622928381">
        <ele>1643.51</ele>
        <time>2019-01-15T12:41:31Z</time>
      </trkpt>
      <trkpt lat="46.315077105537057" lon="8.258327515795827">
        <ele>1643.51</ele>
        <time>2019-01-15T12:41:44Z</time>
      </trkpt>
      <trkpt lat="46.315081547945738" lon="8.258336652070284">
        <ele>1647.3599999999999</ele>
        <time>2019-01-15T12:41:51Z</time>
      </trkpt>
      <trkpt lat="46.315077440813184" lon="8.258355427533388">
        <ele>1645.4300000000001</ele>
        <time>2019-01-15T12:42:05Z</time>
      </trkpt>
      <trkpt lat="46.315067131072283" lon="8.258334137499332">
        <ele>1644.47</ele>
        <time>2019-01-15T12:42:15Z</time>
      </trkpt>
      <trkpt lat="46.315044919028878" lon="8.25833011418581">
        <ele>1643.51</ele>
        <time>2019-01-15T12:42:27Z</time>
      </trkpt>
      <trkpt lat="46.315029328688979" lon="8.258311422541738">
        <ele>1643.51</ele>
        <time>2019-01-15T12:42:29Z</time>
      </trkpt>
      <trkpt lat="46.315013822168112" lon="8.258291641250253">
        <ele>1643.03</ele>
        <time>2019-01-15T12:42:31Z</time>
      </trkpt>
      <trkpt lat="46.315004685893655" lon="8.258278733119369">
        <ele>1643.03</ele>
        <time>2019-01-15T12:42:32Z</time>
      </trkpt>
      <trkpt lat="46.314989849925041" lon="8.258236069232225">
        <ele>1642.55</ele>
        <time>2019-01-15T12:42:35Z</time>
      </trkpt>
      <trkpt lat="46.314972499385476" lon="8.258191226050258">
        <ele>1643.03</ele>
        <time>2019-01-15T12:42:42Z</time>
      </trkpt>
      <trkpt lat="46.31500493735075" lon="8.258234644308686">
        <ele>1643.99</ele>
        <time>2019-01-15T12:42:50Z</time>
      </trkpt>
      <trkpt lat="46.315017007291317" lon="8.258339921012521">
        <ele>1644.95</ele>
        <time>2019-01-15T12:43:01Z</time>
      </trkpt>
      <trkpt lat="46.315019521862268" lon="8.25830957852304">
        <ele>1645.4300000000001</ele>
        <time>2019-01-15T12:43:13Z</time>
      </trkpt>
      <trkpt lat="46.315042907372117" lon="8.258323073387146">
        <ele>1643.51</ele>
        <time>2019-01-15T12:43:23Z</time>
      </trkpt>
      <trkpt lat="46.315052714198828" lon="8.258339501917362">
        <ele>1644.47</ele>
        <time>2019-01-15T12:43:34Z</time>
      </trkpt>
      <trkpt lat="46.315057491883636" lon="8.258356098085642">
        <ele>1643.03</ele>
        <time>2019-01-15T12:43:54Z</time>
      </trkpt>
      <trkpt lat="46.315066209062934" lon="8.258345453068614">
        <ele>1643.03</ele>
        <time>2019-01-15T12:44:07Z</time>
      </trkpt>
      <trkpt lat="46.315066125243902" lon="8.258344028145075">
        <ele>1641.1099999999999</ele>
        <time>2019-01-15T12:44:20Z</time>
      </trkpt>
      <trkpt lat="46.315059335902333" lon="8.258333383128047">
        <ele>1642.55</ele>
        <time>2019-01-15T12:44:31Z</time>
      </trkpt>
      <trkpt lat="46.315055983141065" lon="8.258331203833222">
        <ele>1643.51</ele>
        <time>2019-01-15T12:44:45Z</time>
      </trkpt>
      <trkpt lat="46.315043494105339" lon="8.258387614041567">
        <ele>1643.03</ele>
        <time>2019-01-15T12:44:54Z</time>
      </trkpt>
      <trkpt lat="46.315059084445238" lon="8.258485347032547">
        <ele>1642.0699999999999</ele>
        <time>2019-01-15T12:45:02Z</time>
      </trkpt>
      <trkpt lat="46.31509923376143" lon="8.25858173891902">
        <ele>1641.5899999999999</ele>
        <time>2019-01-15T12:45:12Z</time>
      </trkpt>
      <trkpt lat="46.315138880163431" lon="8.258715262636542">
        <ele>1641.5899999999999</ele>
        <time>2019-01-15T12:45:23Z</time>
      </trkpt>
      <trkpt lat="46.315153213217854" lon="8.258886924013495">
        <ele>1640.1500000000001</ele>
        <time>2019-01-15T12:45:34Z</time>
      </trkpt>
      <trkpt lat="46.315147345885634" lon="8.258932270109654">
        <ele>1639.6700000000001</ele>
        <time>2019-01-15T12:45:37Z</time>
      </trkpt>
      <trkpt lat="46.315143909305334" lon="8.258956661447883">
        <ele>1639.6700000000001</ele>
        <time>2019-01-15T12:45:39Z</time>
      </trkpt>
      <trkpt lat="46.315145250409842" lon="8.25897560454905">
        <ele>1639.6700000000001</ele>
        <time>2019-01-15T12:45:40Z</time>
      </trkpt>
      <trkpt lat="46.315144998952746" lon="8.258992535993457">
        <ele>1639.6700000000001</ele>
        <time>2019-01-15T12:45:41Z</time>
      </trkpt>
      <trkpt lat="46.315145418047905" lon="8.259010221809149">
        <ele>1640.1500000000001</ele>
        <time>2019-01-15T12:45:42Z</time>
      </trkpt>
      <trkpt lat="46.315145418047905" lon="8.259028159081936">
        <ele>1640.1500000000001</ele>
        <time>2019-01-15T12:45:43Z</time>
      </trkpt>
      <trkpt lat="46.31514466367662" lon="8.259044587612152">
        <ele>1640.1500000000001</ele>
        <time>2019-01-15T12:45:44Z</time>
      </trkpt>
      <trkpt lat="46.315141310915351" lon="8.25906353071332">
        <ele>1639.6700000000001</ele>
        <time>2019-01-15T12:45:45Z</time>
      </trkpt>
      <trkpt lat="46.315121110528708" lon="8.259171070531011">
        <ele>1640.1500000000001</ele>
        <time>2019-01-15T12:45:53Z</time>
      </trkpt>
      <trkpt lat="46.315095713362098" lon="8.259364776313305">
        <ele>1641.1099999999999</ele>
        <time>2019-01-15T12:46:05Z</time>
      </trkpt>
      <trkpt lat="46.315086241811514" lon="8.259480195119977">
        <ele>1640.6300000000001</ele>
        <time>2019-01-15T12:46:13Z</time>
      </trkpt>
      <trkpt lat="46.315081547945738" lon="8.259612293913961">
        <ele>1640.6300000000001</ele>
        <time>2019-01-15T12:46:22Z</time>
      </trkpt>
      <trkpt lat="46.315110716968775" lon="8.259751433506608">
        <ele>1640.1500000000001</ele>
        <time>2019-01-15T12:46:32Z</time>
      </trkpt>
      <trkpt lat="46.315149692818522" lon="8.259894428774715">
        <ele>1640.1500000000001</ele>
        <time>2019-01-15T12:46:42Z</time>
      </trkpt>
      <trkpt lat="46.315183807164431" lon="8.260029125958681">
        <ele>1640.6300000000001</ele>
        <time>2019-01-15T12:46:51Z</time>
      </trkpt>
      <trkpt lat="46.315218508243561" lon="8.26020548120141">
        <ele>1640.6300000000001</ele>
        <time>2019-01-15T12:47:03Z</time>
      </trkpt>
      <trkpt lat="46.315234182402492" lon="8.260362641885877">
        <ele>1640.6300000000001</ele>
        <time>2019-01-15T12:47:13Z</time>
      </trkpt>
      <trkpt lat="46.315243570134044" lon="8.260505050420761">
        <ele>1640.6300000000001</ele>
        <time>2019-01-15T12:47:22Z</time>
      </trkpt>
      <trkpt lat="46.315234014764428" lon="8.260615188628435">
        <ele>1641.1099999999999</ele>
        <time>2019-01-15T12:47:30Z</time>
      </trkpt>
      <trkpt lat="46.315234350040555" lon="8.260634047910571">
        <ele>1641.1099999999999</ele>
        <time>2019-01-15T12:47:31Z</time>
      </trkpt>
      <trkpt lat="46.315206354483962" lon="8.260751813650131">
        <ele>1641.5899999999999</ele>
        <time>2019-01-15T12:47:41Z</time>
      </trkpt>
      <trkpt lat="46.315176095813513" lon="8.260773187503219">
        <ele>1642.0699999999999</ele>
        <time>2019-01-15T12:47:52Z</time>
      </trkpt>
      <trkpt lat="46.315130582079291" lon="8.26078056357801">
        <ele>1644.47</ele>
        <time>2019-01-15T12:48:06Z</time>
      </trkpt>
      <trkpt lat="46.315168216824532" lon="8.260754244402051">
        <ele>1646.8800000000001</ele>
        <time>2019-01-15T12:48:18Z</time>
      </trkpt>
      <trkpt lat="46.315185651183128" lon="8.26067503541708">
        <ele>1648.8</ele>
        <time>2019-01-15T12:48:27Z</time>
      </trkpt>
      <trkpt lat="46.315154386684299" lon="8.260637316852808">
        <ele>1649.28</ele>
        <time>2019-01-15T12:48:32Z</time>
      </trkpt>
      <trkpt lat="46.31510803475976" lon="8.260572860017419">
        <ele>1649.28</ele>
        <time>2019-01-15T12:48:42Z</time>
      </trkpt>
      <trkpt lat="46.315068723633885" lon="8.260521227493882">
        <ele>1650.72</ele>
        <time>2019-01-15T12:48:51Z</time>
      </trkpt>
      <trkpt lat="46.315042823553085" lon="8.260478563606739">
        <ele>1651.2</ele>
        <time>2019-01-15T12:49:00Z</time>
      </trkpt>
      <trkpt lat="46.314993789419532" lon="8.260424081236124">
        <ele>1653.1199999999999</ele>
        <time>2019-01-15T12:49:10Z</time>
      </trkpt>
      <trkpt lat="46.314958753064275" lon="8.260371359065175">
        <ele>1652.6400000000001</ele>
        <time>2019-01-15T12:49:19Z</time>
      </trkpt>
      <trkpt lat="46.314909048378468" lon="8.260296089574695">
        <ele>1652.6400000000001</ele>
        <time>2019-01-15T12:49:30Z</time>
      </trkpt>
      <trkpt lat="46.314867055043578" lon="8.260206487029791">
        <ele>1652.1600000000001</ele>
        <time>2019-01-15T12:49:40Z</time>
      </trkpt>
      <trkpt lat="46.314801424741745" lon="8.260137839242816">
        <ele>1651.6800000000001</ele>
        <time>2019-01-15T12:49:50Z</time>
      </trkpt>
      <trkpt lat="46.314788935706019" lon="8.260136330500245">
        <ele>1652.1600000000001</ele>
        <time>2019-01-15T12:50:01Z</time>
      </trkpt>
      <trkpt lat="46.314781559631228" lon="8.260130463168025">
        <ele>1652.1600000000001</ele>
        <time>2019-01-15T12:50:18Z</time>
      </trkpt>
      <trkpt lat="46.314800335094333" lon="8.260158291086555">
        <ele>1649.76</ele>
        <time>2019-01-15T12:50:34Z</time>
      </trkpt>
      <trkpt lat="46.314808884635568" lon="8.26016684062779">
        <ele>1649.76</ele>
        <time>2019-01-15T12:50:35Z</time>
      </trkpt>
      <trkpt lat="46.314817434176803" lon="8.260175222530961">
        <ele>1649.28</ele>
        <time>2019-01-15T12:50:36Z</time>
      </trkpt>
      <trkpt lat="46.314890189096332" lon="8.260250156745315">
        <ele>1647.8399999999999</ele>
        <time>2019-01-15T12:50:45Z</time>
      </trkpt>
      <trkpt lat="46.314877532422543" lon="8.260277062654495">
        <ele>1647.8399999999999</ele>
        <time>2019-01-15T12:50:55Z</time>
      </trkpt>
      <trkpt lat="46.314914748072624" lon="8.260295083746314">
        <ele>1646.4000000000001</ele>
        <time>2019-01-15T12:51:05Z</time>
      </trkpt>
      <trkpt lat="46.31499613635242" lon="8.260389883071184">
        <ele>1645.4300000000001</ele>
        <time>2019-01-15T12:51:14Z</time>
      </trkpt>
      <trkpt lat="46.315005524083972" lon="8.260399857535958">
        <ele>1645.4300000000001</ele>
        <time>2019-01-15T12:51:15Z</time>
      </trkpt>
      <trkpt lat="46.315013319253922" lon="8.260410502552986">
        <ele>1645.4300000000001</ele>
        <time>2019-01-15T12:51:16Z</time>
      </trkpt>
      <trkpt lat="46.315081128850579" lon="8.260503457859159">
        <ele>1643.99</ele>
        <time>2019-01-15T12:51:25Z</time>
      </trkpt>
      <trkpt lat="46.315090348944068" lon="8.260517287999392">
        <ele>1643.99</ele>
        <time>2019-01-15T12:51:26Z</time>
      </trkpt>
      <trkpt lat="46.315100323408842" lon="8.26053187251091">
        <ele>1643.51</ele>
        <time>2019-01-15T12:51:27Z</time>
      </trkpt>
      <trkpt lat="46.315109459683299" lon="8.260543523356319">
        <ele>1643.51</ele>
        <time>2019-01-15T12:51:28Z</time>
      </trkpt>
      <trkpt lat="46.315178442746401" lon="8.260635053738952">
        <ele>1640.1500000000001</ele>
        <time>2019-01-15T12:51:36Z</time>
      </trkpt>
      <trkpt lat="46.315187159925699" lon="8.260645112022758">
        <ele>1640.1500000000001</ele>
        <time>2019-01-15T12:51:37Z</time>
      </trkpt>
      <trkpt lat="46.315196380019188" lon="8.260660702362657">
        <ele>1640.1500000000001</ele>
        <time>2019-01-15T12:51:38Z</time>
      </trkpt>
      <trkpt lat="46.315207108855247" lon="8.260705042630434">
        <ele>1640.1500000000001</ele>
        <time>2019-01-15T12:51:41Z</time>
      </trkpt>
      <trkpt lat="46.315201492980123" lon="8.260723231360316">
        <ele>1640.1500000000001</ele>
        <time>2019-01-15T12:51:42Z</time>
      </trkpt>
      <trkpt lat="46.315194200724363" lon="8.260739240795374">
        <ele>1640.1500000000001</ele>
        <time>2019-01-15T12:51:43Z</time>
      </trkpt>
      <trkpt lat="46.315181208774447" lon="8.260754831135273">
        <ele>1639.6700000000001</ele>
        <time>2019-01-15T12:51:44Z</time>
      </trkpt>
      <trkpt lat="46.315173665061593" lon="8.260763632133603">
        <ele>1640.1500000000001</ele>
        <time>2019-01-15T12:51:45Z</time>
      </trkpt>
      <trkpt lat="46.315161092206836" lon="8.26077913865447">
        <ele>1640.1500000000001</ele>
        <time>2019-01-15T12:51:46Z</time>
      </trkpt>
      <trkpt lat="46.31513393484056" lon="8.26080059632659">
        <ele>1640.1500000000001</ele>
        <time>2019-01-15T12:51:49Z</time>
      </trkpt>
      <trkpt lat="46.315080374479294" lon="8.260805206373334">
        <ele>1640.6300000000001</ele>
        <time>2019-01-15T12:51:57Z</time>
      </trkpt>
      <trkpt lat="46.314991777762771" lon="8.26081233099103">
        <ele>1639.6700000000001</ele>
        <time>2019-01-15T12:52:06Z</time>
      </trkpt>
      <trkpt lat="46.314897313714027" lon="8.260780228301883">
        <ele>1638.7</ele>
        <time>2019-01-15T12:52:15Z</time>
      </trkpt>
      <trkpt lat="46.314874012023211" lon="8.260780647397041">
        <ele>1638.22</ele>
        <time>2019-01-15T12:52:17Z</time>
      </trkpt>
      <trkpt lat="46.314829001203179" lon="8.260772349312902">
        <ele>1638.22</ele>
        <time>2019-01-15T12:52:21Z</time>
      </trkpt>
      <trkpt lat="46.314707463607192" lon="8.260803865268827">
        <ele>1636.78</ele>
        <time>2019-01-15T12:52:33Z</time>
      </trkpt>
      <trkpt lat="46.314612412825227" lon="8.26085340231657">
        <ele>1637.26</ele>
        <time>2019-01-15T12:52:43Z</time>
      </trkpt>
      <trkpt lat="46.314597576856613" lon="8.260873854160309">
        <ele>1637.26</ele>
        <time>2019-01-15T12:52:45Z</time>
      </trkpt>
      <trkpt lat="46.314590200781822" lon="8.260882738977671">
        <ele>1636.78</ele>
        <time>2019-01-15T12:52:46Z</time>
      </trkpt>
      <trkpt lat="46.314566731452942" lon="8.260904615744948">
        <ele>1635.8199999999999</ele>
        <time>2019-01-15T12:52:49Z</time>
      </trkpt>
      <trkpt lat="46.314522139728069" lon="8.260915344581008">
        <ele>1634.8599999999999</ele>
        <time>2019-01-15T12:52:53Z</time>
      </trkpt>
      <trkpt lat="46.314510321244597" lon="8.260908806696534">
        <ele>1634.8599999999999</ele>
        <time>2019-01-15T12:52:54Z</time>
      </trkpt>
      <trkpt lat="46.314489366486669" lon="8.260886343196034">
        <ele>1634.3800000000001</ele>
        <time>2019-01-15T12:52:56Z</time>
      </trkpt>
      <trkpt lat="46.314479559659958" lon="8.260875698179007">
        <ele>1633.9000000000001</ele>
        <time>2019-01-15T12:52:57Z</time>
      </trkpt>
      <trkpt lat="46.314468663185835" lon="8.260865304619074">
        <ele>1633.9000000000001</ele>
        <time>2019-01-15T12:52:58Z</time>
      </trkpt>
      <trkpt lat="46.314448630437255" lon="8.260838901624084">
        <ele>1632.9400000000001</ele>
        <time>2019-01-15T12:53:00Z</time>
      </trkpt>
      <trkpt lat="46.314440332353115" lon="8.260823646560311">
        <ele>1632.9400000000001</ele>
        <time>2019-01-15T12:53:01Z</time>
      </trkpt>
      <trkpt lat="46.3144342135638" lon="8.260809229686856">
        <ele>1632.46</ele>
        <time>2019-01-15T12:53:02Z</time>
      </trkpt>
      <trkpt lat="46.314427172765136" lon="8.260798836126924">
        <ele>1632.46</ele>
        <time>2019-01-15T12:53:03Z</time>
      </trkpt>
      <trkpt lat="46.314419293776155" lon="8.26078986749053">
        <ele>1631.98</ele>
        <time>2019-01-15T12:53:04Z</time>
      </trkpt>
      <trkpt lat="46.314412336796522" lon="8.260778803378344">
        <ele>1631.49</ele>
        <time>2019-01-15T12:53:05Z</time>
      </trkpt>
      <trkpt lat="46.314404709264636" lon="8.260765559971333">
        <ele>1631.49</ele>
        <time>2019-01-15T12:53:06Z</time>
      </trkpt>
      <trkpt lat="46.314395824447274" lon="8.260752484202385">
        <ele>1631.01</ele>
        <time>2019-01-15T12:53:07Z</time>
      </trkpt>
      <trkpt lat="46.31438635289669" lon="8.260742342099547">
        <ele>1630.53</ele>
        <time>2019-01-15T12:53:08Z</time>
      </trkpt>
      <trkpt lat="46.314379815012217" lon="8.260728679597378">
        <ele>1630.53</ele>
        <time>2019-01-15T12:53:09Z</time>
      </trkpt>
      <trkpt lat="46.314339498057961" lon="8.260647458955646">
        <ele>1630.05</ele>
        <time>2019-01-15T12:53:16Z</time>
      </trkpt>
      <trkpt lat="46.314323237165809" lon="8.260626923292875">
        <ele>1630.05</ele>
        <time>2019-01-15T12:53:18Z</time>
      </trkpt>
      <trkpt lat="46.314311502501369" lon="8.260605381801724">
        <ele>1631.49</ele>
        <time>2019-01-15T12:53:27Z</time>
      </trkpt>
      <trkpt lat="46.314318710938096" lon="8.260598424822092">
        <ele>1632.9400000000001</ele>
        <time>2019-01-15T12:53:35Z</time>
      </trkpt>
    </trkseg>
  </trk>

</gpx>